     2              OBSERVATION DATA    GPS                 RINEX VERSION / TYPE
teqc 2002Apr3 20041109 01:32:56UTC                          PGM / RUN BY / DATE
                                                            COMMENT
L2: 1 -> 1; 5 -> 5; 60 -> 9                                 COMMENT
L2: 1 -> 1; 5 -> 5; 60 -> 9                                 COMMENT
L2: 1 -> 1; 5 -> 5; 60 -> 9                                 COMMENT
L2: 1 -> 1; 5 -> 5; 60 -> 9                                 COMMENT
L2: 1 -> 1; 5 -> 5; 60 -> 9                                 COMMENT
Original Marker Name: 7368                                  COMMENT
Campaign Name: CSRC/Caltrans post-San Simeon                COMMENT
4-Character Station Name: 05LG                              COMMENT
6-Character Antenna Code: TRZEPH                            COMMENT
Vertical Measurement Point: BPA                             COMMENT
Vertical Offset to Rinex Ref. Point: 0.0000                 COMMENT
Radial Measurement Point: RRP                               COMMENT
Radial Offset to Rinex Ref. Point: 0.0000                   COMMENT
Antenna Height from Field Measurement: 2.0000 m             COMMENT
Original XYZ: -2679720.9662 -4452301.5503 3685835.6575      COMMENT
New XYZ position is based on association with SCEC monument COMMENT
E1F0J5C2+0011. Position of that monument is believed to be  COMMENT
valid to within 1 m horizontally; vertical accuracy         COMMENT
should be no worse than 3-times this value.                 COMMENT
                                                            COMMENT
Revised Rinex header created by UCSD GPS archive for        COMMENT
GSAC on 11-Feb-2005 (2005:042) 22:01:14 GMT                 COMMENT
For assistance contact dagnew@ucsd.edu                      COMMENT
or anderson@python.ucsd.edu                                 COMMENT
                                                            COMMENT
05LG                                                        MARKER NAME
7368                                                        MARKER NUMBER
K. A. Forsberg CALIF DEPT TRANSPORTATION DISTRICT 5         OBSERVER / AGENCY
0220247368 TRIMBLE 5700 NP 2.01 / SP 0.00                   REC # / TYPE / VERS
12200350 TRM41249.00                                        ANT # / TYPE
 -2679720.0000 -4452299.0000  3685834.0000                  APPROX POSITION XYZ
        2.0000        0.0000        0.0000                  ANTENNA: DELTA H/E/N
     1     1     0                                          WAVELENGTH FACT L1/2
     7    C1    L1    L2    P1    P2    S1    S2            # / TYPES OF OBSERV
     0                                                      INTERVAL
  2004     6    29    17    28   30.000000                  TIME OF FIRST OBS
  2004     6    29    18    45   15.000000                  TIME OF LAST OBS
                                                            END OF HEADER
 04  6 29 17 28 30.0000000  0  8G 3G 9G14G15G18G19G21G22
  21508579.1434    -374411.77349   -281125.09047                  21508577.5044
        46.0004         37.2504
  23506545.2644    -429420.93748
        35.5004
  21342633.8654    -642230.54749   -479081.47747                  21342631.8244
        49.0004         37.2504
  20000255.9734    -396391.60249   -303062.69548                  20000253.6274
        51.5004         42.0004
  21391880.6984    -147159.91849   -114108.70747                  21391877.7854
        48.0004         36.5004
  23424150.3954    -641141.21949   -480896.32847                  23424147.0564
        38.7504         29.5004
  21571658.4804    -123961.16849    -96102.30547                  21571656.3144
        49.0004         37.5004
  20488570.6674    -312371.10249   -235311.84848                  20488566.4114
        50.5004         42.5004
 04  6 29 17 28 45.0000000  0  8G 3G 9G14G15G18G19G21G22
  21498977.2064    -424870.89549   -320443.89847                  21498975.7464
        48.2504         37.2504
  23494707.3324    -491631.70349
        36.2504
  21326051.1614    -729374.53949   -546985.89547                  21326049.1444
        47.7504         38.0004
  19989346.1314    -453722.77749   -347736.34448                  19989344.0724
        50.2504         42.5004
  21388068.1424    -167196.82449   -129721.88747                  21388065.1434
        48.7504         36.5004
  23407526.1654    -728501.18049   -548969.01247                  23407523.0524
        40.2504         29.7504
  21568472.4024    -140704.81649   -109149.32047                  21568470.3564
        49.7504         37.5004
  20480509.5814    -354732.71549   -268320.90648                  20480505.5514
        50.2504         42.2504
 04  6 29 17 29  0.0000000  0  8G 3G 9G14G15G18G19G21G22
  21489398.0484    -475207.62549   -359667.34847                  21489397.1854
        48.2504         37.2504
  23482889.7664    -553733.75449
        37.5004
  21309483.6704    -816434.81249   -614825.06247                  21309481.8824
        47.7504         37.7504
  19978449.9404    -510984.43449   -392355.82048                  19978447.4974
        51.0004         42.7504
  21384258.7974    -187214.60949   -145320.18047                  21384255.5024
        49.7504         37.0004
  23390916.1714    -815789.21549   -616985.65247                  23390912.5564
        41.5004         28.5004
  21565297.6224    -157387.00049   -122148.43747                  21565295.8934
        49.2504         37.0004
  20472456.6804    -397050.13749   -301295.52748                  20472452.3804
        50.2504         42.0004
 04  6 29 17 29 15.0000000  0  8G 3G 9G14G15G18G19G21G22
  21779636.4814    -525416.61749   -398791.23847                  21779634.3904
        50.0004         37.2504
  23770886.9344    -615720.80549
        38.7504
  21592726.9274    -903403.14149   -682592.58647                  21592725.1044
        48.0004         38.2504
  20267360.2764    -568170.37949   -436916.30148                  20267357.9024
        51.5004         43.0004
  21680246.2424    -207209.93049   -160900.95347                  21680243.0984
        49.5004         36.5004
  23674113.1554    -902997.10949   -684939.85947                  23674109.6934
        41.7504         28.0004
  21861927.7594    -174004.29349   -135097.00847                  21861926.1924
        49.5004         37.2504
  20764205.6484    -439318.49249   -334231.91048                  20764201.8044
        50.2504         42.0004
 04  6 29 17 29 30.0000000  0  8G 3G 9G14G15G18G19G21G22
  21770104.9064    -575503.14149   -437819.70747                  21770103.4314
        50.0004         37.2504
  23759111.9184    -677599.43049
        37.7504
  21576192.9104    -990289.57449   -750296.30947                  21576190.9564
        46.2504         37.5004
  20256491.0914    -625286.79349   -481422.60248                  20256488.7864
        50.2504         43.5004
  21676445.2274    -227184.44549   -176465.51647                  21676441.3534
        50.0004         36.0004
  23657531.7824    -990134.86749   -752839.42247                  23657527.8844
        39.7504         29.0004
  21858778.0604    -190557.88349   -147995.90647                  21858776.1424
        48.7504         36.7504
  20756170.8654    -481542.30149   -367133.59048                  20756166.8624
        50.2504         42.2504
 04  6 29 17 29 45.0000000  0  8G 3G 9G14G15G18G19G21G22
  21760597.5344    -625464.99249   -476751.02747                  21760596.0514
        50.5004         37.2504
  23747356.2934    -739366.33249
        36.5004
  21559675.8214   -1077089.19549   -817932.37547                  21559673.5464
        46.0004         37.5004
  20245635.9964    -682330.82849   -525872.51248                  20245634.1484
        50.2504         42.5004
  21672648.1114    -247137.96149   -192013.71147                  21672644.9624
        49.7504         36.0004
  23640963.7034   -1077197.52749   -820680.46547                  23640960.2584
        41.5004         30.5004
  21855640.0604    -207047.59049   -160845.04347                  21855638.7084
        49.2504         37.2504
  20748144.9084    -523719.89149   -399999.25848                  20748140.6864
        49.7504         42.7504
 04  6 29 17 30  0.0000000  0  8G 3G 9G14G15G18G19G21G22
  21751114.0894    -675300.75849   -515584.09847                  21751112.7114
        50.2504         37.5004
  23735625.7404    -801019.98849
        37.0004
  21543175.0564   -1163800.37149   -885499.52747                  21543173.0714
        47.0004         37.0004
  20234794.9104    -739300.93749   -570264.80948                  20234793.1464
        51.2504         42.5004
  21668855.3124    -267069.26249   -207544.61747                  21668851.8434
        50.5004         37.0004
  23624411.6694   -1164183.39549   -888461.64847                  23624407.7134
        41.5004         31.0004
  21852514.8634    -223472.13749   -173643.39847                  21852512.9304
        50.0004         37.5004
  20740127.6304    -565850.09049   -432827.99248                  20740123.2514
        49.7504         43.0004
 04  6 29 17 30 15.0000000  0  8G 3G 9G14G15G18G19G21G22
  21741654.7214    -725010.64149   -554319.08647                  21741652.6694
        49.0004         36.7504
  23723913.6334    -862560.29749
        37.0004
  21526691.1564   -1250423.07049   -952997.73047                  21526689.4524
        45.5004         37.7504
  20223968.1054    -796197.03949   -614599.44548                  20223966.0804
        50.2504         42.7504
  21665066.6394    -286978.67649   -223058.45747                  21665063.1094
        49.2504         36.0004
  23607872.9024   -1251092.30149   -956182.84047                  23607870.1604
        40.5004         31.5004
  21849401.2994    -239831.68449   -186391.12147                  21849399.4744
        49.5004         37.7504
  20732119.2564    -607933.20349   -465620.03148                  20732115.5664
        48.2504         42.7504
 04  6 29 17 30 30.0000000  0  8G 3G 9G14G15G18G19G21G22
  21732218.9404    -774596.45749   -592957.39847                  21732217.1034
        48.5004         36.5004
  23712224.8544    -923988.72748
        35.0004
  21510224.6024   -1336958.77049  -1020428.14547                  21510221.9974
        46.7504         37.5004
  20213154.6104    -853020.80549   -658877.71148                  20213152.6804
        51.0004         42.2504
  21661282.1264    -306867.94949   -238556.60547                  21661278.5864
        49.0004         36.2504
  23591349.0264   -1337925.62949  -1023845.15647                  23591346.0404
        40.0004         31.5004
  21846300.2694    -256128.02049   -199089.57047                  21846298.6974
        49.2504         37.2504
  20724119.9744    -649971.01649   -498376.77048                  20724115.9274
        49.5004         42.5004
 04  6 29 17 30 45.0000000  0  8G 3G 9G14G15G18G19G21G22
  21722806.2454    -824060.05149   -631500.47347                  21722804.4334
        47.2504         36.5004
  23700556.7014    -985306.84848   -762335.78956                  23700557.6194
        35.7504         17.0004
  21493772.9994   -1423409.07449  -1087792.01247                  21493770.9644
        46.5004         37.7504
  20202354.8774    -909773.80549   -703100.83648                  20202352.7154
        50.0004         42.0004
  21657500.6064    -326739.23849   -254040.73047                  21657497.5554
        48.0004         36.5004
  23574839.3464   -1424684.94949  -1091449.80547                  23574836.5944
        41.2504         31.0004
  21843210.9164    -272362.91849   -211740.16447                  21843209.0144
        49.0004         36.7504
  20716128.7734    -691965.66049   -531099.87548                  20716124.6314
        49.2504         42.2504
 04  6 29 17 31  0.0000000  0  8G 3G 9G14G15G18G19G21G22
  21713417.3744    -873401.05549   -669948.01647                  21713415.5364
        47.5004         36.2504
  23688908.3284   -1046514.11348   -810029.80946                  23688909.8624
        34.5004         17.0004
  21477338.9464   -1509773.32449  -1155088.82847                  21477336.8794
        46.7504         38.0004
  20191568.8094    -966455.64149   -747268.51248                  20191566.7624
        50.0004         42.0004
  21653722.7134    -346592.40649   -269510.74247                  21653719.5774
        48.5004         36.7504
  23558343.6444   -1511369.65649  -1158996.32047                  23558340.4184
        40.0004         31.2504
  21840133.4224    -288536.30949   -224342.82047                  21840131.7304
        49.7504         36.5004
  20708144.9424    -733916.90249   -563789.16448                  20708141.2844
        48.0004         41.7504
 04  6 29 17 31 15.0000000  0  8G 3G 9G14G15G18G19G21G22
  21704051.1184    -922619.72749   -708300.25847                  21704049.6824
        48.2504         37.0004
  23677283.5504   -1107610.53949   -857637.42246                  23677283.4254
        37.2504         17.5004
  21460920.0934   -1596051.59049  -1222318.64147                  21460918.1584
        47.2504         38.2504
  20180796.1184   -1023066.25849   -791380.68748                  20180793.7394
        49.0004         42.0004
  21649948.2184    -366427.69949   -284966.82447                  21649945.3514
        48.0004         36.7504
  23541862.3654   -1597979.78949  -1226484.72347                  23541859.0014
        39.5004         30.2504
  21837067.6244    -304648.35949   -236897.66447                  21837065.5724
        49.5004         36.5004
  20700170.6504    -775825.06649   -596444.88348                  20700166.7414
        48.0004         41.2504
 04  6 29 17 31 30.0000000  0  8G 3G 9G14G15G18G19G21G22
  21694708.6484    -971715.79349   -746556.94147                  21694706.5154
        49.0004         36.2504
  23665677.3414   -1168595.48048   -905158.20746                  23665678.2914
        35.2504         17.7504
  21444518.3814   -1682243.30149  -1289481.00447                  21444516.4534
        46.7504         38.2504
  20170037.1044   -1079605.14549   -835436.96548                  20170034.5604
        48.2504         42.0004
  21646177.0424    -386244.95749   -300408.86347                  21646173.9774
        48.2504         36.5004
  23525395.2574   -1684514.61749  -1293914.43747                  23525392.0364
        41.0004         30.5004
  21834012.9624    -320698.80149   -249404.52047                  21834011.1344
        50.0004         36.5004
  20692203.8554    -817689.89849   -629066.84048                  20692200.2164
        48.0004         42.0004
 04  6 29 17 31 45.0000000  0  8G 3G 9G14G15G18G19G21G22
  21685388.8894   -1020690.67249   -784719.19147                  21685387.4144
        49.7504         36.7504
  23654094.2224   -1229470.18049   -952593.00846                  23654094.0864
        37.7504         18.2504
  21428132.9394   -1768349.62149  -1356576.82847                  21428130.9914
        46.5004         38.2504
  20159291.3444   -1136073.68749   -879438.44148                  20159288.9154
        48.0004         42.0004
  21642409.2224    -406045.79349   -315838.10547                  21642406.3144
        48.0004         36.5004
  23508942.7024   -1770975.28549  -1361286.37947                  23508939.5194
        41.0004         31.2504
  21830970.6544    -336689.03949   -261864.45747                  21830968.1504
        49.5004         36.7504
  20684245.0044    -859513.05549   -661656.32848                  20684241.0834
        47.0004         41.2504
 04  6 29 17 32  0.0000000  0  8G 3G 9G14G15G18G19G21G22
  21676092.3954   -1069544.11749   -822786.82047                  21676090.4974
        49.2504         37.5004
  23642530.9244   -1290234.08649   -999941.50846                  23642531.0854
        38.0004         18.5004
  21411763.6934   -1854370.04349  -1423605.71947                  21411761.6424
        46.5004         37.5004
  20148559.1674   -1192471.44149   -923384.74648                  20148556.9914
        49.5004         42.0004
  21638644.4934    -425830.12949   -331254.48047                  21638641.2724
        49.5004         36.0004
  23492503.7424   -1857361.19949  -1428600.08247                  23492500.2654
        39.7504         31.5004
  21827938.7304    -352618.80149   -274277.27747                  21827936.5774
        50.0004         36.5004
  20676294.6514    -901294.46949   -694213.27748                  20676290.2184
        48.0004         42.0004
 04  6 29 17 32 15.0000000  0  8G 3G 9G14G15G18G19G21G22
  21666818.9984   -1118275.86349   -860759.62947                  21666817.2814
        51.0004         37.7504
  23630988.7694   -1350886.70749  -1047203.26246                  23630989.2494
        37.2504         18.2504
  21395410.9354   -1940303.95349  -1490567.20747                  21395409.0054
        46.5004         38.0004
  20137840.7734   -1248797.93049   -967275.51248                  20137838.4524
        49.0004         41.7504
  21634882.4244    -445597.69149   -346657.80547                  21634879.2164
        49.0004         36.7504
  23476079.6574   -1943671.84449  -1495855.11747                  23476076.4304
        39.2504         31.5004
  21824919.5144    -368487.99249   -286642.89847                  21824916.8704
        50.2504         37.0004
  20668351.5634    -943033.94949   -726737.55148                  20668348.1844
        49.5004         42.5004
 04  6 29 17 32 30.0000000  0  8G 3G 9G14G15G18G19G21G22
  21657568.8274   -1166886.57449   -898638.10947                  21657567.2114
        50.5004         38.0004
  23619467.2814   -1411428.40648  -1094378.64146                  23619468.7684
        34.2504         18.2504
  21379074.7834   -2026151.85549  -1557461.66447                  21379072.4064
        46.7504         38.2504
  20127135.8604   -1305053.57849  -1011111.10248                  20127133.3064
        49.7504         41.5004
  21631124.0964    -465349.25849   -362048.65247                  21631121.1294
        50.2504         36.7504
  23459669.1874   -2029907.44149  -1563051.64147                  23459665.9214
        39.2504         30.7504
  21821910.8414    -384297.22749   -298961.78947                  21821908.6974
        50.0004         37.2504
  20660416.9744    -984732.18749   -759229.69548                  20660413.3104
        49.0004         42.2504
 04  6 29 17 32 45.0000000  0  8G 3G 9G14G15G18G19G21G22
  21648341.6674   -1215375.49649   -936421.69547                  21648340.2754
        50.7504         37.5004
  23607968.0384   -1471858.07048  -1141466.72746                  23607968.7694
        35.7504         17.0004
  21362755.0954   -2111912.74249  -1624288.33247                  21362752.5354
        45.0004         38.5004
  20116444.1654   -1361237.41449  -1054890.71548                  20116441.8784
        47.7504         41.5004
  21627368.9774    -485084.10249   -377426.46947                  21627366.2294
        50.5004         37.0004
  23443273.6234   -2116066.94549  -1630188.91847                  23443269.9444
        39.5004         30.0004
  21818914.0874    -400045.71949   -311233.37147                  21818911.7504
        50.2504         36.5004
  20652490.0374   -1026388.53549   -791689.19148                  20652486.2484
        48.5004         41.2504
 04  6 29 17 33  0.0000000  0  8G 3G 9G14G15G18G19G21G22
  21639137.5014   -1263742.35549   -974110.17247                  21639136.1514
        49.7504         37.2504
  23596491.4494   -1532175.10949  -1188467.02346                  23596491.4194
        36.0004         18.5004
  21346451.8444   -2197585.94149  -1691046.66847                  21346449.5494
        45.2504         38.0004
  20105766.4464   -1417348.87149  -1098613.93748                  20105764.4624
        48.7504         42.2504
  21623616.3664    -504801.96549   -392791.05147                  21623613.9294
        49.7504         37.5004
  23426892.6194   -2202149.78549  -1697266.42647                  23426888.6904
        39.0004         30.5004
  21815928.7084    -415733.15249   -323457.35547                  21815926.8374
        49.7504         36.7504
  20644571.1134   -1068002.82849   -824115.91448                  20644567.4644
        48.7504         42.0004
 04  6 29 17 33 15.0000000  0  8G 3G 9G14G15G18G19G21G22
  21629957.1004   -1311986.96949  -1011703.38347                  21629955.7094
        50.2504         37.2504
  23585033.2704   -1592379.34449  -1235379.43746                  23585035.1804
        36.2504         19.5004
  21330165.7484   -2283171.11749  -1757736.41047                  21330162.9034
        46.0004         37.7504
  20095102.8474   -1473387.67649  -1142280.54748                  20095100.8244
        49.7504         41.7504
  21619867.7554    -524503.02049   -408142.54347                  21619864.5064
        50.2504         36.7504
  23410526.8604   -2288155.41449  -1764283.77747                  23410522.1804
        40.5004         31.0004
  21812955.2294    -431359.31249   -335633.60547                  21812953.2624
        49.7504         36.5004
  20636660.2014   -1109575.11349   -856509.91448                  20636656.0314
        49.0004         42.0004
 04  6 29 17 33 30.0000000  0  8G 3G 9G14G15G18G19G21G22
  21620800.0734   -1360107.80949  -1049200.15647                  21620798.6524
        50.5004         37.0004
  23573599.0374   -1652468.78149  -1282202.39846                  23573600.7564
        36.0004         18.2504
  21313896.5654   -2368666.37549  -1824356.09047                  21313893.9594
        46.7504         38.0004
  20084452.9994   -1529351.99249  -1185889.10948                  20084450.8794
        48.7504         41.7504
  21616122.0034    -544185.77349   -423479.75847                  21616119.1664
        50.7504         37.0004
  23394175.7064   -2374082.02749  -1831239.59447                  23394170.6374
        41.0004         30.7504
  21809994.0414    -446922.67249   -347760.93047                  21809991.4054
        49.5004         36.5004
  20628757.2074   -1151103.84049   -888869.96948                  20628753.6164
        48.5004         41.7504
 04  6 29 17 33 45.0000000  0  8G 3G 9G14G15G18G19G21G22
  21611666.3254   -1408105.53149  -1086600.99647                  21611664.8544
        50.0004         37.0004
  23562185.1994   -1712443.80548  -1328936.20746                  23562187.8754
        33.0004         17.5004
  21297644.2624   -2454072.16449  -1890906.05547                  21297641.8824
        48.7504         38.2504
  20073817.3934   -1585242.25849  -1229439.96548                  20073815.6574
        48.2504         41.7504
  21612380.2914    -563850.93049   -438803.27347                  21612377.2544
        50.7504         37.2504
  23377839.3124   -2459929.93749  -1898134.04347                  23377834.5374
        40.2504         30.7504
  21807044.2054    -462424.05149   -359839.93447                  21807041.7864
        49.7504         36.5004
  20620862.8944   -1192589.71149   -921196.63748                  20620859.0814
        48.2504         42.2504
 04  6 29 17 34  0.0000000  0  8G 3G 9G14G15G18G19G21G22
  21602555.9734   -1455980.82849  -1123906.43747                  21602554.4484
        49.5004         36.7504
  23550793.6494   -1772305.03548  -1375581.31646                  23550796.7644
        33.0004         14.0004
  21281408.7734   -2539388.87149  -1957386.59047                  21281406.3584
        48.7504         37.7504
  20063195.4644   -1641059.08649  -1272933.59848                  20063194.2914
        48.7504         41.7504
  21608640.7194    -583499.34449   -454113.74247                  21608638.2554
        50.2504         36.7504
  23361517.8734   -2545699.55949  -1964967.49647                  23361512.5194
        42.7504         30.5004
  21804106.1704    -477864.12949   -371871.18747                  21804103.4144
        49.0004         36.5004
  20612976.4874   -1234033.61749   -953490.59848                  20612972.2884
        48.0004         41.5004
 04  6 29 17 34 15.0000000  0  8G 3G 9G14G15G18G19G21G22
  21593469.5604   -1503731.67649  -1161114.90247                  21593468.1294
        50.2504         37.2504
  23539425.6344   -1832050.06248  -1422135.89546                  23539427.9294
        33.7504         14.0004
  21265191.2934   -2624614.14149  -2023795.89847                  21265188.5554
        48.2504         38.2504
  20052588.9584   -1696800.08649  -1316368.16048                  20052587.0404
        48.5004         42.0004
  21604905.5644    -603128.98049   -469409.57447                  21604902.5564
        50.0004         37.0004
  23345211.7554   -2631388.35949  -2031737.99647                  23345206.3724
        42.0004         29.7504
  21801179.6564    -493240.79749   -383853.02747                  21801177.2004
        49.7504         36.2504
  20605098.3734   -1275433.55949   -985750.29748                  20605094.4054
        48.0004         41.7504
 04  6 29 17 34 30.0000000  0  8G 3G 9G14G15G18G19G21G22
  21584405.8934   -1551360.47349  -1198228.26247                  21584404.6364
        49.5004         37.2504
  23528077.1204   -1891681.21948  -1468601.75046                  23528080.4804
        33.5004         14.7504
  21248990.1394   -2709750.30149  -2090135.74247                  21248988.1654
        49.0004         37.7504
  20041995.8734   -1752467.67649  -1359745.50048                  20041993.7724
        49.5004         42.5004
  21601173.2894    -622742.51249   -484692.85247                  21601170.0864
        50.2504         37.2504
  23328920.4754   -2716998.74249  -2098447.37547                  23328915.3594
        42.0004         30.0004
  21798265.4084    -508556.63349   -395787.45347                  21798262.5594
        50.0004         36.7504
  20597228.2034   -1316792.24249  -1017977.84448                  20597224.0804
        49.0004         41.5004
 04  6 29 17 34 45.0000000  0  8G 3G 9G14G15G18G19G21G22
  21575366.0614   -1598866.36349  -1235245.85547                  21575363.8644
        50.5004         37.2504
  23516752.4914   -1951197.18448  -1514977.93746                  23516755.4814
        34.5004         14.0004
  21232807.0614   -2794795.96149  -2156405.09847                  21232804.3534
        47.2504         37.5004
  20031416.8314   -1808060.71949  -1403064.76248                  20031415.0094
        49.0004         42.7504
  21597444.2324    -642339.08649   -499962.92647                  21597441.0964
        49.5004         37.5004
  23312644.0524   -2802529.28949  -2165094.54747                  23312639.9244
        42.0004         30.5004
  21795362.8164    -523810.62549   -407673.69947                  21795360.2774
        49.7504         36.2504
  20589365.8714   -1358108.80149  -1050172.57848                  20589362.4014
        50.7504         42.2504
 04  6 29 17 35  0.0000000  0  8G 3G 9G14G15G18G19G21G22
  21566349.2674   -1646246.59449  -1272165.52747                  21566347.8934
        49.0004         37.0004
  23505449.6104   -2010595.06248  -1561261.93446                  23505450.6854
        35.5004         14.0004
  21216640.7514   -2879748.30949  -2222601.71947                  21216638.4984
        48.0004         38.0004
  20020852.3624   -1863576.30149  -1446323.65648                  20020850.6334
        50.2504         42.5004
  21593719.2174    -661915.96149   -515217.64847                  21593715.5104
        50.7504         37.7504
  23296384.0104   -2887976.93449  -2231677.11347                  23296379.2534
        41.5004         30.0004
  21792472.3804    -539000.12149   -419509.68747                  21792469.6604
        50.0004         36.2504
  20581512.1624   -1399380.50049  -1082332.34448                  20581508.2264
        51.0004         42.2504
 04  6 29 17 35 15.0000000  0  8G 3G 9G14G15G18G19G21G22
  21557356.3994   -1693504.24249  -1308989.67647                  21557355.0004
        50.0004         36.7504
  23494170.4914   -2069877.57049  -1607456.00846                  23494168.7894
        38.5004         16.2504
  21200492.1964   -2964610.10949  -2288727.79747                  21200489.8314
        48.2504         38.2504
  20010302.6204   -1919017.12149  -1489524.29748                  20010300.4104
        48.7504         41.7504
  21589996.7324    -681476.37549   -530459.52747                  21589993.5294
        51.0004         36.7504
  23280139.8524   -2973344.33649  -2298197.18047                  23280134.8214
        42.5004         30.2504
  21789593.5984    -554127.99249   -431297.66847                  21789590.5904
        49.5004         36.0004
  20573666.1234   -1440610.48849  -1114459.60548                  20573662.6874
        48.2504         42.0004
 04  6 29 17 35 30.0000000  0  8G 3G 9G14G15G18G19G21G22
  21548387.1014   -1740640.21949  -1345719.03147                  21548385.3174
        49.2504         36.5004
  23482910.5464   -2129045.30949  -1653560.79346                  23482909.7014
        37.5004         16.2504
  21184360.7224   -3049382.09849  -2354783.89147                  21184358.5344
        48.7504         38.7504
  19999766.5224   -1974383.97349  -1532667.30948                  19999764.5254
        48.7504         42.5004
  21586277.9824    -701021.25449   -545689.31647                  21586274.5754
        51.0004         36.7504
  23263909.6894   -3058632.21549  -2364655.27747                  23263904.9474
        42.2504         30.0004
  21786726.4834    -569195.20349   -443038.37147                  21786723.7764
        50.0004         36.2504
  20565828.0134   -1481799.82449  -1146555.20748                  20565824.5354
        48.7504         42.2504
 04  6 29 17 35 45.0000000  0  8G 3G 9G14G15G18G19G21G22
  21539440.9904   -1787652.89549  -1382352.28947                  21539438.8524
        49.7504         36.5004
  23471673.7514   -2188096.44949  -1699574.60946                  23471671.9594
        39.2504         14.7504
  21168246.6084   -3134062.17649  -2420768.36347                  21168244.5374
        49.0004         39.0004
  19989244.9894   -2029674.94549  -1575751.18748                  19989243.4274
        50.2504         42.5004
  21582561.1824    -720549.06649   -560905.80547                  21582558.3354
        50.7504         37.0004
  23247696.4584   -3143838.52749  -2431049.79747                  23247691.3694
        43.5004         30.0004
  21783871.1034    -584200.30149   -454730.67647                  21783868.1874
        50.5004         36.0004
  20557997.8114   -1522946.88349  -1178617.85548                  20557994.7294
        50.0004         42.0004
 04  6 29 17 36  0.0000000  0  8G 3G 9G14G15G18G19G21G22
  21530518.2134   -1834542.89849  -1418889.96147                  21530516.1064
        50.0004         37.0004
  23460458.2574   -2247031.37549  -1745497.89146                  23460456.2604
        39.2504         16.2504
  21152149.9624   -3218650.76649  -2486681.54347                  21152148.1824
        47.2504         39.0004
  19978737.9434   -2084890.48049  -1618776.28948                  19978735.7804
        49.5004         42.2504
  21578848.4584    -740060.66849   -576109.65247                  21578845.4634
        51.2504         36.7504
  23231496.9744   -3228963.59049  -2497381.00047                  23231493.0304
        42.2504         30.0004
  21781027.1924    -599143.82849   -466375.00047                  21781024.8714
        50.2504         36.2504
  20550175.9594   -1564052.50849  -1210648.21548                  20550171.9664
        49.7504         42.0004
 04  6 29 17 36 15.0000000  0  8G 3G 9G14G15G18G19G21G22
  21521618.5654   -1881310.44949  -1455332.22747                  21521616.9324
        49.7504         36.7504
  23449265.8154   -2305850.05549  -1791330.62146                  23449261.8874
        41.0004         17.5004
  21136070.4164   -3303147.84449  -2552523.41047                  21136068.5394
        44.7504         39.0004
  19968245.0184   -2140030.61349  -1661742.63748                  19968243.0614
        47.0004         42.2504
  21575138.5754    -759556.45749   -591301.18747                  21575135.4934
        50.2504         36.2504
  23215313.3824   -3314007.40249  -2563648.88347                  23215309.9014
        39.5004         30.5004
  21778195.6684    -614025.73049   -477971.30547                  21778193.2284
        50.2504         36.7504
  20542361.4374   -1605117.11349  -1242646.61748                  20542357.4284
        49.5004         41.5004
 04  6 29 17 36 30.0000000  0  8G 3G 9G14G15G18G19G21G22
  21512742.2894   -1927955.41049  -1491678.96547                  21512740.5984
        50.2504         37.2504
  23438094.6774   -2364552.03549  -1837072.39546                  23438091.7864
        39.5004         17.5004
  21120008.6874   -3387552.89849  -2618293.58248                  21120007.0544
        47.7504         39.5004
  19957766.6364   -2195095.01249  -1704649.95348                  19957764.8044
        50.0004         42.2504
  21571431.7624    -779036.18449   -606480.21547                  21571428.5704
        50.5004         36.5004
  23199145.6344   -3398969.41849  -2629853.03947                  23199141.9094
        39.0004         29.2504
  21775375.5054    -628846.23049   -489519.76647                  21775372.7684
        50.2504         36.5004
  20534555.2914   -1646140.48449  -1274612.88348                  20534551.2874
        49.5004         41.2504
 04  6 29 17 36 45.0000000  0  8G 3G 9G14G15G18G19G21G22
  21503889.2584   -1974477.48449  -1527929.93747                  21503887.7084
        50.5004         37.0004
  23426947.8234   -2423136.64849  -1882722.73446                  23426942.3694
        41.0004         17.0004
  21103964.6684   -3471865.32849  -2683991.57448                  21103962.6934
        48.2504         39.5004
  19947302.9284   -2250082.96149  -1747497.71148                  19947301.1704
        49.7504         42.0004
  21567727.7374    -798499.44949   -621646.41047                  21567725.3304
        50.5004         36.7504
  23182993.4754   -3483848.89149  -2695992.88747                  23182989.1054
        40.7504         28.5004
  21772566.8584    -643605.16449   -501020.25047                  21772564.2114
        50.2504         36.2504
  20526756.7164   -1687122.31649  -1306546.78948                  20526752.7364
        50.2504         41.2504
 04  6 29 17 37  0.0000000  0  8G 3G 9G14G15G18G19G21G22
  21495059.9964   -2020876.07449  -1564084.69547                  21495058.5534
        50.7504         37.2504
  23415820.5634   -2481603.06649  -1928280.97346                  23415816.4864
        38.7504         17.0004
  21087938.5634   -3556084.28149  -2749616.73447                  21087936.7104
        49.0004         39.0004
  19936853.6994   -2304993.71949  -1790285.31248                  19936851.7564
        50.5004         42.5004
  21564027.6714    -817945.77749   -636799.40247                  21564024.8644
        50.2504         36.7504
  23166857.1124   -3568644.84049  -2762067.65647                  23166853.5574
        41.7504         30.2504
  21769770.1254    -658301.73449   -512472.14547                  21769767.4204
        50.0004         35.7504
  20518965.9974   -1728062.18049  -1338447.98048                  20518962.2874
        51.2504         41.2504
 04  6 29 17 37 15.0000000  0  8G 3G 9G14G15G18G19G21G22
  21486254.4224   -2067150.09449  -1600142.38747                  21486253.0834
        50.7504         37.2504
  23404717.9624   -2539949.94149  -1973746.06246                  23404713.7574
        39.7504         17.7504
  21071929.8594   -3640208.55549  -2815168.10248                  21071927.9674
        47.2504         39.5004
  19926419.5274   -2359825.93749  -1833011.71548                  19926417.1704
        49.0004         42.5004
  21560330.4974    -837374.30949   -651938.53947                  21560327.3814
        50.7504         37.0004
  23150738.0324   -3653355.94949  -2828076.30147                  23150733.6294
        42.0004         31.0004
  21766985.7874    -672934.71549   -523874.48047                  21766982.5194
        50.2504         35.5004
  20511183.5324   -1768959.12149  -1370315.72348                  20511179.8164
        50.5004         42.0004
 04  6 29 17 37 30.0000000  0  8G 3G 9G14G15G18G19G21G22
  21777265.3184   -2113297.00849  -1636101.03547                  21777264.1234
        50.5004         36.7504
  23693430.6454   -2598173.74649  -2019115.30146                  23693426.4854
        39.0004         17.7504
  21355733.2604   -3724232.65249  -2880641.42248                  21355731.3044
        49.2504         39.5004
  20215793.0424   -2414576.35949  -1875674.39148                  20215790.8934
        50.0004         42.5004
  21856429.2224    -856784.25049   -667063.18047                  21856426.3734
        51.0004         37.0004
  23434426.9724   -3737976.78149  -2894014.60247                  23434423.7584
        42.5004         30.7504
  22064005.7024    -687503.73049   -535226.98447                  22064002.6114
        49.5004         35.5004
  20803202.2914   -1809810.93749  -1402148.30948                  20803198.4444
        51.0004         41.2504
 04  6 29 17 37 45.0000000  0  8G 3G 9G14G15G18G19G21G22
  21768507.0824   -2159322.60949  -1671965.14847                  21768505.8244
        50.5004         37.2504
  23682372.9034   -2656281.67649  -2064394.18046                  23682368.8144
        39.0004         17.0004
  21339760.7844   -3808167.34049  -2946045.07447                  21339758.8474
        48.0004         39.0004
  20205388.6194   -2469251.82049  -1918278.64848                  20205386.8414
        49.5004         42.7504
  21852738.6954    -876178.10549   -682175.28547                  21852736.0774
        50.0004         36.7504
  23418339.6444   -3822518.05949  -2959890.92647                  23418336.0414
        43.7504         31.0004
  22061244.8974    -702010.52049   -546530.98847                  22061242.0454
        49.5004         35.7504
  20795435.9984   -1850622.95749  -1433949.88348                  20795432.2044
        51.5004         41.5004
 04  6 29 17 38  0.0000000  0  8G 3G 9G14G15G18G19G21G22
  21759772.7864   -2205221.87949  -1707730.82047                  21759771.0224
        50.7504         37.0004
  23671338.7014   -2714267.50049  -2109577.94146                  23671333.9494
        39.0004         17.7504
  21323806.9444   -3892004.55149  -3011372.76247                  21323804.7844
        48.0004         39.2504
  20194999.7394   -2523846.33649  -1960819.82848                  20194997.6534
        49.0004         42.5004
  21849051.7634    -895552.55549   -697272.28147                  21849048.8634
        50.7504         36.0004
  23402268.1994   -3906971.52049  -3025698.82447                  23402264.4844
        42.0004         30.7504
  22058497.4214    -716451.85549   -557784.00447                  22058493.5374
        50.2504         35.0004
  20787678.1774   -1891390.36349  -1465716.69948                  20787674.3224
        50.7504         41.7504
 04  6 29 17 38 15.0000000  0  8G 3G 9G14G15G18G19G21G22
  21751062.6424   -2250995.23849  -1743398.39147                  21751060.9984
        50.2504         37.0004
  23660327.5944   -2772131.40249  -2154666.66846                  23660323.4184
        41.0004         17.5004
  21307872.0074   -3975744.45749  -3076624.62948                  21307869.8264
        48.0004         39.7504
  20184626.1434   -2578360.04749  -2003298.05548                  20184624.0104
        48.5004         42.5004
  21845368.8794    -914908.00049   -712354.46147                  21845365.5634
        51.0004         35.2504
  23386213.8464   -3991337.46949  -3091438.51647                  23386210.2894
        41.7504         29.7504
  22055761.2984    -730828.19949   -568986.37147                  22055758.0694
        49.5004         35.5004
  20779928.9624   -1932113.76249  -1497449.23048                  20779924.7074
        51.5004         42.0004
 04  6 29 17 38 30.0000000  0  8G 3G 9G14G15G18G19G21G22
  21742375.4524   -2296643.51649  -1778968.48447                  21742374.3524
        50.0004         37.5004
  23649340.2184   -2829874.06049  -2199660.94546                  23649335.2714
        40.0004         17.5004
  21291955.0504   -4059387.72749  -3141801.19948                  21291953.2054
        49.2504         40.0004
  20174267.7154   -2632793.75049  -2045713.92648                  20174265.5244
        49.5004         41.5004
  21841689.0104    -934245.51649   -727422.66047                  21841685.7874
        50.5004         36.0004
  23370176.8804   -4075616.36349  -3157110.36347                  23370173.0094
        43.5004         30.0004
  22053037.8754    -745140.18049   -580138.57847                  22053034.5524
        49.7504         35.7504
  20772187.7704   -1972794.12149  -1529148.21948                  20772183.6404
        51.2504         42.2504
 04  6 29 17 38 45.0000000  0  8G 3G 9G14G15G18G19G21G22
  21733713.4034   -2342164.92649  -1814439.72347                  21733711.7644
        50.7504         37.7504
  23638373.9954   -2887493.47349  -2244559.20346                  23638370.1774
        39.7504         17.0004
  21276057.2734   -4142932.28949  -3206900.84448                  21276055.0704
        47.2504         39.7504
  20163924.7694   -2687145.43449  -2088065.88748                  20163922.5794
        49.5004         41.5004
  21838012.7424    -953563.44149   -742475.59447                  21838009.8684
        50.0004         35.7504
  23354155.5824   -4159806.15649  -3222712.80547                  23354152.2284
        41.7504         31.5004
  22050326.4544    -759386.55549   -591239.66847                  22050323.9404
        49.2504         36.0004
  20764454.9164   -2013429.66049  -1560812.27748                  20764451.0534
        51.7504         41.5004
 04  6 29 17 39  0.0000000  0  8G 3G 9G14G15G18G19G21G22
  21725074.6214   -2387559.81249  -1849812.38347                  21725073.2444
        50.2504         37.2504
  23627434.4974   -2944989.60949  -2289361.35246                  23627429.2084
        42.0004         16.2504
  21260177.9404   -4226378.24249  -3271923.66448                  21260175.9744
        48.0004         39.7504
  20153597.3424   -2741415.19549  -2130354.01248                  20153595.2874
        50.0004         41.2504
  21834340.5184    -972862.14549   -757513.55947                  21834337.6374
        50.2504         35.5004
  23338151.3694   -4243906.69949  -3288245.69147                  23338148.0794
        39.5004         30.2504
  22047627.9124    -773567.74649   -602289.96947                  22047625.6024
        49.0004         36.2504
  20756730.8044   -2054020.80949  -1592441.74248                  20756726.9264
        51.2504         41.7504
 04  6 29 17 39 15.0000000  0  8G 3G 9G14G15G18G19G21G22
  21716460.7524   -2432827.34849  -1885085.80147                  21716459.2004
        50.5004         37.2504
  23616516.6374   -3002361.45349  -2334066.70346                  23616512.2954
        41.7504         19.0004
  21244317.8714   -4309724.43449  -3336868.73848                  21244315.9814
        49.0004         39.7504
  20143285.8334   -2795601.97349  -2172577.47348                  20143284.1134
        50.0004         41.7504
  21830671.7384    -992140.74249   -772535.86347                  21830668.9874
        49.5004         35.5004
  23322164.9594   -4327916.87149  -3353708.15247                  23322161.0834
        42.5004         30.5004
  22044942.1234    -787682.52349   -613288.51647                  22044939.9684
        49.0004         36.0004
  20749015.1604   -2094566.87549  -1624036.08648                  20749011.0344
        51.2504         41.5004
 04  6 29 17 39 30.0000000  0  8G 3G 9G14G15G18G19G21G22
  21707870.9694   -2477966.31649  -1920259.03147                  21707870.0174
        49.7504         36.7504
  23605623.0174   -3059607.48049  -2378673.96546                  23605620.0324
        42.5004         20.5004
  21228476.5474   -4392969.33249  -3401734.88348                  21228474.6464
        48.5004         39.7504
  20132990.6734   -2849704.18749  -2214735.03948                  20132989.0914
        48.5004         41.7504
  21827007.4674   -1011398.07449   -787541.58247                  21827004.4664
        50.2504         35.2504
  23306195.7484   -4411835.08249  -3419098.96147                  23306192.0404
        42.0004         31.7504
  22042269.3114    -801729.59849   -624234.30147                  22042266.6804
        49.0004         35.7504
  20741308.2084   -2135066.56649  -1655594.28948                  20741304.3384
        51.7504         41.2504
 04  6 29 17 39 45.0000000  0  8G 3G 9G14G15G18G19G21G22
  21699306.0844   -2522976.98049  -1955332.28947                  21699304.8074
        49.5004         36.7504
  23594753.3664   -3116727.68449  -2423183.22746                  23594749.7534
        42.7504         19.0004
  21212655.1064   -4476112.98849  -3466522.13748                  21212653.2844
        47.5004         40.2504
  20122711.7604   -2903721.94949  -2256826.80548                  20122709.4984
        48.7504         41.7504
  21823346.6834   -1030634.47749   -802531.00047                  21823343.2764
        49.7504         35.0004
  23290244.3004   -4495661.34849  -3484418.11747                  23290240.4834
        43.0004         30.7504
  22039608.3204    -815709.38749   -635127.66847                  22039606.1064
        48.5004         36.0004
  20733610.1064   -2175520.31649  -1687116.69548                  20733605.8964
        51.5004         41.5004
 04  6 29 17 40  0.0000000  0  8G 3G 9G14G15G18G19G21G22
  21690765.5114   -2567858.85249  -1990305.18447                  21690764.0684
        48.7504         37.0004
  23583906.7004   -3173721.23049  -2467593.78546                  23583905.0004
        40.0004         17.7504
  21196852.7564   -4559154.51249  -3531229.82048                  21196850.7604
        49.7504         40.0004
  20112448.3874   -2957654.46949  -2298852.14548                  20112446.5574
        50.2504         41.7504
  21819690.2104   -1049849.45349   -817503.71947                  21819686.8364
        50.0004         34.7504
  23274310.2084   -4579394.64149  -3549664.83647                  23274306.1874
        43.2504         32.0004
  22036961.2074    -829621.19149   -645968.04747                  22036958.6104
        48.2504         35.0004
  20725920.8204   -2215927.57849  -1718602.87948                  20725916.4264
        51.7504         41.0004
 04  6 29 17 40 15.0000000  0  8G 3G 9G14G15G18G19G21G22
  21682248.2484   -2612614.09049  -2025179.40247                  21682247.5564
        48.5004         37.2504
  23573085.4884   -3230589.88349  -2511907.01246                  23573083.8874
        38.5004         19.0004
  21181069.6764   -4642095.67649  -3595859.29748                  21181067.6764
        47.2504         40.2504
  20102201.1814   -3011503.64149  -2340812.54748                  20102199.6124
        48.7504         42.2504
  21816037.3344   -1069045.30949   -832461.52347                  21816034.6734
        50.0004         36.0004
  23258394.2794   -4663036.87549  -3614840.57447                  23258390.1604
        43.5004         32.2504
  22034326.5804    -843467.16049   -656757.13747                  22034323.9284
        47.7504         35.0004
  20718240.0234   -2256290.48449  -1750054.50048                  20718235.8394
        52.0004         41.0004
 04  6 29 17 40 30.0000000  0  8G 3G 9G14G15G18G19G21G22
  21673756.1454   -2657242.25049  -2059954.60247                  21673755.0894
        49.5004         37.5004
  23562287.7464   -3287333.08249  -2556122.52346                  23562286.2134
        39.2504         19.2504
  21165305.8374   -4724935.92249  -3660410.13748                  21165303.7784
        49.7504         40.0004
  20091970.4664   -3065268.85549  -2382707.52748                  20091968.1524
        50.5004         42.2504
  21812388.0304   -1088221.65249   -847404.13747                  21812385.0014
        49.5004         34.7504
  23242495.0454   -4746587.15649  -3679944.69947                  23242491.5194
        42.5004         32.7504
  22031704.4524    -857247.24249   -667494.87547                  22031701.6044
        48.5004         34.5004
  20710567.5984   -2296608.90649  -1781471.45348                  20710563.4944
        51.7504         41.2504
 04  6 29 17 40 45.0000000  0  8G 3G 9G14G15G18G19G21G22
  21665288.1744   -2701742.00849  -2094629.74647                  21665287.5014
        48.7504         37.5004
  23551514.4034   -3343949.17649  -2600238.99246                  23551512.3704
        39.7504         18.2504
  21149561.3344   -4807673.63349  -3724881.07048                  21149559.0074
        48.2504         39.7504
  20081755.4024   -3118948.45349  -2424535.78548                  20081753.4014
        49.0004         41.5004
  21808742.9174   -1107377.09849   -862330.47347                  21808739.9274
        48.5004         34.5004
  23226613.1994   -4830043.91049  -3744975.92247                  23226610.1654
        43.2504         32.2504
  22029094.6524    -870959.86349   -678180.06647                  22029091.9654
        47.5004         34.5004
  20702903.8884   -2336881.44949  -1812852.66048                  20702899.8844
        51.0004         41.7504
 04  6 29 17 41  0.0000000  0  8G 3G 9G14G15G18G19G21G22
  21656844.8034   -2746111.32849  -2129203.24647                  21656843.8744
        48.2504         37.5004
  23540764.8164   -3400436.09449  -2644254.72746                  23540762.6524
        38.2504         20.0004
  21133836.5754   -4890306.47749  -3789270.28948                  21133834.5134
        48.7504         40.0004
  20071557.1984   -3172540.27349  -2466295.65248                  20071555.2614
        49.5004         42.0004
  21805102.1644   -1126509.68449   -877238.98847                  21805099.2784
        50.0004         34.5004
  23210750.4004   -4913404.76649  -3809932.42647                  23210747.1404
        43.2504         32.2504
  22026498.7084    -884602.93049   -688811.04347                  22026496.1174
        47.7504         34.5004
  20695249.6784   -2377106.14149  -1844196.57448                  20695245.2184
        52.0004         41.7504
 04  6 29 17 41 15.0000000  0  8G 3G 9G14G15G18G19G21G22
  21648426.2624   -2790352.16849  -2163676.64547                  21648424.7314
        48.5004         38.2504
  23530039.7174   -3456795.21149  -2688170.93746                  23530038.1724
        38.2504         18.5004
  21118131.9474   -4972836.14849  -3853579.12148                  21118129.2894
        50.0004         39.7504
  20061375.4654   -3226045.99249  -2507988.43048                  20061373.6854
        50.5004         42.2504
  21801465.5534   -1145621.29749   -892131.17647                  21801462.4134
        49.5004         35.0004
  23194905.2804   -4996671.20749  -3874815.35947                  23194901.8484
        45.2504         32.2504
  22023915.2604    -898178.31649   -699389.26647                  22023912.9344
        47.0004         34.5004
  20687603.7394   -2417284.91449  -1875504.71948                  20687599.9064
        51.5004         42.0004
 04  6 29 17 41 30.0000000  0  8G 3G 9G14G15G18G19G21G22
  21640031.9014   -2834463.48449  -2198049.10547                  21640031.1374
        47.5004         37.5004
  23519340.0674   -3513025.46949  -2731986.74646                  23519337.6794
        36.0004         18.5004
  21102446.6364   -5055261.32449  -3917806.51648                  21102444.2264
        47.7504         40.0004
  20051210.2904   -3279464.30949  -2549613.09448                  20051208.3744
        49.0004         42.5004
  21797832.3934   -1164711.14549   -907006.39847                  21797829.9294
        49.7504         35.0004
  23179078.2054   -5079841.94149  -3939623.70747                  23179075.2394
        42.5004         32.7504
  22021345.1434    -911685.00849   -709913.98447                  22021342.6594
        47.0004         35.0004
  20679967.0464   -2457416.95749  -1906776.43748                  20679962.9874
        52.0004         42.0004
 04  6 29 17 41 45.0000000  0  8G 3G 9G14G15G18G19G21G22
  21631662.3584   -2878445.66449  -2232320.95747                  21631661.6694
        48.7504         38.2504
  23508663.6984   -3569127.15249  -2775702.31246                  23508662.4474
        37.2504         19.0004
  21086781.8034   -5137582.19949  -3981952.65248                  21086779.2274
        50.2504         40.0004
  20041061.2964   -3332795.45349  -2591169.82848                  20041059.7124
        50.0004         42.2504
  21794204.1504   -1183779.76649   -921865.07447                  21794201.3444
        49.5004         35.0004
  23163269.3844   -5162917.07849  -4004357.56247                  23163266.9454
        43.0004         32.7504
  22018787.9904    -925123.34849   -720385.42247                  22018785.4194
        47.0004         34.7504
  20672339.0364   -2497502.65649  -1938012.05548                  20672334.8414
        51.0004         41.0004
 04  6 29 17 42  0.0000000  0  8G 3G 9G14G15G18G19G21G22
  21623317.5824   -2922298.90649  -2266492.32047                  21623316.4614
        49.2504         38.0004
  23498011.7074   -3625099.95349  -2819317.48446                  23498011.2064
        39.5004         20.0004
  21071136.4474   -5219798.57449  -4046017.35548                  21071134.0484
        50.5004         40.0004
  20030929.7644   -3386039.36349  -2632658.59448                  20030927.9244
        50.5004         42.0004
  21790579.4244   -1202827.25849   -936707.28147                  21790576.9044
        50.0004         35.7504
  23147478.4114   -5245896.38349  -4069016.73847                  23147475.8054
        41.5004         32.7504
  22016243.9604    -938493.39549   -730803.65247                  22016240.9524
        47.5004         34.5004
  20664719.4254   -2537542.24649  -1969211.74248                  20664715.6544
        52.0004         41.5004
 04  6 29 17 42 15.0000000  0  8G 3G 9G14G15G18G19G21G22
  21614997.3744   -2966020.55149  -2300561.14147                  21614996.4494
        49.0004         37.5004
  23487386.1154   -3680941.02749  -2862829.96946                  23487385.5504
        37.2504         20.0004
  21055511.7674   -5301907.41449  -4109998.26648                  21055509.4624
        49.5004         40.0004
  20020815.0544   -3439193.11349  -2674077.09848                  20020813.0844
        50.0004         42.5004
  21786958.9474   -1221850.96949   -951530.96947                  21786956.4924
        49.5004         35.5004
  23131707.5414   -5328776.78149  -4133598.85247                  23131704.0444
        41.7504         32.7504
  22013712.9844    -951792.80149   -741166.84047                  22013710.6264
        47.2504         35.2504
  20657109.6534   -2577533.10549  -2000373.45348                  20657105.2464
        51.5004         41.2504
 04  6 29 17 42 30.0000000  0  8G 3G 9G14G15G18G19G21G22
  21606702.6784   -3009612.72349  -2334529.07447                  21606701.1194
        49.0004         37.7504
  23476783.7684   -3736652.11749  -2906241.23046                  23476784.5324
        36.7504         20.5004
  21039906.8834   -5383910.67649  -4173896.90248                  21039904.2584
        50.2504         39.7504
  20010716.7474   -3492258.66849  -2715426.87948                  20010715.1164
        50.7504         42.5004
  21783343.4324   -1240853.13349   -966337.87547                  21783340.9274
        50.0004         35.0004
  23115954.3344   -5411560.05549  -4198105.30547                  23115950.7914
        43.7504         31.7504
  22011195.4924    -965023.17249   -751476.24247                  22011193.1584
        48.0004         35.2504
  20649508.2074   -2617477.31249  -2031498.80548                  20649503.7974
        52.0004         41.0004
 04  6 29 17 42 45.0000000  0  8G 3G 9G14G15G18G19G21G22
  21598431.0894   -3053077.22749  -2368397.53547                  21598429.9584
        49.5004         37.7504
  23466207.8904   -3792234.85949  -2949552.45346                  23466206.5594
        36.5004         20.0004
  21024321.7884   -5465809.84049  -4237714.43048                  21024319.3724
        50.7504         39.5004
  20000635.1584   -3545237.50849  -2756709.10548                  20000633.2964
        50.0004         42.5004
  21779731.0524   -1259835.60549   -981129.42247                  21779728.4184
        49.2504         34.7504
  23100219.3054   -5494247.76249  -4262537.27747                  23100216.3814
        43.0004         34.0004
  22008690.7464    -978186.70749   -761733.55547                  22008687.7944
        48.7504         35.0004
  20641915.8854   -2657376.85949  -2062589.36748                  20641911.2444
        52.0004         40.7504
 04  6 29 17 43  0.0000000  0  8G 3G 9G14G15G18G19G21G22
  21590184.6414   -3096413.66449  -2402166.20347                  21590183.8544
        49.7504         38.5004
  23455655.8314   -3847688.61749  -2992763.16446                  23455654.8744
        37.2504         20.5004
  21008757.0754   -5547604.12149  -4301450.22748                  21008754.7634
        50.2504         39.7504
  19990570.6494   -3598128.89149  -2797923.17648                  19990568.7684
        50.0004         42.0004
  21776122.7284   -1278797.87949   -995905.23047                  21776120.1104
        49.2504         35.2504
  23084502.6274   -5576838.91049  -4326894.00847                  23084500.2024
        43.0004         34.0004
  22006198.1104    -991283.04749   -771938.51647                  22006195.8124
        48.7504         35.0004
  20634331.8934   -2697231.32449  -2093644.80548                  20634327.4234
        52.0004         41.2504
 04  6 29 17 43 15.0000000  0  8G 3G 9G14G15G18G19G21G22
  21581962.4214   -3139621.31649  -2435834.51647                  21581961.0974
        50.0004         37.5004
  23445127.5364   -3903012.35949  -3035872.57846                  23445127.2294
        36.0004         22.5004
  20993212.2944   -5629292.61349  -4365103.58248                  20993209.8584
        49.5004         39.7504
  19980522.3684   -3650931.93449  -2839068.40648                  19980520.8334
        50.5004         42.2504
  21772518.6604   -1297739.27049  -1010664.77747                  21772515.5894
        49.0004         35.0004
  23068804.9614   -5659332.60549  -4391174.77347                  23068801.9984
        42.7504         33.5004
  22003719.3804   -1004311.29349   -782090.39847                  22003716.3814
        49.2504         35.5004
  20626756.5194   -2737040.03949  -2124664.58248                  20626752.1014
        51.7504         41.0004
 04  6 29 17 43 30.0000000  0  8G 3G 9G14G15G18G19G21G22
  21573765.0014   -3182700.04749  -2469402.36747                  21573763.7404
        49.2504         37.5004
  23434624.0914   -3958205.65649  -3078880.30146                  23434625.4744
        36.0004         21.7504
  20977687.6304   -5710874.87149  -4428674.17248                  20977685.2664
        49.5004         39.5004
  19970491.0394   -3703646.13749  -2880144.41448                  19970489.3114
        50.7504         42.0004
  21768917.9504   -1316659.64149  -1025407.93047                  21768915.1824
        50.0004         35.7504
  23053125.4154   -5741728.31249  -4455379.21547                  23053123.0904
        41.5004         34.0004
  22001253.4784   -1017271.27049   -792189.10547                  22001250.5224
        49.5004         35.2504
  20619189.8004   -2776802.89149  -2155648.62548                  20619185.5294
        51.5004         41.0004
 04  6 29 17 43 45.0000000  0  8G 3G 9G14G15G18G19G21G22
  21565592.1824   -3225650.94149  -2502870.60947                  21565590.5504
        50.7504         37.7504
  23424145.8144   -4013269.30148  -3121787.10946                  23424147.4774
        31.5004         20.0004
  20962182.8864   -5792351.78149  -4492162.66848                  20962180.7274
        48.7504         39.5004
  19960476.5184   -3756272.46949  -2921151.96148                  19960474.9674
        49.5004         42.0004
  21765321.0574   -1335560.27349  -1040135.71147                  21765318.4964
        49.7504         35.2504
  23037464.5104   -5824026.69949  -4519507.80547                  23037461.9704
        40.5004         33.2504
  21998799.3814   -1030164.16449   -802235.52347                  21998797.2074
        49.5004         35.0004
  20611632.0924   -2816520.98049  -2186597.79348                  20611627.2424
        52.0004         42.0004
 04  6 29 17 44  0.0000000  0  8G 3G 9G14G15G18G19G21G22
  21557442.8674   -3268473.05149  -2536238.50847                  21557441.3794
        49.7504         36.7504
  23413692.2094   -4068202.17248  -3164591.91446                  23413693.4194
        33.7504         19.5004
  20946698.9014   -5873721.96549  -4555568.00048                  20946696.5864
        50.0004         39.7504
  19950479.2354   -3808809.61749  -2962090.00048                  19950477.4554
        50.5004         42.0004
  21761728.5094   -1354440.12149  -1054847.30147                  21761725.8524
        49.0004         35.0004
  23021823.0864   -5906226.52049  -4583559.62147                  23021819.4594
        43.2504         33.5004
  21996359.2734   -1042988.48049   -812228.51247                  21996356.2254
        49.2504         35.0004
  20604082.2144   -2856193.35549  -2217511.33248                  20604077.4764
        52.7504         41.7504
 04  6 29 17 44 15.0000000  0  8G 3G 9G14G15G18G19G21G22
  21549318.4804   -3311167.53149  -2569506.93047                  21549316.9524
        50.0004         37.5004
  23403263.4004   -4123005.17648  -3207295.52746                  23403265.0484
        35.2504         20.0004
  20931234.5784   -5954986.36749  -4618890.91448                  20931232.6594
        50.0004         40.0004
  19940498.5504   -3861258.49249  -3002959.26248                  19940496.8594
        50.0004         42.0004
  21758139.2634   -1373300.32849  -1069543.57047                  21758136.2914
        49.2504         35.0004
  23006199.5914   -5988328.52349  -4647535.21947                  23006195.9434
        44.0004         33.0004
  21993930.9704   -1055745.77049   -822169.27747                  21993929.1884
        48.7504         35.0004
  20596541.5294   -2895821.35249  -2248390.29748                  20596537.2404
        52.2504         41.7504
 04  6 29 17 44 30.0000000  0  8G 3G 9G14G15G18G19G21G22
  21541218.3394   -3353733.91849  -2602675.57047                  21541217.2194
        49.7504         37.0004
  23392859.7274   -4177677.55948  -3249897.39546                  23392861.0414
        35.2504         20.5004
  20915791.0894   -6036144.22749  -4682130.79748                  20915788.7214
        50.5004         40.0004
  19930534.8544   -3913618.47349  -3043759.23848                  19930532.8034
        50.7504         42.5004
  21754554.4484   -1392140.39149  -1084224.15247                  21754551.5274
        49.2504         35.5004
  22990594.8394   -6070331.94949  -4711433.97747                  22990591.0284
        44.0004         33.2504
  21991516.5234   -1068435.73449   -832057.57447                  21991514.5044
        48.7504         36.5004
  20589009.1464   -2935404.36749  -2279234.21148                  20589004.4964
        51.7504         41.2504
 04  6 29 17 44 45.0000000  0  8G 3G 9G14G15G18G19G21G22
  21533142.0384   -3396174.39849  -2635746.08647                  21533140.4614
        50.0004         36.2504
  23382480.6474                                                   23382482.0614
        31.7504         19.2504
  20900367.0054   -6117197.28549  -4745289.00848                  20900364.5264
        49.5004         40.0004
  19920587.4624   -3965891.46949  -3084491.45348                  19920585.6324
        50.5004         42.0004
  21750972.6814   -1410962.46549  -1098890.72347                  21750969.8594
        49.2504         35.2504
  22975008.3654   -6152238.50449  -4775257.26247                  22975005.2384
        42.2504         32.2504
  21989114.6764   -1081060.21149   -841894.85247                  21989112.3204
        48.2504         35.2504
  20581484.8934   -2974944.69149  -2310044.86348                  20581480.3894
        52.0004         41.5004
 04  6 29 17 45  0.0000000  0  8G 3G 9G14G15G18G19G21G22
  21525090.2304   -3438488.46549  -2668718.09847                  21525088.9454
        49.0004         36.7504
  23372126.6744   -4286635.07048  -3334799.42646                  23372126.9874
        35.2504         19.5004
  20884963.0314   -6198144.97749  -4808365.13348                  20884960.6344
        48.5004         40.0004
  19910656.7454   -4018076.77749  -3125155.33248                  19910655.5434
        50.7504         42.7504
  21747394.2734   -1429766.26649  -1113543.03547                  21747391.6144
        50.0004         35.2504
  22959440.5214   -6234047.47349  -4839004.49647                  22959437.3514
        40.2504         33.5004
  21986724.6494   -1093618.98449   -851680.93047                  21986722.3914
        48.0004         35.5004
  20573968.6164   -3014441.90649  -2340821.92248                  20573964.4334
        51.2504         40.7504
 04  6 29 17 45 15.0000000  0  8G 3G 9G14G15G18G19G21G22
  21517062.2194   -3480675.34049  -2701591.00047                  21517060.9944
        48.5004         37.5004
  23361796.2674   -4340918.70348  -3377098.32846                  23361797.1644
        35.0004         20.0004
  20869579.7234   -6278986.30949  -4871358.37548                  20869577.3314
        50.2504         40.0004
  19900743.5974   -4070173.28949  -3165750.02748                  19900741.4514
        50.5004         42.7504
  21743819.9554   -1448550.97749  -1128180.49647                  21743817.1594
        49.7504         35.7504
  22943891.7344   -6315757.65649  -4902674.77747                  22943888.7014
        43.0004         33.2504
  21984347.3624   -1106111.10949   -861415.07047                  21984345.4674
        48.5004         35.0004
  20566460.9334   -3053895.25449  -2371564.79748                  20566456.6524
        50.7504         41.2504
 04  6 29 17 45 30.0000000  0  8G 3G 9G14G15G18G19G21G22
  21509058.5184   -3522735.74649  -2734365.35547                  21509057.5324
        49.0004         37.5004
  23351491.6804   -4395071.98849  -3419295.71946                  23351492.1954
        37.5004         21.7504
  20854215.9974   -6359721.48049  -4934268.89848                  20854213.6984
        50.7504         40.2504
  19890846.6164   -4122181.51249  -3206275.91048                  19890844.6734
        50.7504         42.5004
  21740248.7164   -1467317.33649  -1142803.64147                  21740246.5474
        49.2504         35.7504
  22928361.3624   -6397369.41049  -4966268.35947                  22928358.3324
        44.2504         32.7504
  21981982.9264   -1118536.88349   -871097.51647                  21981981.2154
        48.2504         35.5004
  20558961.3044   -3093305.50449  -2402274.09448                  20558957.3184
        51.0004         40.7504
 04  6 29 17 45 45.0000000  0  8G 3G 9G14G15G18G19G21G22
  21800872.0944   -3564665.25849  -2767037.71147                  21800870.8794
        49.0004         37.0004
  23641005.1594   -4449089.80949  -3461387.50046                  23641005.3394
        37.0004         23.0004
  21138666.8064   -6440343.23849  -4997091.04348                  21138664.7124
        50.2504         40.2504
  20180760.0064   -4174096.07849  -3246728.83648                  20180758.3594
        50.5004         42.0004
  22036473.8804   -1486062.52349  -1157410.29747                  22036471.5574
        49.2504         35.0004
  23212643.8054   -6478875.19149  -5029779.36347                  23212640.7444
        43.5004         32.7504
  22279424.1144   -1130894.00849   -880726.46947                  22279421.9574
        47.5004         35.2504
  20851263.3274   -3132668.35549  -2432946.44148                  20851258.9774
        52.0004         41.0004
 04  6 29 17 46  0.0000000  0  8G 3G 9G14G15G18G19G21G22
  21792916.9734   -3606468.25449  -2799611.48847                  21792916.0044
        48.0004         37.5004
  23630750.3664   -4502977.72749  -3503378.11746                  23630750.8134
        38.2504         22.0004
  21123344.6414   -6520860.75449  -5059831.95748                  21123342.5314
        50.7504         39.7504
  20170897.6354   -4225922.44549  -3287113.03148                  20170896.3484
        50.7504         42.7504
  22032910.9654   -1504787.75849  -1172001.40247                  22032908.5914
        50.0004         35.5004
  23197151.4344   -6560284.32049  -5093215.05147                  23197148.7344
        43.5004         31.7504
  22277085.7394   -1143182.58249   -890302.00447                  22277083.1814
        47.5004         35.5004
  20843781.3094   -3171987.81649  -2463584.98848                  20843776.9324
        51.7504         40.7504
 04  6 29 17 46 15.0000000  0  8G 3G 9G14G15G18G19G21G22
  21784986.6124   -3648144.16049  -2832086.23847                  21784985.4624
        47.0004         37.7504
  23620520.8864   -4556734.22349  -3545266.25046                  23620520.9154
        38.0004         22.2504
  21108043.3374   -6601270.75049  -5122489.09848                  21108041.3814
        50.5004         39.7504
  20161052.4854   -4277659.02749  -3327427.25048                  20161050.8514
        50.0004         42.5004
  22029351.1464   -1523494.06249  -1186577.75047                  22029348.4904
        49.7504         35.0004
  23181678.7994   -6641593.21949  -5156572.62547                  23181675.7014
        42.7504         32.2504
  22274759.8014   -1155404.77749   -899825.80947                  22274757.5984
        46.7504         35.7504
  20836307.0494   -3211263.59849  -2494189.50048                  20836302.5144
        50.7504         41.0004
 04  6 29 17 46 30.0000000  0  8G 3G 9G14G15G18G19G21G22
  21777080.4804   -3689690.38749  -2864459.93047                  21777079.3464
        46.7504         37.2504
  23610317.8174   -4610356.41449  -3587049.78946                  23610316.1704
        39.0004         23.0004
  21092762.8824   -6681570.26249  -5185060.13348                  21092760.8794
        51.0004         40.0004
  20151225.0234   -4329302.96549  -3367669.28948                  20151223.3974
        51.0004         42.2504
  22025795.8584   -1542178.77749  -1201137.28147                  22025793.5814
        50.2504         35.7504
  23166226.0454   -6722798.92649  -5219849.78947                  23166222.7834
        42.5004         31.5004
  22272447.2664   -1167557.81249   -909295.73047                  22272445.1454
        46.5004         35.5004
  20828841.9724   -3250493.09449  -2524757.94548                  20828837.4084
        51.0004         41.0004
 04  6 29 17 46 45.0000000  0  8G 3G 9G14G15G18G19G21G22
  21769199.6024   -3731105.05549  -2896731.11747                  21769198.6724
        48.7504         37.2504
  23600138.8354   -4663842.12549  -3628726.96946                  23600139.4804
        38.5004         22.5004
  21077503.9794   -6761757.09849  -5247543.37948                  21077501.5154
        51.0004         40.2504
  20141415.7284   -4380852.10249  -3407837.46148                  20141413.6914
        51.0004         42.5004
  22022244.5484   -1560840.00049  -1215678.51247                  22022241.7584
        50.2504         35.5004
  23150793.2984   -6803899.12549  -5283044.74647                  23150790.2814
        43.2504         32.5004
  22270147.8594   -1179639.47349   -918710.02747                  22270145.9914
        47.5004         34.7504
  20821386.0154   -3289674.42249  -2555288.85948                  20821381.8034
        51.2504         40.7504
 04  6 29 17 47  0.0000000  0  8G 3G 9G14G15G18G19G21G22
  21761343.1934   -3772390.50849  -2928901.60947                  21761342.2194
        49.2504         37.0004
  23589986.2014   -4717193.36349  -3670299.35546                  23589986.4164
        40.5004         22.2504
  21062265.7394   -6841833.26249  -5309940.37948                  21062264.0604
        50.5004         40.2504
  20131623.6094   -4432308.48449  -3447933.34848                  20131622.2804
        50.5004         42.5004
  22018697.6364   -1579480.18049  -1230203.32047                  22018694.7714
        50.0004         36.0004
  23135380.2434   -6884895.95749  -5346159.15647                  23135376.3834
        41.0004         31.2504
  22267861.9474   -1191651.60549   -928070.15647                  22267860.1384
        47.7504         35.0004
  20813938.6654   -3328809.95749  -2585784.08648                  20813934.2704
        51.5004         41.0004
 04  6 29 17 47 15.0000000  0  8G 3G 9G14G15G18G19G21G22
  21753511.5274   -3813545.12149  -2960970.16047                  21753510.3574
        49.5004         36.7504
  23579860.8544   -4770408.34049  -3711765.56646                  23579859.9974
        38.7504         22.7504
  21047049.3304   -6921796.87149  -5372249.68448                  21047046.7544
        51.5004         40.5004
  20121850.0824   -4483670.29349  -3487955.53948                  20121848.2054
        50.7504         41.7504
  22015154.6514   -1598097.69949  -1244710.49647                  22015151.9044
        49.5004         35.5004
  23119987.4094   -6965787.32449  -5409191.38747                  23119983.5324
        44.0004         32.0004
  22265589.8324   -1203593.03149   -937375.17247                  22265587.5434
        47.2504         35.0004
  20806500.6784   -3367898.04749  -2616242.34448                  20806496.1204
        52.0004         41.0004
 04  6 29 17 47 30.0000000  0  8G 3G 9G14G15G18G19G21G22
  21745704.9904   -3854568.28549  -2992936.27047                  21745703.7464
        48.2504         36.7504
  23569759.8734   -4823486.16449  -3753124.90646                  23569759.5174
        37.5004         22.2504
  21031854.1644   -7001646.98449  -5434470.53948                  21031852.2024
        50.5004         40.5004
  20112094.2434   -4534936.64849  -3527903.34048                  20112092.6454
        50.2504         41.5004
  22011616.2514   -1616691.70749  -1259199.34447                  22011613.9844
        49.7504         36.0004
  23104614.9714   -7046572.26249  -5472140.68447                  23104611.4664
        43.0004         32.0004
  22263330.9454   -1215463.17649   -946624.67247                  22263328.6164
        47.7504         34.0004
  20799071.5534   -3406938.01649  -2646663.10948                  20799067.2244
        51.0004         41.0004
 04  6 29 17 47 45.0000000  0  8G 3G 9G14G15G18G19G21G22
  21737923.7654   -3895459.67249  -3024799.69947                  21737922.2374
        49.0004         36.2504
  23559686.2644   -4876426.25849  -3794376.89546                  23559685.0124
        38.7504         21.2504
  21016680.7194   -7081383.03149  -5496602.51648                  21016678.7124
        49.7504         40.0004
  20102356.9294   -4586106.96949  -3567776.32448                  20102355.1194
        51.0004         42.0004
  22008082.7244   -1635261.96549  -1273669.68747                  22008080.1844
        49.5004         35.5004
  23089262.1124   -7127249.96949  -5535006.42247                  23089258.5924
        42.0004         31.7504
  22261085.9554   -1227261.59449   -955818.24647                  22261083.5374
        47.5004         34.2504
  20791651.7284   -3445929.70349  -2677046.25848                  20791647.8454
        51.5004         41.0004
 04  6 29 17 48  0.0000000  0  8G 3G 9G14G15G18G19G21G22
  21730167.8334   -3936218.96549  -3056560.19947                  21730165.6844
        48.2504         36.0004
  23549637.4424   -4929228.02749  -3835521.13746                  23549637.1724
        38.5004         20.5004
  21001529.7304   -7161004.36349  -5558645.11748                  21001527.2514
        49.5004         40.2504
  20092637.9704   -4637180.70749  -3607574.04748                  20092636.0824
        50.5004         41.7504
  22004553.3654   -1653808.18749  -1288121.30147                  22004551.0974
        49.0004         36.0004
  23073930.1094   -7207819.80549  -5597788.09047                  23073926.7744
        40.2504         32.0004
  22258854.6484   -1238988.11349   -964955.82047                  22258852.2814
        47.7504         34.2504
  20784241.0784   -3484872.70349  -2707391.44548                  20784237.0684
        52.0004         41.2504
 04  6 29 17 48 15.0000000  0  8G 3G 9G14G15G18G19G21G22
  21722436.2274   -3976847.23049  -3088218.60547                  21722434.3374
        48.5004         36.0004
  23539616.2374   -4981892.24649  -3876558.22346                  23539614.9484
        37.7504         20.0004
  20986399.6874   -7240511.83249  -5620598.98848                  20986397.4214
        50.0004         40.0004
  20082937.3404   -4688158.63749  -3647297.10548                  20082935.5564
        50.2504         41.7504
  22001028.7744   -1672331.55949  -1302555.12147                  22001026.4124
        48.7504         35.5004
  23058618.5224   -7288282.52749  -5660486.32047                  23058614.5194
        42.5004         32.5004
  22256636.3224   -1250643.48849   -974037.94947                  22256633.9734
        47.5004         33.2504
  20776839.8534   -3523768.06649  -2737699.53148                  20776835.9214
        51.2504         41.0004
 04  6 29 17 48 30.0000000  0  8G 3G 9G14G15G18G19G21G22
  21714729.9924   -4017344.94149  -3119775.27047                  21714728.1314
        49.5004         36.2504
  23529620.6114   -5034419.26249  -3917488.31646                  23529619.8274
        40.7504         20.0004
  20971291.7904   -7319905.68449  -5682464.32448                  20971289.6234
        50.0004         39.5004
  20073254.6194   -4739040.98849  -3686945.69548                  20073253.0554
        50.5004         42.0004
  21997507.7414   -1690832.47749  -1316971.42647                  21997505.4844
        48.5004         36.0004
  23043327.3194   -7368638.32049  -5723101.21947                  23043324.3074
        44.7504         32.2504
  22254431.8574   -1262228.14149   -983064.98047                  22254429.2534
        48.2504         33.7504
  20769446.9974   -3562616.39849  -2767970.95748                  20769442.6534
        51.5004         40.7504
 04  6 29 17 48 45.0000000  0  8G 3G 9G14G15G18G19G21G22
  21707048.0184   -4057711.19149  -3151229.50047                  21707046.8394
        49.0004         36.2504
  23519651.4944   -5086807.82849  -3958310.59446                  23519651.1884
        40.2504         21.5004
  20956205.3004   -7399184.59849  -5744240.09448                  20956203.0564
        47.7504         40.0004
  20063590.4104   -4789826.60949  -3726518.90648                  20063588.7634
        50.7504         42.2504
  21993991.9754   -1709310.02349  -1331369.53147                  21993989.5934
        47.0004         36.2504
  23028057.0224   -7448885.77049  -5785631.69147                  23028053.4234
        41.2504         32.7504
  22252241.0974   -1273741.27749   -992036.27347                  22252238.9844
        48.2504         34.5004
  20762063.6674   -3601416.82449  -2798205.06248                  20762059.1774
        51.7504         40.7504
 04  6 29 17 49  0.0000000  0  8G 3G 9G14G15G18G19G21G22
  21699392.5044   -4097943.46149  -3182579.34047                  21699390.9314
        50.2504         36.0004
  23509709.6124   -5139055.11749  -3999022.80546                  23509708.2214
        41.0004         22.5004
  20941141.4514   -7478345.69549  -5805924.06648                  20941138.9964
        49.2504         39.7504
  20053945.2034   -4840512.52749  -3766014.43048                  20053943.4104
        50.7504         42.2504
  21990480.8534   -1727761.50049  -1345747.33247                  21990478.3404
        48.2504         35.5004
  23012807.3364   -7529021.87549  -5848075.39147                  23012804.2594
        43.5004         32.5004
  22250064.4694   -1285180.22349  -1000949.75047                  22250062.2054
        48.5004         34.2504
  20754689.5804   -3640166.63349  -2828399.71948                  20754685.5434
        51.5004         41.5004
 04  6 29 17 49 15.0000000  0  8G 3G 9G14G15G18G19G21G22
  21691761.3494   -4138045.21549  -3213827.47747                  21691759.5914
        50.2504         36.2504
  23499792.8714   -5191164.45749  -4039627.45746                  23499792.1534
        41.5004         22.0004
  20926099.5464   -7557392.34449  -5867518.84448                  20926097.2024
        48.7504         40.0004
  20044318.1114   -4891102.12549  -3805434.91448                  20044316.6954
        50.5004         42.0004
  21986973.4304   -1746190.50049  -1360107.59447                  21986971.3804
        48.0004         36.2504
  22997578.7384   -7609049.99649  -5910434.94147                  22997575.9344
        45.0004         32.5004
  22247901.1184   -1296548.22349  -1009807.94547                  22247898.9514
        49.0004         34.5004
  20747324.6734   -3678869.41049  -2858557.73448                  20747320.4924
        52.0004         41.2504
 04  6 29 17 49 30.0000000  0  8G 3G 9G14G15G18G19G21G22
  21684154.8374   -4178017.49649  -3244974.72747                  21684153.2134
        50.0004         36.5004
  23489902.4214   -5243136.39849  -4080125.08246                  23489901.5684
        41.5004         21.7504
  20911078.8544   -7636325.03949  -5929024.84448                  20911076.3184
        48.7504         40.7504
  20034709.5504   -4941596.08649  -3844780.85948                  20034707.9954
        50.7504         42.0004
  21983470.7354   -1764598.17649  -1374451.25447                  21983468.2124
        48.0004         35.0004
  22982370.4064   -7688970.55549  -5972710.69547                  22982367.0334
        44.7504         32.0004
  22245751.2664   -1307846.62949  -1018611.92647                  22245749.0434
        49.0004         33.5004
  20739968.7624   -3717526.13749  -2888679.85548                  20739964.3444
        51.7504         41.2504
 04  6 29 17 49 45.0000000  0  8G 3G 9G14G15G18G19G21G22
  21676573.4934   -4217859.23049  -3276020.25047                  21676571.5914
        48.7504         37.0004
  23480038.8744   -5294969.77349  -4120514.71946                  23480037.8734
        41.0004         21.7504
  20896080.5044   -7715142.60549  -5990441.11748                  20896078.0814
        49.7504         40.7504
  20025119.4054   -4991993.06249  -3884051.24248                  20025118.0744
        51.0004         41.7504
  21979972.0934   -1782983.32849  -1388777.36347                  21979969.3124
        47.0004         35.0004
  22967182.4784   -7768782.25049  -6034901.62547                  22967179.1014
        45.2504         32.2504
  22243614.8024   -1319074.34849  -1027360.81247                  22243612.4114
        49.2504         34.2504
  20732621.5864   -3756135.76649  -2918765.29348                  20732617.4864
        50.0004         41.7504
 04  6 29 17 50  0.0000000  0  8G 3G 9G14G15G18G19G21G22
  21669016.8144   -4257569.80549  -3306963.55947                  21669014.8504
        49.0004         36.7504
  23470202.9664   -5346663.66849  -4160795.65646                  23470200.7314
        42.0004         22.7504
  20881104.1564   -7793844.05149  -6051766.91448                  20881101.4144
        49.0004         40.0004
  20015547.5704   -5042292.20749  -3923245.38348                  20015545.8014
        50.2504         42.0004
  21976478.0914   -1801345.26649  -1403085.37147                  21976475.6364
        48.0004         35.0004
  22952015.4094   -7848484.08649  -6097006.93747                  22952012.0184
        43.2504         31.5004
  22241491.8824   -1330230.53149  -1036053.96947                  22241489.1334
        48.5004         33.5004
  20725283.4094   -3794697.74649  -2948813.59048                  20725280.0314
        51.0004         41.2504
 04  6 29 17 50 15.0000000  0  8G 3G 9G14G15G18G19G21G22
  21661484.7094   -4297150.23849  -3337805.48047                  21661483.2624
        51.0004         37.0004
  23460391.9534   -5398218.84449  -4200968.55546                  23460390.3624
        42.5004         23.5004
  20866149.9064   -7872430.21549  -6113002.87548                  20866146.9544
        51.0004         40.2504
  20005994.6684   -5092494.23849  -3962363.85548                  20005992.9204
        50.7504         42.0004
  21972988.4824   -1819685.01649  -1417376.10547                  21972985.6044
        49.2504         35.0004
  22936869.2064   -7928076.73449  -6159027.18047                  22936866.1974
        43.7504         32.0004
  22239382.4784   -1341316.37949  -1044692.30947                  22239379.6794
        49.2504         34.0004
  20717954.2444   -3833213.06649  -2978825.54348                  20717950.6554
        52.0004         42.0004
 04  6 29 17 50 30.0000000  0  8G 3G 9G14G15G18G19G21G22
  21653977.3054   -4336600.76249  -3368546.16847                  21653975.8454
        51.0004         36.7504
  23450607.6624   -5449635.26249  -4241033.28946                  23450605.9924
        43.0004         24.2504
  20851216.9904   -7950900.89149  -6174148.85548                  20851214.3694
        50.2504         40.7504
  19996459.8324   -5142599.09849  -4001406.60548                  19996458.2164
        51.5004         42.5004
  21969502.3084   -1838002.73449  -1431649.65247                  21969499.6204
        48.5004         34.5004
  22921744.3954   -8007559.91449  -6220962.10947                  22921740.9454
        42.5004         32.2504
  22237286.4934   -1352331.75849  -1053275.73847                  22237283.3244
        49.2504         34.0004
  20710633.5854   -3871681.96949  -3008801.31648                  20710629.7024
        51.7504         41.7504
 04  6 29 17 50 45.0000000  0  8G 3G 9G14G15G18G19G21G22
  21646495.2484   -4375920.47349  -3399184.91447                  21646493.2154
        50.0004         37.0004
  23440850.1864   -5500911.70749  -4280988.94546                  23440848.2394
        43.5004         23.0004
  20836307.0584   -8029254.71549  -6235203.78148                  20836304.5464
        49.7504         40.5004
  19986944.0834   -5192605.55149  -4040372.66848                  19986942.3704
        50.2504         42.5004
  21966021.2444   -1856297.32449  -1445905.18047                  21966018.5264
        48.7504         34.5004
  22906640.2784   -8086932.25449  -6282810.68747                  22906636.0084
        39.7504         32.0004
  22235203.6454   -1363275.31649  -1061803.20347                  22235200.9954
        48.5004         32.7504
  20703322.5714   -3910103.37149  -3038740.07048                  20703318.4014
        51.5004         42.0004
 04  6 29 17 51  0.0000000  0  8G 3G 9G14G15G18G19G21G22
  21639037.5504   -4415108.95349  -3429721.40647                  21639036.6884
        49.7504         37.0004
  23431118.9514   -5552047.49249  -4320835.04346                  23431117.7654
        43.5004         24.0004
  20821419.0644   -8107491.08649  -6296167.18448                  20821416.3544
        50.5004         39.7504
  19977446.9614   -5242512.94949  -4079261.55148                  19977445.3634
        51.2504         42.5004
  21962543.9714   -1874568.42649  -1460142.41847                  21962541.2844
        48.0004         34.0004
  22891557.5924   -8166193.14149  -6344572.41047                  22891553.5854
        43.2504         32.2504
  22233134.5184   -1374146.87549  -1070274.56247                  22233131.8414
        48.7504         33.0004
  20696020.3354   -3948476.87149  -3068641.51248                  20696016.1074
        51.5004         41.2504
 04  6 29 17 51 15.0000000  0  8G 3G 9G14G15G18G19G21G22
  21631605.3904   -4454166.09849  -3460155.55547                  21631604.1424
        46.5004         36.7504
  23421415.2944   -5603042.33249  -4360571.26646                  23421413.8574
        41.2504         22.5004
  20806553.6414   -8185609.62149  -6357038.76648                  20806551.1154
        50.5004         40.2504
  19967968.6014   -5292320.97749  -4118073.01248                  19967967.0314
        51.5004         42.5004
  21959071.3954   -1892816.07049  -1474361.38747                  21959068.2484
        47.7504         33.5004
  22876495.8314   -8245341.91849  -6406246.76647                  22876491.9644
        41.0004         32.0004
  22231079.6144   -1384946.83649  -1078690.12947                  22231076.6044
        48.5004         33.0004
  20688727.2664   -3986802.46949  -3098505.62948                  20688723.0314
        50.2504         42.0004
 04  6 29 17 51 30.0000000  0  8G 3G 9G14G15G18G19G21G22
  21624198.1674   -4493091.77049  -3490487.26247                  21624196.8394
        43.5004         36.5004
  23411738.5614   -5653895.79349  -4400197.37146                  23411737.1194
        42.5004         23.0004
  20791710.5614   -8263609.97349  -6417818.25848                  20791708.1174
        48.7504         40.5004
  19958509.8814   -5342029.12549  -4156806.64148                  19958508.1894
        51.0004         42.0004
  21955603.8474   -1911040.02049  -1488561.87547                  21955600.8654
        47.0004         34.0004
  22861456.0134   -8324378.16849  -6467833.46147                  22861451.9464
        40.5004         31.7504
  22229037.8914   -1395674.71149  -1087049.53547                  22229035.6734
        48.7504         33.7504
  20681443.5414   -4025080.00849  -3128332.28948                  20681439.0454
        47.0004         42.0004
 04  6 29 17 51 45.0000000  0  8G 3G 9G14G15G18G19G21G22
  21616815.8324   -4531886.94949  -3520717.28947                  21616814.4974
        44.0004         36.5004
  23402087.7204   -5704608.81649  -4439714.01246                  23402085.6314
        38.7504         23.0004
  20776889.9644   -8341492.78949  -6478506.16048                  20776887.5834
        49.2504         41.0004
  19949069.3564   -5391638.18049  -4195463.04348                  19949067.3444
        50.2504         42.0004
  21952140.4284   -1929241.28149  -1502744.67247                  21952137.3884
        46.2504         34.5004
  22846436.9734   -8403302.54749  -6529332.96547                  22846433.3494
        43.7504         32.5004
  22227010.2754   -1406331.40249  -1095353.48447                  22227007.9394
        48.7504         33.5004
  20674168.4934   -4063310.40249  -3158122.21548                  20674164.3924
        48.7504         42.0004
 04  6 29 17 52  0.0000000  0  8G 3G 9G14G15G18G19G21G22
  21609458.3094   -4570550.89849  -3550845.05147                  21609457.0644
        46.7504         36.0004
  23392463.9414   -5755180.25849  -4479120.30946                  23392462.0294
        41.0004         22.0004
  20762091.9184   -8419257.12149  -6539101.73448                  20762089.1974
        49.5004         40.0004
  19939648.2054   -5441147.11749  -4234041.43448                  19939646.4394
        51.0004         42.0004
  21948680.9724   -1947418.98049  -1516909.14147                  21948678.3874
        45.7504         33.5004
  22831439.7604   -8482113.83249  -6590744.35947                  22831435.9884
        44.5004         32.0004
  22224996.1294   -1416916.09049  -1103601.31647                  22224993.8794
        48.0004         33.0004
  20666902.6424   -4101492.96149  -3187874.86348                  20666898.1344
        51.5004         41.7504
 04  6 29 17 52 15.0000000  0  8G 3G 9G14G15G18G19G21G22
  21602125.9954   -4609083.75449  -3580870.66847                  21602124.2674
        49.2504         35.7504
  23382868.2074   -5805609.94949  -4518416.18046                  23382866.2904
        42.0004         24.0004
  20747316.3234   -8496902.70749  -6599604.78548                  20747314.2414
        49.7504         40.2504
  19930246.2304   -5490555.77049  -4272541.68448                  19930244.4614
        51.0004         42.0004
  21945226.5364   -1965573.17249  -1531055.26647                  21945224.0124
        45.2504         33.7504
  22816463.8124   -8560811.78149  -6652067.44147                  22816459.8094
        44.7504         32.7504
  22222995.2114   -1427428.73849  -1111793.00847                  22222992.9874
        48.0004         32.7504
  20659645.6714   -4139627.75049  -3217590.28948                  20659641.5004
        51.7504         41.5004
 04  6 29 17 52 30.0000000  0  8G 3G 9G14G15G18G19G21G22
  21594818.5794   -4647484.92649  -3610793.67247                  21594817.0754
        49.7504         36.2504
  23373298.1624   -5855897.08649  -4557600.98046                  23373297.2374
        37.5004         23.5004
  20732563.7304   -8574428.60949  -6660014.57848                  20732561.4224
        49.2504         40.2504
  19920863.1414   -5539863.21149  -4310963.07448                  19920861.4894
        50.5004         42.0004
  21941776.4034   -1983703.23049  -1545182.60547                  21941774.1874
        46.0004         34.2504
  22801509.9914   -8639395.37549  -6713301.40647                  22801506.5714
        44.7504         32.7504
  22221008.5904   -1437869.00849  -1119928.30147                  22221006.8184
        48.7504         33.5004
  20652398.3224   -4177714.16049  -3247268.01648                  20652393.6114
        52.2504         42.0004
 04  6 29 17 52 45.0000000  0  8G 3G 9G14G15G18G19G21G22
  21587535.8294   -4685755.93749  -3640615.25447                  21587534.4124
        49.5004         36.5004
  23363756.7524   -5906042.88349  -4596675.62946                  23363754.1234
        41.5004         22.7504
  20717833.1674   -8651836.10249  -6720332.09448                  20717831.5094
        49.5004         40.7504
  19911499.3924   -5589070.68449  -4349306.56248                  19911497.9124
        50.5004         42.0004
  21938330.7784   -2001810.76249  -1559292.38747                  21938328.4194
        46.0004         34.0004
  22786577.7274   -8717865.93449  -6774447.28147                  22786574.3274
        44.5004         33.0004
  22219035.5204   -1448238.13749  -1128008.18047                  22219033.6344
        47.7504         32.5004
  20645159.3054   -4215753.70749  -3276909.21948                  20645154.9874
        52.2504         42.5004
 04  6 29 17 53  0.0000000  0  8G 3G 9G14G15G18G19G21G22
  21580277.5764   -4723897.75449  -3670336.16047                  21580275.5844
        49.5004         36.2504
  23354240.9204   -5956048.16849  -4635640.78946                  23354238.6234
        42.5004         23.0004
  20703125.7394   -8729125.85949  -6780557.87148                  20703123.8364
        50.0004         40.7504
  19902154.4584   -5638178.99649  -4387572.78148                  19902152.7214
        51.2504         42.5004
  21934889.0344   -2019896.66049  -1573385.32047                  21934887.0344
        45.7504         33.7504
  22771666.5764   -8796224.01249  -6835505.52747                  22771662.9914
        44.0004         33.5004
  22217076.0834   -1458536.99649  -1136033.28547                  22217073.5604
        48.5004         33.2504
  20637929.4614   -4253747.34449  -3306514.66048                  20637925.5474
        51.7504         41.7504
 04  6 29 17 53 15.0000000  0  8G 3G 9G14G15G18G19G21G22
  21573044.5194   -4761909.52749  -3699955.74247                  21573042.1834
        50.0004         36.5004
  23344751.7164   -6005911.82049  -4674495.58246                  23344750.3824
        42.7504         22.5004
  20688440.7294   -8806296.78149  -6840691.05548                  20688438.7204
        49.5004         40.7504
  19892828.4984   -5687187.00449  -4425760.85548                  19892826.8774
        50.5004         42.0004
  21931451.9134   -2037960.11349  -1587460.73847                  21931449.4534
        44.5004         33.7504
  22756777.5104   -8874468.43449  -6896475.21947                  22756773.5294
        46.0004         33.5004
  22215129.6794   -1468764.54749  -1144002.83247                  22215127.5904
        47.7504         33.7504
  20630708.3814   -4291694.25849  -3336083.69148                  20630703.9954
        51.2504         42.2504
 04  6 29 17 53 30.0000000  0  8G 3G 9G14G15G18G19G21G22
  21565835.3994   -4799792.46149  -3729474.91447                  21565833.2844
        49.0004         35.2504
  23335289.7434   -6055634.71149  -4713240.68446                  23335288.6214
        41.5004         23.2504
  20673778.1734   -8883349.64849  -6900732.24248                  20673775.5774
        49.5004         40.2504
  19883521.4324   -5736095.44549  -4463871.34448                  19883519.7764
        51.0004         42.5004
  21928018.2154   -2056002.17649  -1601519.50047                  21928016.1594
        45.2504         34.0004
  22741909.3914   -8952599.81249  -6957356.82047                  22741906.5564
        44.0004         33.2504
  22213196.7064   -1478922.25449  -1151917.94547                  22213193.9454
        48.0004         34.0004
  20623495.9254   -4329595.46149  -3365617.09848                  20623491.6154
        52.0004         41.7504
 04  6 29 17 53 45.0000000  0  8G 3G 9G14G15G18G19G21G22
  21858443.8304   -4837544.62549  -3758892.21947                  21858441.4104
        49.5004         35.5004
  23625647.8014   -6105213.81249  -4751873.73446                  23625646.9834
        38.5004         22.2504
  20958931.5364   -8960279.63349  -6960677.68448                  20958929.1284
        49.2504         40.5004
  20174026.3654   -5784901.37549  -4501901.93748                  20174024.8004
        50.5004         42.5004
  22224382.5134   -2074022.09049  -1615561.02047                  22224379.5914
        46.0004         33.5004
  23026856.4174   -9030613.26249  -7018146.51647                  23026852.8874
        43.5004         33.7504
  22511069.4974   -1489010.01649  -1159778.56247                  22511067.0234
        47.5004         33.5004
  20916085.1604   -4367449.03949  -3395113.39548                  20916080.8254
        52.0004         42.2504
 04  6 29 17 54  0.0000000  0  8G 3G 9G14G15G18G19G21G22
  21851283.7794   -4875171.36749  -3788211.75447                  21851281.1504
        49.0004         35.5004
  23616238.5684   -6154655.73049  -4790399.90246                  23616238.1854
        37.2504         24.5004
  20944313.4394   -9037096.88749  -7020535.28948                  20944311.0654
        50.5004         41.2504
  20164757.3514   -5833611.19549  -4539857.63748                  20164755.6064
        50.5004         42.2504
  22220956.6674   -2092022.35549  -1629587.21147                  22220954.0854
        46.5004         34.2504
  23012031.4794   -9108518.85549  -7078852.17247                  23012028.2394
        44.5004         33.2504
  22509163.0294   -1499029.12149  -1167585.68747                  22509160.5284
        48.0004         33.2504
  20908889.9994   -4405260.10249  -3424576.57048                  20908885.7314
        52.2504         42.0004
 04  6 29 17 54 15.0000000  0  8G 3G 9G14G15G18G19G21G22
  21844147.3314   -4912670.68449  -3817432.01247                  21844145.8314
        49.5004         35.5004
  23606857.2004   -6203957.57849  -4828816.90647                  23606856.5024
        41.0004         26.0004
  20929718.0144   -9113796.67649  -7080301.34848                  20929715.8674
        51.0004         41.2504
  20155506.9584   -5882221.99249  -4577736.19548                  20155505.3384
        50.0004         42.2504
  22217535.3084   -2110002.47349  -1643597.69147                  22217532.7784
        45.0004         35.0004
  22997228.4394   -9186311.72749  -7139470.00447                  22997224.4414
        45.0004         34.0004
  22507269.7104   -1508979.45749  -1175339.21947                  22507267.1864
        47.7504         34.0004
  20901703.1164   -4443026.88749  -3454005.24248                  20901699.1054
        51.2504         41.5004
 04  6 29 17 54 30.0000000  0  8G 3G 9G14G15G18G19G21G22
  21837036.2624   -4950041.57449  -3846552.21547                  21837034.2434
        49.2504         35.2504
  23597502.4964   -6253118.06649  -4867123.80547                  23597501.2724
        43.0004         25.7504
  20915144.9124   -9190377.68749  -7139974.86348                  20915143.0264
        50.2504         41.5004
  20146275.9204   -5930732.56649  -4615536.64848                  20146273.9424
        50.5004         42.5004
  22214117.5004   -2127961.34849  -1657591.64847                  22214115.0404
        46.7504         34.0004
  22982446.6794   -9263990.48449  -7199998.90647                  22982442.9564
        46.0004         33.7504
  22505389.7054   -1518859.93449  -1183038.30547                  22505387.2144
        47.5004         33.2504
  20894524.9824   -4480748.29349  -3483398.55148                  20894521.2254
        51.5004         41.7504
 04  6 29 17 54 45.0000000  0  8G 3G 9G14G15G18G19G21G22
  21829949.6444   -4987282.03549  -3875570.77047                  21829947.6174
        47.5004         35.7504
  23588175.3194   -6302135.01249  -4905318.80147                  23588174.5834
        42.0004         26.2504
  20900594.9954   -9266837.61349  -7199554.01248                  20900593.4834
        50.5004         41.5004
  20137064.3404   -5979140.73449  -4653257.29748                  20137062.5664
        50.5004         42.5004
  22210704.4194   -2145897.05949  -1671567.53947                  22210701.9514
        46.2504         34.0004
  22967687.0364   -9341552.77049  -7260437.06247                  22967683.7054
        46.2504         34.7504
  22503523.3994   -1528668.53149  -1190681.39547                  22503520.4834
        48.7504         33.2504
  20887355.5794   -4518422.51249  -3512755.07448                  20887351.6074
        50.0004         41.5004
 04  6 29 17 55  0.0000000  0  8G 3G 9G14G15G18G19G21G22
  21822887.4984   -5024394.50449  -3904489.59047                  21822885.5854
        44.0004         36.0004
  23578874.0984   -6351010.55149  -4943403.64846                  23578874.6594
        42.5004         25.5004
  20886067.8464   -9343178.56649  -7259040.47748                  20886066.0304
        49.2504         41.7504
  20127871.3094   -6027448.44949  -4690899.67648                  20127869.8154
        50.2504         42.5004
  22207295.1874   -2163811.89149  -1685527.15247                  22207293.3574
        44.7504         33.7504
  22952948.9044   -9419000.66849  -7320786.06247                  22952946.5154
        41.7504         34.0004
  22501669.8944   -1538407.41049  -1198270.14847                  22501667.7754
        48.5004         33.0004
  20880195.2244   -4556051.63749  -3542076.48848                  20880190.9014
        48.0004         41.2504
 04  6 29 17 55 15.0000000  0  8G 3G 9G14G15G18G19G21G22
  21815849.0724   -5061379.66049  -3933309.20747                  21815847.1894
        44.0004         35.2504
  23569600.3694   -6399745.05149  -4981378.59847                  23569600.5664
        44.0004         27.0004
  20871563.3164   -9419400.89149  -7318434.48448                  20871561.1424
        50.5004         42.0004
  20118697.6334   -6075656.12149  -4728464.09448                  20118696.2614
        50.7504         42.5004
  22203890.1644   -2181706.41849  -1699470.96147                  22203888.0824
        45.0004         34.0004
  22938232.3784   -9496334.32849  -7381046.04747                  22938230.1764
        43.5004         34.2504
  22499829.5284   -1548077.46149  -1205805.27047                  22499827.3884
        48.5004         32.2504
  20873042.8494   -4593636.35949  -3571363.28948                  20873038.6484
        46.0004         41.5004
 04  6 29 17 55 30.0000000  0  8G 3G 9G14G15G18G19G21G22
  21808835.9094   -5098237.45349  -3962029.57447                  21808834.0404
        47.7504         36.0004
  23560353.9674   -6448338.15249  -5019243.35247                  23560352.9724
        44.0004         28.0004
  20857081.2614   -9495504.21549  -7377735.77348                  20857079.3504
        50.7504         41.2504
  20109543.0494   -6123763.40649  -4765950.29348                  20109541.6354
        50.2504         42.7504
  22200489.0024   -2199580.58249  -1713398.90647                  22200486.3834
        45.0004         33.5004
  22923538.4664   -9573553.25449  -7441216.65247                  22923535.7434
        45.5004         34.0004
  22498002.8394   -1557678.54349  -1213286.65647                  22498000.1394
        48.7504         33.5004
  20865899.1914   -4631176.66049  -3600615.46948                  20865895.1094
        50.0004         41.2504
 04  6 29 17 55 45.0000000  0  8G 3G 9G14G15G18G19G21G22
  21801846.3384   -5134965.64149  -3990648.95747                  21801844.8334
        50.0004         36.0004
  23551134.4894   -6496787.48449  -5056996.07447                  23551133.9314
        43.2504         27.5004
  20842622.6874   -9571486.07449  -7436942.41448                  20842620.3684
        50.0004         41.2504
  20100408.4494   -6171767.77749  -4803356.30148                  20100406.7494
        51.2504         43.0004
  22197091.6434   -2217431.95349  -1727309.08647                  22197089.5444
        45.0004         34.2504
  22908866.5094   -9650654.96549  -7501295.89547                  22908864.1754
        42.5004         33.0004
  22496188.7344   -1567208.38349  -1220712.52347                  22496186.7144
        48.7504         32.5004
  20858764.5384   -4668670.16449  -3629831.18748                  20858760.1504
        51.7504         41.2504
 04  6 29 17 56  0.0000000  0  8G 3G 9G14G15G18G19G21G22
  21794882.4954   -5171562.25849  -4019165.81647                  21794880.4944
        50.0004         35.7504
  23541942.3594   -6545090.80549  -5094635.06247                  23541941.6524
        43.2504         27.0004
  20828187.3994   -9647344.19949  -7496052.62548                  20828185.1174
        50.7504         41.5004
  20091293.3474   -6219666.99649  -4840680.37148                  20091291.9864
        51.0004         42.7504
  22193699.6634   -2235258.46949  -1741199.89547                  22193697.6274
        45.5004         34.0004
  22894216.8574   -9727637.10949  -7561281.98047                  22894214.0724
        45.0004         33.2504
  22494389.6924   -1576664.93049  -1228081.28147                  22494386.8174
        47.7504         32.2504
  20851639.0684   -4706114.96149  -3659008.96148                  20851634.6134
        51.5004         41.2504
 04  6 29 17 56 15.0000000  0  8G 3G 9G14G15G18G19G21G22
  21787942.8614   -5208030.00449  -4047582.25047                  21787941.2354
        50.0004         36.0004
  23532777.5034   -6593250.46149  -5132162.08647                  23532777.0364
        41.5004         26.2504
  20813775.1734   -9723080.87149  -7555068.22348                  20813772.7724
        50.7504         42.0004
  20082198.1774   -6267463.45749  -4877924.35948                  20082196.4354
        50.7504         42.7504
  22190311.4014   -2253062.98449  -1755073.56247                  22190308.9934
        45.7504         33.5004
  22879590.3194   -9804501.96549  -7621176.67647                  22879586.6294
        44.7504         33.0004
  22492603.6764   -1586050.75449  -1235394.93747                  22492600.6594
        48.0004         32.5004
  20844522.2864   -4743513.63349  -3688150.78148                  20844518.2834
        52.2504         41.5004
 04  6 29 17 56 30.0000000  0  8G 3G 9G14G15G18G19G21G22
  21781028.3454   -5244366.93749  -4075896.77047                  21781026.0774
        50.0004         35.5004
  23523641.3574   -6641264.37149  -5169575.53147                  23523640.1034
        42.2504         26.5004
  20799386.0594   -9798693.89849  -7613987.45348                  20799383.8364
        50.5004         42.0004
  20073122.8824   -6315154.82449  -4915086.47348                  20073121.3034
        50.7504         42.2504
  22186928.1744   -2270843.27749  -1768928.36347                  22186925.9954
        46.0004         33.5004
  22864986.2924   -9881247.15649  -7680978.12547                  22864982.7424
        44.2504         34.0004
  22490831.0444   -1595363.79749  -1242651.87147                  22490828.7234
        47.7504         32.0004
  20837414.7754   -4780864.07049  -3717255.01648                  20837410.6994
        52.0004         41.5004
 04  6 29 17 56 45.0000000  0  8G 3G 9G14G15G18G19G21G22
  21774137.9504   -5280575.66449  -4104111.36747                  21774135.6794
        47.7504         35.5004
  23514531.5614   -6689134.84849  -5206877.22746                  23514530.4254
        43.0004         25.0004
  20785020.6074   -9874185.53549  -7672812.10248                  20785018.4394
        50.7504         42.0004
  20064066.8434   -6362743.54349  -4952168.58248                  20064065.2414
        50.2504         42.7504
  22183548.7484   -2288602.00849  -1782766.33647                  22183546.5264
        45.0004         33.5004
  22850404.7764   -9957874.82449  -7740688.00047                  22850401.5884
        46.0004         33.7504
  22489072.6294   -1604606.62149  -1249854.09047                  22489069.3734
        48.5004         31.5004
  20830315.9404   -4818168.94949  -3746323.76248                  20830312.0904
        51.2504         42.0004
 04  6 29 17 57  0.0000000  0  8G 3G 9G14G15G18G19G21G22
  21767272.6394   -5316653.91449  -4132224.31247                  21767270.7414
        48.0004         35.5004
  23505449.2104   -6736859.35549  -5244065.17646                  23505448.0894
        41.7504         22.5004
  20770678.5424   -9949553.33649  -7731540.26248                  20770676.1544
        50.5004         41.2504
  20055031.0714   -6410227.06649  -4989168.74248                  20055029.5624
        51.2504         42.7504
  22180174.1694   -2306336.73449  -1796585.63347                  22180171.7874
        47.0004         33.2504
  22835845.3934  -10034382.46549  -7800304.32847                  22835841.7634
        44.7504         33.2504
  22487327.7594   -1613776.88349  -1256999.77747                  22487324.5084
        47.7504         32.2504
  20823226.1194   -4855426.05149  -3775355.27048                  20823222.3284
        50.2504         41.7504
 04  6 29 17 57 15.0000000  0  8G 3G 9G14G15G18G19G21G22
  21760431.6674   -5352602.26649  -4160236.00847                  21760429.7874
        49.7504         36.2504
  23496395.8474   -6784438.20349  -5281139.62546                  23496394.4534
        41.7504         22.2504
  20756360.0784  -10024797.40649  -7790171.99648                  20756358.2134
        51.0004         41.7504
  20046015.1764   -6457605.52749  -5026087.02048                  20046013.4184
        50.7504         42.2504
  22176803.7594   -2324047.86749  -1810386.52747                  22176801.5074
        46.0004         33.5004
  22821309.7294  -10110770.06249  -7859827.14147                  22821305.6704
        45.5004         33.5004
  22485596.1974   -1622874.90249  -1264089.16447                  22485593.5424
        48.2504         33.2504
  20816145.2304   -4892635.70349  -3804349.81648                  20816141.7694
        51.5004         41.5004
 04  6 29 17 57 30.0000000  0  8G 3G 9G14G15G18G19G21G22
  21753615.6854   -5388419.90649  -4188145.87547                  21753614.3294
        50.0004         36.7504
  23487369.3354   -6831870.30149  -5318099.69946                  23487368.4294
        40.7504         24.0004
  20742065.3244  -10099916.70749  -7848706.50848                  20742063.0074
        51.0004         41.5004
  20037019.4934   -6504877.84049  -5062922.60548                  20037018.0224
        51.0004         42.5004
  22173438.2124   -2341734.62549  -1824168.43047                  22173435.8294
        47.7504         34.5004
  22806796.1984  -10187036.52349  -7919255.55547                  22806792.8524
        46.7504         33.5004
  22483879.0744   -1631899.97349  -1271121.70747                  22483876.0844
        47.5004         32.0004
  20809074.0394   -4929797.10949  -3833306.76248                  20809069.7424
        51.5004         41.5004
 04  6 29 17 57 45.0000000  0  8G 3G 9G14G15G18G19G21G22
  21746824.8434   -5424106.66049  -4215953.75447                  21746823.5304
        50.5004         36.2504
  23478371.6914   -6879155.36349  -5354945.24646                  23478370.5944
        40.7504         23.5004
  20727794.7984  -10174910.83649  -7907143.49248                  20727792.6014
        50.0004         41.0004
  20028044.2344   -6552043.64849  -5099675.19148                  20028042.5714
        50.0004         42.2504
  22170077.2314   -2359396.82049  -1837931.18047                  22170074.7944
        45.2504         34.0004
  22792306.5754  -10263181.30949  -7978589.14147                  22792303.0244
        42.7504         33.5004
  22482175.6034   -1640851.90249  -1278097.26247                  22482172.7824
        49.2504         33.2504
  20802011.1714   -4966910.14849  -3862226.02048                  20802007.5894
        51.5004         41.0004
 04  6 29 17 58  0.0000000  0  8G 3G 9G14G15G18G19G21G22
  21740058.2584   -5459665.35249  -4243661.83247                  21740057.2094
        49.2504         36.0004
  23469400.6794   -6926296.09049  -5391678.26646                  23469399.8254
        40.0004         24.7504
  20713546.7234  -10249782.30949  -7965484.89848                  20713544.8524
        50.7504         40.7504
  20019088.5514   -6599105.51649  -5136346.77348                  20019086.6734
        51.0004         42.2504
  22166720.3264   -2377037.25849  -1851676.99247                  22166718.0054
        47.2504         34.2504
  22777839.4814  -10339206.93449  -8037829.87547                  22777835.5294
        46.0004         33.2504
  22480485.6344   -1649733.48049  -1285017.99247                  22480482.6374
        49.0004         33.5004
  20794957.6424   -5003977.59049  -3891109.74648                  20794953.9144
        52.0004         40.7504
 04  6 29 17 58 15.0000000  0  8G 3G 9G14G15G18G19G21G22
  21733316.3664   -5495095.02049  -4271269.37947                  21733315.0774
        50.0004         36.5004
  23460457.3254   -6973290.96149  -5428297.66846                  23460457.5744
        38.5004         22.5004
  20699322.9834  -10324529.71949  -8023729.63348                  20699321.0804
        51.0004         41.0004
  20010152.8554   -6646062.02049  -5172936.26248                  20010151.3974
        49.0004         42.5004
  22163368.1354   -2394654.68749  -1865404.87147                  22163365.9984
        45.5004         34.7504
  22763394.5844  -10415111.92249  -8096976.62947                  22763391.5954
        45.5004         34.0004
  22478809.1834   -1658543.52749  -1291882.99647                  22478806.1054
        49.2504         32.7504
  20787912.8194   -5040998.24249  -3919957.03148                  20787908.9004
        51.2504         41.0004
 04  6 29 17 58 30.0000000  0  8G 3G 9G14G15G18G19G21G22
  21726598.5374   -5530395.53149  -4298776.29747                  21726597.7804
        48.0004         36.5004
  23451542.3824   -7020139.79749  -5464803.23446                  23451542.0654
        39.0004         22.7504
  20685122.8444  -10399152.86749  -8081877.53148                  20685120.4974
        51.7504         41.2504
  20001237.4054   -6692912.74649  -5209443.33648                  20001235.9094
        50.5004         41.7504
  22160019.9054   -2412249.04749  -1879114.77747                  22160017.9644
        47.7504         34.5004
  22748973.8114  -10490895.85249  -8156029.02747                  22748970.3594
        45.7504         33.0004
  22477146.2244   -1667281.96949  -1298692.20347                  22477143.6944
        48.5004         32.2504
  20780876.9634   -5077972.07449  -3948767.80948                  20780873.3734
        50.2504         41.2504
 04  6 29 17 58 45.0000000  0  8G 3G 9G14G15G18G19G21G22
  21719905.8964   -5565566.58249  -4326182.33647                  21719905.0254
        49.5004         36.7504
  23442655.1934   -7066842.04349  -5501194.58246                  23442653.7384
        39.5004         22.5004
  20670945.8654  -10473651.07049  -8139928.07448                  20670944.1214
        51.2504         41.2504
  19992342.5094   -6739657.17249  -5245867.56248                  19992340.7464
        50.0004         42.0004
  22156676.0934   -2429819.95349  -1892806.40247                  22156674.1044
        46.7504         34.7504
  22734575.8124  -10566557.93749  -8214986.49247                  22734571.8254
        46.0004         33.5004
  22475497.1924   -1675948.54349  -1305445.39147                  22475494.5874
        47.5004         33.0004
  20773850.0404   -5114898.70749  -3977541.80548                  20773846.2464
        51.2504         41.5004
 04  6 29 17 59  0.0000000  0  8G 3G 9G14G15G18G19G21G22
  21713238.0984   -5600607.47349  -4353486.93447                  21713236.9704
        49.5004         36.5004
  23433796.7984   -7113396.69949  -5537470.92246                  23433795.4594
        40.0004         22.5004
  20656793.6644  -10548023.20349  -8197880.39148                  20656791.4724
        51.0004         41.7504
  19983467.7134   -6786294.25049  -5282208.14148                  19983466.1774
        50.5004         42.2504
  22153336.5634   -2447366.41449  -1906478.97347                  22153335.2124
        47.0004         34.0004
  22720201.1674  -10642097.03549  -8273848.14847                  22720197.5854
        46.5004         33.5004
  22473861.6474   -1684542.34849  -1312141.87947                  22473859.0534
        47.5004         32.7504
  20766832.3014   -5151777.23049  -4006278.32848                  20766828.3594
        51.2504         40.7504
 04  6 29 17 59 15.0000000  0  8G 3G 9G14G15G18G19G21G22
  21706594.3784   -5635520.55949  -4380691.95347                  21706593.0434
        50.0004         36.0004
  23424965.1634   -7159805.79749  -5573633.84046                  23424964.9244
        41.0004         24.7504
  20642664.9174  -10622271.28949  -8255736.03948                  20642662.2994
        51.5004         41.5004
  19974613.2124   -6832826.05549  -5318466.68748                  19974611.5194
        50.0004         42.2504
  22150002.2144   -2464890.65249  -1920134.24647                  22150000.6594
        46.5004         34.0004
  22705849.5114  -10717515.22349  -8332615.54747                  22705845.9074
        46.5004         33.7504
  22472239.5974   -1693065.53949  -1318783.36347                  22472237.5964
        48.0004         32.2504
  20759823.2074   -5188609.99649  -4034979.17248                  20759819.4424
        52.0004         41.0004
 04  6 29 17 59 30.0000000  0  8G 3G 9G14G15G18G19G21G22
  21699975.0374   -5670306.53549  -4407797.92647                  21699973.4484
        49.2504         36.5004
  23416161.2484   -7206069.80149  -5609683.74246                  23416160.3614
        41.5004         22.2504
  20628559.3774  -10696395.77749  -8313495.38348                  20628556.8984
        50.2504         41.2504
  19965778.3294   -6879252.91449  -5354643.46948                  19965776.5564
        50.5004         42.7504
  22146671.4904   -2482393.53949  -1933772.87547                  22146669.5534
        46.5004         33.2504
  22691521.0674  -10792812.66849  -8391288.88747                  22691517.1394
        46.7504         34.5004
  22470630.8154   -1701518.94149  -1325370.44147                  22470628.3194
        48.5004         33.0004
  20752823.0254   -5225397.56249  -4063644.82048                  20752818.8374
        52.2504         41.5004
 04  6 29 17 59 45.0000000  0  8G 3G 9G14G15G18G19G21G22
  21693379.3994   -5704964.14549  -4434803.86747                  21693377.9174
        49.5004         35.5004
  23407385.2314   -7252187.17249  -5645619.32846                  23407384.4124
        41.5004         23.0004
  20614477.5934  -10770395.08249  -8371157.17648                  20614475.3474
        49.5004         41.2504
  19956963.8384   -6925573.27749  -5390737.26248                  19956962.2124
        51.0004         42.5004
  22143345.0524   -2499873.62549  -1947393.73847                  22143343.0774
        47.0004         33.7504
  22677215.3464  -10867987.68449  -8449866.82047                  22677211.6394
        43.5004         34.0004
  22469035.8474   -1709901.12149  -1331902.03147                  22469033.1344
        47.7504         32.0004
  20745831.0144   -5262138.66849  -4092274.25048                  20745827.1034
        52.0004         41.2504
 04  6 29 18  0  0.0000000  0  8G 3G 9G14G15G18G19G21G22
  21686808.2084   -5739495.39849  -4461711.35247                  21686806.6434
        49.0004         36.0004
  23398637.3084   -7298159.69949  -5681442.10246                  23398636.3634
        41.5004         22.2504
  20600419.5124  -10844271.02349  -8428722.83648                  20600417.3864
        50.5004         41.5004
  19948169.5174   -6971788.87549  -5426749.41848                  19948167.6334
        51.5004         42.5004
  22140022.9954   -2517332.88349  -1960998.36347                  22140020.7294
        46.7504         33.7504
  22662933.1504  -10943041.86749  -8508350.60947                  22662929.2714
        47.0004         33.7504
  22467454.2584   -1718213.86349  -1338379.52047                  22467451.2614
        48.0004         32.0004
  20738847.9354   -5298835.27749  -4120869.01248                  20738843.9594
        51.7504         40.7504
 04  6 29 18  0 15.0000000  0  8G 3G 9G14G15G18G19G21G22
  21680261.5064   -5773900.48449  -4488520.52047                  21680259.9034
        48.7504         36.0004
  23389916.8174   -7343987.32449  -5717151.95746                  23389915.1554
        42.0004         22.2504
  20586384.9204  -10918023.41449  -8486192.22348                  20586383.1334
        50.2504         42.0004
  19939394.6814   -7017899.59049  -5462679.84848                  19939393.2034
        50.5004         42.7504
  22136704.6294   -2534771.35549  -1974586.78947                  22136702.3824
        48.0004         33.7504
  22648673.8964  -11017975.27749  -8566740.27747                  22648670.7214
        46.7504         33.7504
  22465885.4774   -1726457.36749  -1344803.05147                  22465882.7234
        47.2504         32.0004
  20731873.4584   -5335487.49649  -4149429.18048                  20731869.5814
        51.0004         40.5004
 04  6 29 18  0 30.0000000  0  8G 3G 9G14G15G18G19G21G22
  21673738.3934   -5808179.35549  -4515231.34047                  21673736.7004
        49.7504         36.2504
  23381222.3974   -7389669.78549  -5752748.68446                  23381221.6924
        41.5004         23.0004
  20572373.9094  -10991651.83649  -8543565.02048                  20572371.3464
        50.2504         41.2504
  19930640.3304   -7063904.95349  -5498528.19948                  19930638.5574
        51.7504         43.0004
  22133389.8224   -2552188.74649  -1988158.80947                  22133388.4344
        47.5004         33.7504
  22634436.8834  -11092787.19949  -8625035.28547                  22634434.6874
        46.7504         33.2504
  22464329.9204   -1734631.62949  -1351172.63347                  22464326.8304
        47.0004         31.2504
  20724907.1994   -5372095.14849  -4177954.63748                  20724903.4494
        52.0004         41.0004
 04  6 29 18  0 45.0000000  0  8G 3G 9G14G15G18G19G21G22
  21667239.1074   -5842332.44549  -4541844.15647                  21667237.9924
        50.2504         36.2504
  23372558.2384   -7435207.28549  -5788232.46946                  23372556.7664
        41.7504         23.0004
  20558386.4934  -11065156.48449  -8600841.37148                  20558384.0814
        51.0004         41.7504
  19921905.6254   -7109805.14849  -5534294.59448                  19921904.0604
        52.5004         43.0004
  22130079.3004   -2569585.59449  -2001714.80547                  22130078.1914
        47.5004         33.7504
  22620224.5974  -11167477.74249  -8683235.69947                  22620221.6794
        47.0004         33.7504
  22462787.3974   -1742736.80149  -1357488.37147                  22462784.3984
        47.0004         32.0004
  20717949.0244   -5408658.66849  -4206445.69548                  20717945.7844
        51.5004         41.2504
 04  6 29 18  1  0.0000000  0  8G 3G 9G14G15G18G19G21G22
  21660763.5854   -5876361.46149  -4568360.28147                  21660762.4194
        49.7504         36.0004
  23363920.2704   -7480601.27049  -5823604.45346                  23363918.6854
        42.5004         25.0004
  20544422.3154  -11138538.76649  -8658022.36348                  20544420.0704
        51.2504         41.7504
  19913190.9744   -7155601.61349  -5569980.15648                  19913188.9894
        51.0004         43.0004
  22126772.6754   -2586963.46549  -2015256.02047                  22126771.1084
        47.0004         33.5004
  22606033.8794  -11242048.30149  -8741342.62947                  22606031.1654
        47.0004         34.0004
  22461258.1654   -1750774.61349  -1363751.63347                  22461255.0644
        47.5004         31.0004
  20710999.4854   -5445179.58649  -4234903.56248                  20710996.7314
        51.0004         41.7504
 04  6 29 18  1 15.0000000  0  8G 3G 9G14G15G18G19G21G22
  21654312.1724   -5910265.65249  -4594779.14547                  21654311.0734
        48.7504         36.2504
  23355309.0974   -7525850.73449  -5858863.79746                  23355308.2634
        41.0004         25.5004
  20530481.6314  -11211797.53149  -8715107.11348                  20530479.3664
        50.2504         41.5004
  19904496.2604   -7201293.19149  -5605583.98448                  19904494.4394
        51.0004         42.5004
  22123469.0924   -2604321.34049  -2028781.64847                  22123467.9694
        47.7504         33.2504
  22591866.9024  -11316497.60949  -8799355.08247                  22591864.4574
        45.2504         34.7504
  22459741.7324   -1758744.17249  -1369961.71147                  22459738.5734
        47.7504         31.0004
  20704058.3574   -5481657.11349  -4263327.62548                  20704054.9044
        51.7504         41.7504
 04  6 29 18  1 30.0000000  0  8G 3G 9G14G15G18G19G21G22
  21647884.9114   -5944043.27049  -4621099.38347                  21647882.9014
        50.0004         35.7504
  23346726.5794   -7570953.92249  -5894009.12947                  23346725.9614
        41.7504         26.0004
  20516564.7054  -11284930.86749  -8772094.12148                  20516562.5014
        50.2504         41.2504
  19895821.6444   -7246878.01649  -5641104.62548                  19895819.8294
        51.7504         42.5004
  22120170.2464   -2621657.51649  -2042290.37547                  22120169.1334
        47.2504         32.5004
  22577723.1064  -11390823.70749  -8857271.52747                  22577720.1774
        45.2504         34.0004
  22458238.4884   -1766643.68449  -1376117.20347                  22458235.3104
        47.5004         30.2504
  20697125.4444   -5518089.63749  -4291716.60948                  20697122.0704
        51.0004         41.5004
 04  6 29 18  1 45.0000000  0  8G 3G 9G14G15G18G19G21G22
  21641480.5524   -5977696.35249  -4647322.57047                  21641478.9024
        50.5004         36.5004
  23338171.7614   -7615912.29749  -5929041.65247                  23338170.6664
        44.2504         28.0004
  20502671.2304  -11357940.30549  -8828984.59048                  20502669.4204
        51.2504         42.0004
  19887167.1794   -7292357.68749  -5676543.33248                  19887164.9664
        51.0004         42.5004
  22116875.0494   -2638973.89549  -2055783.67247                  22116873.7874
        47.2504         32.5004
  22563602.3624  -11465028.10249  -8915093.12947                  22563598.9654
        46.2504         34.0004
  22456748.1764   -1774474.93749  -1382219.50847                  22456745.0764
        47.2504         31.0004
  20690200.9004   -5554478.86349  -4320071.86348                  20690197.4074
        52.0004         41.5004
 04  6 29 18  2  0.0000000  0  8G 3G 9G14G15G18G19G21G22
  21934893.6964   -6011219.50849  -4673444.52747                  21934892.5764
        50.5004         36.2504
  23629436.7544   -7660719.72349  -5963956.56247                  23629436.7784
        43.2504         28.5004
  20788595.9254  -11430817.74249  -8885772.19548                  20788593.8234
        50.5004         41.5004
  20178326.1964   -7337725.80949  -5711895.12148                  20178324.7034
        51.7504         42.5004
  22413377.1424   -2656266.04749  -2069258.10247                  22413375.6684
        46.7504         32.7504
  22849299.0484  -11539102.37549  -8972813.32447                  22849295.1494
        47.2504         34.2504
  22755063.7874   -1782234.49649  -1388265.94947                  22755061.5864
        47.0004         30.5004
  20983077.9444   -5590819.32449  -4348389.11348                  20983073.8884
        51.7504         41.2504
 04  6 29 18  2 15.0000000  0  8G 3G 9G14G15G18G19G21G22
  21928538.7774   -6044616.51649  -4699468.18447                  21928536.8814
        49.7504         36.5004
  23620938.2844   -7705381.16049  -5998757.67647                  23620938.1434
        41.5004         27.2504
  20774751.1874  -11503571.74649  -8942463.62948                  20774748.8274
        51.2504         41.5004
  20169713.4684   -7382987.28949  -5747163.82048                  20169711.5144
        51.7504         42.5004
  22410090.9164   -2673535.33649  -2082714.69947                  22410089.0134
        46.5004         32.2504
  22835226.2884  -11613055.12149  -9030438.85247                  22835222.5154
        47.5004         33.0004
  22753601.2814   -1789922.32049  -1394256.48447                  22753598.3444
        47.7504         30.0004
  20976171.2104   -5627114.82049  -4376671.31648                  20976167.0144
        52.0004         41.7504
 04  6 29 18  2 30.0000000  0  8G 3G 9G14G15G18G19G21G22
  21922207.0374   -6077889.27349  -4725395.01647                  21922205.6834
        49.0004         35.7504
  23612467.6204   -7749897.36349  -6033445.63747                  23612466.5784
        43.0004         27.5004
  20760930.2294  -11576201.34849  -8999058.11348                  20760927.7614
        51.0004         41.2504
  20161120.2764   -7428143.01649  -5782350.09848                  20161118.4544
        51.7504         42.2504
  22406808.1444   -2690784.85949  -2096155.89547                  22406806.3314
        46.0004         32.2504
  22821176.6904  -11686885.29349  -9087968.85247                  22821173.1154
        47.0004         33.5004
  22752151.6014   -1797541.98449  -1400193.90647                  22752148.1394
        47.5004         30.5004
  20969272.5564   -5663367.03949  -4404919.81648                  20969268.6814
        52.0004         41.2504
 04  6 29 18  2 45.0000000  0  8G 3G 9G14G15G18G19G21G22
  21915899.3724   -6111037.05549  -4751224.47747                  21915897.6044
        50.0004         36.0004
  23604023.9044   -7794267.46149  -6068019.75447                  23604023.6134
        40.2504         28.0004
  20747133.0624  -11648705.50849  -9055554.86348                  20747130.6164
        51.0004         41.2504
  20152548.4174   -7473191.94949  -5817453.17648                  20152546.2684
        51.7504         42.0004
  22403529.7104   -2708013.57849  -2109580.89547                  22403528.0634
        45.5004         31.7504
  22807151.2304  -11760591.67649  -9145402.38747                  22807147.5544
        45.7504         34.5004
  22750714.3394   -1805092.87149  -1406077.74247                  22750711.1594
        47.0004         30.5004
  20962382.5464   -5699575.16449  -4433133.93048                  20962378.3824
        51.7504         41.0004
 04  6 29 18  3  0.0000000  0  8G 3G 9G14G15G18G19G21G22
  21909615.1214   -6144059.55949  -4776956.31247                  21909613.5974
        49.2504         36.0004
  23595608.7564   -7838490.75449  -6102479.47347                  23595607.6584
        38.7504         28.0004
  20733360.0204  -11721083.59049  -9111953.36748                  20733357.8004
        49.5004         41.5004
  20143995.8974   -7518133.38349  -5852472.47748                  20143994.1784
        49.7504         42.5004
  22400255.8134   -2725221.22349  -2122989.46147                  22400253.0964
        45.0004         33.0004
  22793148.7824  -11834173.62149  -9202738.96947                  22793145.1404
        44.5004         33.5004
  22749290.9074   -1812574.39149  -1411907.52047                  22749287.5294
        47.0004         30.2504
  20955500.6284   -5735738.80549  -4461313.39848                  20955496.7204
        50.7504         41.0004
 04  6 29 18  3 15.0000000  0  8G 3G 9G14G15G18G19G21G22
  21903355.4594   -6176955.56649  -4802589.57047                  21903353.9344
        49.0004         36.5004
  23587221.8374   -7882565.98849  -6136823.81647                  23587221.0314
        42.7504         27.5004
  20719611.1534  -11793334.05149  -9168252.42248                  20719608.7934
        50.2504         41.0004
  20135464.6124   -7562965.84449  -5887406.86748                  20135462.6354
        51.5004         43.0004
  22396985.1084   -2742406.49249  -2136380.59447                  22396983.2064
        43.7504         32.2504
  22779170.3564  -11907629.39549  -9259977.23447                  22779167.3634
        43.5004         33.7504
  22747880.2334   -1819985.37149  -1417682.34047                  22747877.0014
        46.5004         30.5004
  20948627.4864   -5771856.73049  -4489457.23048                  20948623.5944
        51.0004         41.0004
 04  6 29 18  3 30.0000000  0  8G 3G 9G14G15G18G19G21G22
  21897119.5854   -6209724.40649  -4828123.77047                  21897118.7824
        49.0004         36.7504
  23578863.1984   -7926492.23449  -6171052.07447                  23578861.8904
        44.0004         28.7504
  20705887.0024  -11865456.01249  -9224451.34848                  20705884.5234
        50.7504         41.0004
  20126954.1524   -7607688.38349  -5922255.59848                  20126952.3874
        51.2504         43.0004
  22393719.2834   -2759568.38349  -2149753.51647                  22393716.9664
        43.7504         32.5004
  22765216.9694  -11980958.05949  -9317116.44147                  22765213.3504
        46.2504         34.0004
  22746483.9004   -1827325.12149  -1423401.64547                  22746480.4784
        47.2504         30.0004
  20941763.7164   -5807928.12149  -4517564.80948                  20941759.3194
        51.2504         41.2504
 04  6 29 18  3 45.0000000  0  8G 3G 9G14G15G18G19G21G22
  21890907.5534   -6242368.79749  -4853560.96147                  21890906.5134
        49.2504         36.5004
  23570532.0794   -7970272.02349  -6205166.20747                  23570531.2284
        44.7504         30.0004
  20692186.6694  -11937451.82849  -9280551.99248                  20692184.2274
        50.5004         41.5004
  20118464.1784   -7652303.44149  -5957020.57848                  20118462.3434
        50.7504         42.7504
  22390457.4164   -2776709.74249  -2163110.42247                  22390455.5184
        45.2504         32.5004
  22751286.9954  -12054161.98049  -9374158.45747                  22751283.5174
        46.7504         34.0004
  22745099.8424   -1834596.32049  -1429067.54347                  22745096.8654
        47.2504         31.2504
  20934907.6684   -5843955.62149  -4545638.19548                  20934903.5534
        52.2504         41.0004
 04  6 29 18  4  0.0000000  0  8G 3G 9G14G15G18G19G21G22
  21884718.9264   -6274889.78949  -4878902.01247                  21884718.0204
        49.5004         36.5004
  23562228.0674   -8013906.06649  -6239166.77347                  23562228.1604
        43.0004         27.5004
  20678509.8814  -12009322.33249  -9336554.96548                  20678507.2074
        50.2504         41.2504
  20109994.2074   -7696811.70349  -5991702.34048                  20109992.9864
        51.0004         42.0004
  22387199.4084   -2793831.39549  -2176451.97747                  22387197.3704
        45.2504         32.5004
  22737380.1314  -12127241.70749  -9431103.71547                  22737376.0764
        47.0004         34.0004
  22743729.4574   -1841799.67649  -1434680.57447                  22743726.5164
        46.0004         31.2504
  20928060.1914   -5879940.19549  -4573678.12548                  20928056.0934
        51.2504         40.7504
 04  6 29 18  4 15.0000000  0  8G 3G 9G14G15G18G19G21G22
  21878554.4334   -6307285.34049  -4904145.32047                  21878553.2594
        49.0004         36.7504
  23553953.2474   -8057392.07049  -6273051.98447                  23553952.9604
        41.0004         28.0004
  20664857.7954  -12081065.11349  -9392458.43748                  20664855.1274
        50.2504         41.5004
  20101545.5544   -7741210.69149  -6026298.95748                  20101544.0994
        51.0004         42.2504
  22383945.2184   -2810931.18449  -2189776.48447                  22383943.3344
        45.5004         31.2504
  22723497.0254  -12200194.84449  -9487950.31247                  22723493.8184
        47.0004         33.7504
  22742371.3414   -1848933.09849  -1440239.10247                  22742369.2664
        46.7504         29.2504
  20921220.9994   -5915879.76249  -4601682.98848                  20921216.6114
        51.5004         40.5004
 04  6 29 18  4 30.0000000  0  8G 3G 9G14G15G18G19G21G22
  21872413.6864   -6339555.38749  -4929290.81647                  21872412.7134
        49.5004         37.0004
  23545706.8524   -8100729.78549  -6306821.64547                  23545705.4964
        42.7504         27.5004
  20651229.8684  -12152679.77049  -9448262.06248                  20651227.5764
        50.7504         41.0004
  20093117.8224   -7785500.08649  -6060810.18048                  20093116.0744
        51.0004         42.5004
  22380695.6194   -2828008.75049  -2203083.69947                  22380694.0094
        46.2504         32.0004
  22709639.0484  -12273020.88749  -9544697.86747                  22709635.9754
        46.5004         33.7504
  22741027.4024   -1855996.43749  -1445743.03547                  22741025.3074
        47.0004         30.5004
  20914390.7094   -5951774.12549  -4629652.62548                  20914386.2184
        51.0004         41.2504
 04  6 29 18  4 45.0000000  0  8G 3G 9G14G15G18G19G21G22
  21866297.3714   -6371699.12149  -4954337.90647                  21866296.1694
        50.5004         37.5004
  23537487.8214   -8143918.16049  -6340474.92647                  23537487.0054
        43.5004         26.7504
  20637626.7904  -12224165.18449  -9503964.98048                  20637624.3294
        51.0004         41.5004
  20084710.9544   -7829678.77049  -6095235.13748                  20084708.9134
        51.5004         42.7504
  22377450.2834   -2845063.36749  -2216373.03147                  22377448.5144
        46.7504         32.2504
  22695804.8724  -12345718.69549  -9601345.50047                  22695801.9044
        46.5004         33.5004
  22739697.1184   -1862988.81249  -1451191.66847                  22739694.9234
        47.2504         31.5004
  20907569.2034   -5987622.30149  -4657586.27748                  20907564.7264
        52.0004         41.7504
 04  6 29 18  5  0.0000000  0  8G 3G 9G14G15G18G19G21G22
  21860204.5044   -6403716.12149  -4979286.23447                  21860203.0424
        50.0004         37.5004
  23529297.7164   -8186956.42249  -6374011.27047                  23529297.5124
        40.5004         27.2504
  20624048.3524  -12295520.56649  -9559566.57448                  20624046.0724
        50.5004         42.0004
  20076324.9174   -7873745.98849  -6129573.24248                  20076323.2924
        51.0004         42.5004
  22374209.1444   -2862094.32449  -2229643.89847                  22374207.4674
        46.5004         32.5004
  22681995.7334  -12418287.31649  -9657892.46947                  22681992.1724
        47.2504         34.0004
  22738380.1734   -1869910.00049  -1456584.81647                  22738378.1094
        46.0004         30.2504
  20900756.3054   -6023423.67649  -4685483.44948                  20900752.1254
        51.2504         41.2504
 04  6 29 18  5 15.0000000  0  8G 3G 9G14G15G18G19G21G22
  21854135.7904   -6435607.60949  -5004136.76647                  21854134.5544
        50.5004         37.0004
  23521136.1104   -8229845.60949  -6407431.42247                  23521135.8664
        40.5004         25.7504
  20610494.5994  -12366746.88349  -9615067.60248                  20610492.4644
        50.5004         41.5004
  20067960.5504   -7917702.65249  -6163825.19548                  20067958.7674
        51.5004         42.5004
  22370972.6784   -2879102.77049  -2242897.24647                  22370971.3904
        46.0004         31.5004
  22668210.8134  -12490727.64849  -9714339.48447                  22668207.9354
        45.2504         34.5004
  22737076.0254   -1876760.63749  -1461923.00847                  22737074.8684
        45.5004         29.5004
  20893952.1504   -6059179.57049  -4713345.19548                  20893948.1674
        51.5004         42.0004
 04  6 29 18  5 30.0000000  0  8G 3G 9G14G15G18G19G21G22
  21848091.1474   -6467372.22749  -5028888.42647                  21848089.9874
        49.5004         37.0004
  23513003.8224   -8272584.19149  -6440734.24647                  23513002.7824
        43.2504         27.0004
  20596965.1994  -12437842.55149  -9670466.80948                  20596963.0794
        50.5004         41.0004
  20059617.3714   -7961547.21949  -6197989.80548                  20059615.6704
        52.0004         42.5004
  22367740.7334   -2896087.27749  -2256131.95747                  22367739.3094
        46.0004         31.2504
  22654450.3794  -12563038.04349  -9770685.24247                  22654447.6154
        46.7504         34.2504
  22735786.2774   -1883539.50849  -1467205.27047                  22735784.4034
        44.7504         30.2504
  20887156.8374   -6094888.44949  -4741170.30948                  20887153.0914
        51.7504         41.7504
 04  6 29 18  5 45.0000000  0  8G 3G 9G14G15G18G19G21G22
  21842071.0824   -6499008.29749  -5053539.91847                  21842069.5894
        50.2504         37.2504
  23504900.2444   -8315170.17649  -6473918.16047                  23504899.1624
        44.2504         27.7504
  20583461.4694  -12508805.53949  -9725762.64848                  20583459.2334
        51.0004         41.2504
  20051295.4334   -8005277.59449  -6232065.42648                  20051293.9964
        52.0004         42.0004
  22364513.1904   -2913046.07049  -2269346.62947                  22364512.5394
        44.2504         32.0004
  22640715.5214  -12635216.25049  -9826928.00447                  22640712.4664
        47.2504         34.5004
  22734510.6664   -1890244.83249  -1472430.22747                  22734508.4624
        47.0004         30.0004
  20880371.3114   -6130548.54349  -4768957.40648                  20880367.2214
        52.0004         42.0004
 04  6 29 18  6  0.0000000  0  8G 3G 9G14G15G18G19G21G22
  21836074.9864   -6530516.84449  -5078092.03947                  21836073.9844
        50.0004         37.0004
  23496824.3874   -8357604.52349  -6506983.89847                  23496823.6324
        43.0004         27.0004
  20569982.6634  -12579636.60949  -9780955.68448                  20569980.4814
        51.2504         41.2504
  20042995.4414   -8048894.53949  -6266052.66048                  20042994.2794
        52.2504         43.0004
  22361290.9864   -2929980.01249  -2282541.92647                  22361289.2494
        45.2504         31.5004
  22627005.8694  -12707262.96149  -9883068.30147                  22627002.7494
        47.7504         34.7504
  22733248.4314   -1896877.53949  -1477598.59447                  22733246.3774
        44.2504         30.5004
  20873594.2504   -6166160.80549  -4796707.21548                  20873590.4854
        51.5004         41.7504
 04  6 29 18  6 15.0000000  0  8G 3G 9G14G15G18G19G21G22
  21830103.4194   -6561898.86349  -5102545.58247                  21830102.2024
        48.2504         37.0004
  23488778.6434   -8399887.87149  -6539931.94947                  23488777.9774
        41.7504         28.0004
  20556529.0794  -12650336.27349  -9836046.33248                  20556526.5534
        51.0004         41.0004
  20034716.9754   -8092398.60249  -6299951.92248                  20034715.3274
        52.0004         43.0004
  22358073.1994   -2946889.90649  -2295718.49247                  22358071.6744
        43.0004         31.7504
  22613321.0894  -12779178.69549  -9939106.52347                  22613317.7474
        48.2504         35.5004
  22731999.9674   -1903438.48849  -1482711.05947                  22731997.8494
        46.2504         31.0004
  20866826.3874   -6201725.93049  -4824420.30548                  20866822.3474
        51.2504         41.0004
 04  6 29 18  6 30.0000000  0  8G 3G 9G14G15G18G19G21G22
  21824155.7874   -6593153.80949  -5126900.09847                  21824154.5704
        49.2504         37.0004
  23480761.5984   -8442019.43449  -6572761.73847                  23480760.2064
        43.2504         28.5004
  20543100.2354  -12720903.78549  -9891033.99648                  20543098.0324
        50.5004         41.7504
  20026460.0894   -8135788.90249  -6333762.54748                  20026458.6464
        51.5004         43.2504
  22354860.4494   -2963775.00049  -2308875.72747                  22354858.5394
        45.5004         32.5004
  22599660.8184  -12850962.45749  -9995041.93047                  22599657.4064
        48.0004         35.5004
  22730765.1874   -1909926.96549  -1487767.02747                  22730763.5784
        44.7504         30.5004
  20860067.5904   -6237243.32849  -4852096.19948                  20860063.3404
        51.2504         40.5004
 04  6 29 18  6 45.0000000  0  8G 3G 9G14G15G18G19G21G22
  21818232.0084   -6624283.84449  -5151157.28147                  21818230.9024
        49.5004         37.5004
  23472772.2834   -8484001.02049  -6605474.70747                  23472771.8044
        42.5004         27.7504
  20529696.8454  -12791341.05149  -9945920.17648                  20529694.3074
        50.5004         42.0004
  20018224.5244   -8179067.36749  -6367486.03948                  20018222.8164
        51.2504         42.7504
  22351651.4534   -2980637.28549  -2322015.16847                  22351649.3694
        44.0004         32.2504
  22586025.4784  -12922616.23049 -10050876.03947                  22586022.3194
        47.7504         35.2504
  22729544.0984   -1916345.26149  -1492768.30547                  22729542.1994
        43.7504         30.5004
  20853317.5294   -6272715.13349  -4879736.57048                  20853313.5344
        51.0004         40.7504
 04  6 29 18  7  0.0000000  0  8G 3G 9G14G15G18G19G21G22
  21812331.8254   -6655288.42249  -5175316.70747                  21812330.6234
        50.0004         37.5004
  23464811.9114   -8525832.07049  -6638070.33247                  23464811.5874
        41.5004         29.2504
  20516318.1174  -12861647.18049 -10000704.16848                  20516315.3424
        50.7504         41.0004
  20010010.3944   -8222233.10549  -6401121.68048                  20010008.9444
        52.0004         43.0004
  22348447.3544   -2997476.19949  -2335136.40647                  22348444.6934
        44.5004         31.5004
  22572415.1914  -12994138.97749 -10106608.04747                  22572411.3014
        48.0004         35.0004
  22728336.3004   -1922692.45349  -1497714.23047                  22728334.3084
        45.5004         30.2504
  20846576.2444   -6308140.60949  -4907340.84848                  20846572.3714
        51.2504         40.5004
 04  6 29 18  7 15.0000000  0  8G 3G 9G14G15G18G19G21G22
  21806456.0034   -6686165.84049  -5199377.04747                  21806455.0024
        49.5004         36.5004
  23456880.7794   -8567510.74249  -6670547.21147                  23456880.7084
        41.7504         28.0004
  20502964.6094  -12931820.26649 -10055384.50448                  20502961.8454
        50.7504         41.2504
  20001817.8804   -8265284.22349  -6434668.00848                  20001816.8184
        51.5004         43.0004
  22345247.4624   -3014289.93449  -2348238.03147                  22345245.6284
        46.5004         31.5004
  22558830.0194  -13065528.68749 -10162236.39147                  22558826.6654
        48.2504         35.0004
  22727141.7524   -1928967.04749  -1502603.54747                  22727140.0624
        44.0004         30.5004
  20839844.3744   -6343518.04349  -4934907.68448                  20839839.9474
        50.7504         40.5004
 04  6 29 18  7 30.0000000  0  8G 3G 9G14G15G18G19G21G22
  21800604.4994   -6716917.64149  -5223339.50447                  21800603.1164
        50.2504         37.0004
  23448978.3234   -8609038.12549  -6702906.21947                  23448977.7924
        43.5004         27.0004
  20489636.2074  -13001861.60949 -10109962.16048                  20489633.6174
        51.0004         41.2504
  19993647.1294   -8308221.92249  -6468125.95348                  19993645.7004
        52.0004         42.5004
  22342052.4914   -3031079.73849  -2361321.00847                  22342050.3794
        46.5004         31.7504
  22545269.9594  -13136786.48849 -10217761.94547                  22545266.3374
        48.0004         35.5004
  22725961.8244   -1935170.36349  -1507437.33247                  22725959.5194
        46.0004         30.7504
  20833120.8474   -6378848.83649  -4962438.17648                  20833116.8024
        51.2504         40.5004
 04  6 29 18  7 45.0000000  0  8G 3G 9G14G15G18G19G21G22
  21794776.0004   -6747544.39149  -5247204.52047                  21794775.3114
        50.2504         37.0004
  23441104.2934   -8650414.49249  -6735147.56647                  23441104.5664
        43.0004         28.0004
  20476332.8884  -13071771.27049 -10164437.21948                  20476330.2654
        51.5004         41.2504
  19985497.9684   -8351046.28949  -6501495.59848                  19985496.1994
        51.7504         42.7504
  22338862.2804   -3047846.13349  -2374385.75847                  22338860.0424
        47.0004         31.7504
  22531735.1494  -13207912.44549 -10273184.75847                  22531731.6224
        48.0004         34.5004
  22724794.9774   -1941302.80949  -1512215.87547                  22724792.7454
        45.7504         29.5004
  20826406.7004   -6414133.40649  -4989932.64548                  20826402.7344
        52.5004         41.0004
 04  6 29 18  8  0.0000000  0  8G 3G 9G14G15G18G19G21G22
  21788972.0384   -6778046.51249  -5270972.42647                  21788970.7964
        50.2504         37.0004
  23433258.7654   -8691640.11349  -6767271.43747                  23433259.3864
        43.0004         28.0004
  20463054.5614  -13141549.30149 -10218809.71148                  20463051.8844
        52.0004         41.5004
  19977370.0024   -8393757.48049  -6534777.05548                  19977368.6614
        52.0004         42.0004
  22335676.4454   -3064589.34849  -2387432.43447                  22335674.1204
        47.5004         32.7504
  22518225.3204  -13278906.53549 -10328504.84847                  22518221.8564
        48.5004         34.5004
  22723641.1364   -1947364.60549  -1516939.39147                  22723639.3254
        46.0004         30.2504
  20819701.1814   -6449371.96149  -5017391.27048                  20819697.1944
        51.5004         41.5004
 04  6 29 18  8 15.0000000  0  8G 3G 9G14G15G18G19G21G22
  21783191.3354   -6808421.16449  -5294640.99647                  21783190.8974
        49.7504         36.5004
  23425444.4654   -8732712.00849  -6799275.52747                  23425444.0264
        44.5004         30.0004
  20449801.6904  -13211192.78549 -10273077.35948                  20449799.0524
        50.5004         41.5004
  19969264.7344   -8436352.41449  -6567967.92248                  19969263.3454
        51.5004         42.5004
  22332495.0754   -3081306.41049  -2400458.71947                  22332492.9244
        47.7504         32.0004
  22504741.4404  -13349765.59449 -10383719.68447                  22504737.6874
        46.5004         34.0004
  22722501.4574   -1953353.02049  -1521605.72347                  22722499.8744
        45.0004         30.0004
  20813004.8484   -6484561.57449  -5044811.73848                  20813000.5264
        52.0004         41.5004
 04  6 29 18  8 30.0000000  0  8G 3G 9G14G15G18G19G21G22
  21777435.8824   -6838669.68449  -5318211.30147                  21777434.7794
        50.0004         37.5004
  23417658.1444   -8773631.22749  -6831160.63747                  23417656.9404
        45.2504         29.2504
  20436574.7164  -13280702.69949 -10327240.92648                  20436572.0314
        51.5004         41.0004
  19961181.2124   -8478832.08249  -6601068.97748                  19961179.6534
        52.2504         42.5004
  22329319.0654   -3097998.50049  -2413465.54347                  22329316.1954
        48.0004         32.0004
  22491283.2774  -13420490.56649 -10438830.06647                  22491279.8734
        47.5004         35.0004
  22721375.6074   -1959269.32449  -1526215.85947                  22721374.2424
        45.2504         29.7504
  20806317.0504   -6519703.54749  -5072195.09848                  20806313.3794
        52.0004         42.0004
 04  6 29 18  8 45.0000000  0  8G 3G 9G14G15G18G19G21G22
  21771703.7744   -6868792.41049  -5341683.57047                  21771702.2484
        50.2504         37.0004
  23409900.0764   -8814397.81249  -6862926.78947                  23409899.2324
        44.7504         29.0004
  20423372.4214  -13350078.80149 -10381300.22748                  20423369.8514
        49.7504         41.2504
  19953119.2774   -8521196.27749  -6634080.03948                  19953117.9194
        52.0004         42.2504
  22326147.0744   -3114665.75049  -2426453.02047                  22326144.7854
        48.0004         32.0004
  22477850.2244  -13491081.27749 -10493835.80547                  22477846.9364
        45.0004         35.2504
  22720263.6304   -1965113.66049  -1530769.91847                  22720261.9404
        44.0004         29.2504
  20799639.0784   -6554797.96949  -5099541.41048                  20799635.2154
        52.0004         41.5004
 04  6 29 18  9  0.0000000  0  8G 3G 9G14G15G18G19G21G22
  21765994.8024   -6898791.65649  -5365059.60547                  21765993.4534
        50.0004         35.7504
  23402170.6074   -8855013.83649  -6894575.66447                  23402170.4674
        45.2504         28.5004
  20410195.8294  -13419323.25849 -10435256.94548                  20410193.0994
        50.2504         41.5004
  19945079.1994   -8563447.01249  -6667002.69548                  19945078.0534
        52.5004         42.5004
  22322979.8494   -3131310.27349  -2439422.79747                  22322977.2544
        47.7504         31.7504
  22464442.6424  -13561539.63749 -10548738.43447                  22464438.8484
        45.0004         35.5004
  22719165.1224   -1970888.14549  -1535269.55147                  22719163.2024
        45.0004         29.2504
  20792969.7064   -6589847.03949  -5126852.38748                  20792965.6594
        52.0004         41.5004
 04  6 29 18  9 15.0000000  0  8G 3G 9G14G15G18G19G21G22
  21760310.1314   -6928666.26249  -5388338.53947                  21760308.0974
        49.5004         36.2504
  23394470.4114   -8895477.96949  -6926106.18747                  23394470.7134
        45.2504         29.0004
  20397044.5394  -13488434.59449 -10489109.92248                  20397041.2984
        51.0004         41.2504
  19937061.1654   -8605582.85549  -6699835.82448                  19937059.7194
        52.0004         43.0004
  22319817.0894   -3147930.66849  -2452373.76647                  22319814.5244
        48.5004         32.2504
  22451060.3944  -13631864.01249 -10603536.64147                  22451056.1634
        48.0004         34.5004
  22718079.6194   -1976591.44549  -1539713.69547                  22718078.1874
        44.0004         30.0004
  20786308.5514   -6624849.39849  -5154126.96148                  20786304.9104
        51.7504         41.5004
 04  6 29 18  9 30.0000000  0  8G 3G 9G14G15G18G19G21G22
  21754648.3324   -6958416.21149  -5411520.34047                  21754647.1034
        49.5004         36.0004
  23386800.3024   -8935790.06649  -6957518.21547                  23386798.5744
        45.2504         29.0004
  20383918.0334  -13557412.64549 -10542859.04348                  20383915.1294
        51.2504         41.7504
  19929064.8414   -8647603.58649  -6732579.26648                  19929063.3814
        52.0004         43.0004
  22316659.2214   -3164527.03549  -2465306.00047                  22316656.6554
        48.7504         32.2504
  22437703.0844  -13702054.22749 -10658230.32047                  22437699.3964
        48.0004         34.5004
  22717007.8034   -1982223.60549  -1544102.42247                  22717006.0614
        45.5004         29.7504
  20779656.7044   -6659805.14849  -5181365.21148                  20779653.4224
        51.0004         41.2504
 04  6 29 18  9 45.0000000  0  8G 3G 9G14G15G18G19G21G22
  21749011.1794   -6988041.98849  -5434605.37547                  21749009.6294
        50.2504         37.2504
  23379158.1164   -8975950.36549  -6988811.93047                  23379156.8094
        45.7504         29.2504
  20370817.4594  -13626257.44149 -10596504.34048                  20370814.8764
        51.2504         42.0004
  19921090.2644   -8689509.27349  -6765233.04348                  19921089.2684
        51.7504         42.2504
  22313505.1844   -3181099.54349  -2478219.65247                  22313502.6704
        48.7504         33.0004
  22424372.3514  -13772110.23449 -10712819.42247                  22424368.1524
        48.7504         34.7504
  22715949.4324   -1987785.01649  -1548436.01647                  22715947.9474
        44.7504         30.0004
  20773013.6414   -6694714.38349  -5208567.21548                  20773010.6684
        50.7504         42.0004
 04  6 29 18 10  0.0000000  0  8G 3G 9G14G15G18G19G21G22
  22043189.7824   -7017542.94149  -5457593.14547                  22043188.7824
        50.2504         36.7504
  23671337.3084   -9015957.14549  -7019986.08247                  23671336.1424
        45.2504         29.0004
  20657535.1984  -13694965.49649 -10650043.08248                  20657532.6174
        50.7504         41.0004
  20212930.7874   -8731298.13349  -6797795.78148                  20212929.6534
        52.5004         42.5004
  22610149.0404   -3197648.22349  -2491114.75447                  22610146.2594
        49.0004         33.5004
  22710859.5354  -13842028.32449 -10767301.05147                  22710855.4784
        48.2504         34.2504
  23014696.7334   -1993276.54349  -1552715.15647                  23014695.0844
        44.2504         28.7504
  21066172.3984   -6729576.10249  -5235732.19548                  21066168.5844
        50.7504         41.5004
 04  6 29 18 10 15.0000000  0  8G 3G 9G14G15G18G19G21G22
  22037599.2524   -7046921.92649  -5480485.87947                  22037598.5134
        50.0004         36.5004
  23663752.5934   -9055814.50049  -7051043.77747                  23663751.3744
        46.2504         28.0004
  20644484.9944  -13763544.63349 -10703481.36748                  20644482.5654
        50.7504         41.5004
  20205000.1394   -8772974.39849  -6830270.78948                  20204998.6614
        51.7504         43.0004
  22607004.0984   -3214174.25449  -2503992.19147                  22607001.4634
        48.5004         33.0004
  22697579.1594  -13911816.32449 -10821681.31247                  22697575.7374
        47.5004         34.7504
  23013665.5954   -1998697.56649  -1556939.34847                  23013663.3854
        44.7504         29.5004
  21059546.7824   -6764393.68049  -5262862.78948                  21059542.9274
        51.0004         41.0004
 04  6 29 18 10 30.0000000  0  8G 3G 9G14G15G18G19G21G22
  22032031.7834   -7076179.50449  -5503283.99647                  22032030.6884
        50.5004         36.5004
  23656196.5164   -9095522.09449  -7081984.78947                  23656195.1904
        44.7504         28.5004
  20631459.6074  -13831992.52349 -10756817.38348                  20631457.1924
        51.0004         41.7504
  20197090.8314   -8814537.55149  -6862657.67248                  20197089.4514
        51.7504         42.7504
  22603863.3334   -3230678.77049  -2516852.87547                  22603861.3534
        49.0004         33.2504
  22684324.6484  -13981471.77049 -10875958.28147                  22684320.1494
        48.5004         34.7504
  23012647.3674   -2004050.29749  -1561110.34047                  23012644.5704
        44.0004         28.5004
  21052929.2074   -6799167.32049  -5289959.14548                  21052925.8934
        50.5004         40.2504
 04  6 29 18 10 45.0000000  0  8G 3G 9G14G15G18G19G21G22
  22026487.6604   -7105314.51249  -5525986.62147                  22026486.6384
        50.7504         36.0004
  23648669.3664   -9135078.52749  -7112807.98047                  23648667.6744
        45.7504         29.2504
  20618460.0524  -13900307.50849 -10810049.83648                  20618457.7604
        51.5004         41.2504
  20189203.6454   -8855986.00449  -6894955.16848                  20189202.3544
        52.5004         43.0004
  22600726.9224   -3247160.37149  -2529695.68747                  22600724.4464
        48.2504         31.5004
  22671094.8734  -14050992.98849 -10930130.67647                  22671091.2744
        48.5004         34.2504
  23011641.9594   -2009333.40249  -1565227.07047                  23011638.8514
        44.2504         29.7504
  21046321.0884   -6833895.57849  -5317020.13348                  21046317.5024
        51.0004         40.5004
 04  6 29 18 11  0.0000000  0  8G 3G 9G14G15G18G19G21G22
  22020966.6484   -7134328.25449  -5548594.75447                  22020965.3184
        50.2504         36.5004
  23641170.5694   -9174484.87149  -7143514.20347                  23641168.8984
        45.2504         28.2504
  20605485.3764  -13968490.65249 -10863179.55148                  20605482.6104
        51.5004         41.5004
  20181338.0514   -8897320.71549  -6927164.04348                  20181336.7134
        51.7504         43.2504
  22597594.7324   -3263620.28949  -2542521.60247                  22597592.1164
        48.0004         31.7504
  22657890.6114  -14120381.04349 -10984199.28947                  22657887.6824
        48.2504         34.0004
  23010649.6074   -2014548.00049  -1569290.41847                  23010647.4004
        45.2504         29.2504
  21039720.7204   -6868579.55149  -5344046.61748                  21039717.3274
        51.0004         40.5004
 04  6 29 18 11 15.0000000  0  8G 3G 9G14G15G18G19G21G22
  22015468.2564   -7163221.85249  -5571109.25847                  22015466.8884
        50.2504         36.7504
  23633700.0404   -9213742.05949  -7174104.23447                  23633698.1474
        44.2504         28.2504
  20592535.1664  -14036542.73449 -10916207.14148                  20592532.6354
        51.2504         42.0004
  20173493.7884   -8938542.45749  -6959284.89148                  20173492.1594
        51.5004         42.7504
  22594466.1224   -3280059.30149  -2555331.23847                  22594463.6304
        47.7504         31.2504
  22644711.9214  -14189636.49649 -11038164.57847                  22644709.1314
        48.2504         35.5004
  23009670.1644   -2019695.10949  -1573301.20347                  23009667.7464
        44.0004         29.2504
  21033128.9824   -6903220.38749  -5371039.47748                  21033125.1864
        51.5004         41.2504
 04  6 29 18 11 30.0000000  0  8G 3G 9G14G15G18G19G21G22
  22009992.7044   -7191993.83649  -5593529.00447                  22009992.1254
        50.0004         36.7504
  23626258.1444   -9252848.43049  -7204576.73447                  23626256.3934
        45.0004         27.2504
  20579610.8964  -14104462.09049 -10969131.30948                  20579607.9844
        49.5004         42.0004
  20165671.0744   -8979649.50849  -6991316.37548                  20165669.8004
        52.0004         42.7504
  22591342.4944   -3296475.70749  -2568123.27047                  22591339.7184
        47.2504         31.2504
  22631558.4694  -14258757.50449 -11092025.09047                  22631555.3884
        46.0004         35.2504
  23008703.9424   -2024773.41449  -1577258.37147                  23008701.5114
        45.7504         28.5004
  21026545.6034   -6937816.46549  -5397997.46148                  21026541.6964
        51.2504         41.0004
 04  6 29 18 11 45.0000000  0  8G 3G 9G14G15G18G19G21G22
  22004540.8944   -7220645.16849  -5615854.73847                  22004539.4064
        50.0004         37.0004
  23618844.5824   -9291804.75049  -7234932.31647                  23618842.5794
        41.7504         26.0004
  20566711.1494  -14172249.39549 -11021952.58648                  20566708.7434
        50.0004         42.0004
  20157870.5344   -9020642.58649  -7023259.03548                  20157869.0384
        52.0004         42.7504
  22588222.6494   -3312870.52049  -2580898.46147                  22588220.0284
        48.0004         32.0004
  22618431.3124  -14327744.70349 -11145781.35947                  22618427.1434
        44.7504         35.0004
  23007750.9024   -2029783.65649  -1581162.48047                  23007747.7854
        43.7504         28.2504
  21019970.5374   -6972368.55549  -5424921.16448                  21019966.4284
        51.2504         40.7504
 04  6 29 18 12  0.0000000  0  8G 3G 9G14G15G18G19G21G22
  21999111.8854   -7249175.13749  -5638085.89547                  21999111.0804
        50.2504         37.0004
  23611460.4374   -9330609.98849  -7265170.14847                  23611458.9784
        42.2504         26.7504
  20553837.1424  -14239903.63349 -11074670.16448                  20553834.5764
        50.7504         42.0004
  20150091.5954   -9061520.53149  -7055111.98448                  20150090.2934
        52.2504         42.5004
  22585106.8814   -3329242.93449  -2593656.18747                  22585104.4354
        48.0004         32.0004
  22605328.6164  -14396596.91449 -11199432.42647                  22605325.0064
        47.5004         35.0004
  23006810.3804   -2034724.90249  -1585012.82847                  23006807.6304
        44.5004         29.0004
  21013403.8564   -7006875.80149  -5451809.92648                  21013399.8794
        50.7504         41.0004
 04  6 29 18 12 15.0000000  0  8G 3G 9G14G15G18G19G21G22
  21993705.6924   -7277584.44549  -5660223.04347                  21993704.9124
        50.0004         36.5004
  23604105.5274   -9369264.63749  -7295290.65647                  23604103.9274
        43.7504         26.5004
  20540987.9264  -14307425.12149 -11127284.30548                  20540985.4964
        50.0004         42.0004
  20142334.8964   -9102283.66049  -7086875.46948                  20142333.2314
        51.5004         42.2504
  22581995.7214   -3345593.25449  -2606396.72347                  22581993.7344
        48.0004         31.7504
  22592252.1414  -14465314.44949 -11252978.56647                  22592247.8984
        46.0004         34.2504
  23005882.7574   -2039597.79349  -1588809.89847                  23005880.3044
        45.0004         27.5004
  21006846.0234   -7041338.73849  -5478664.16848                  21006841.5824
        51.2504         41.0004
 04  6 29 18 12 30.0000000  0  8G 3G 9G14G15G18G19G21G22
  21988321.8964   -7305876.87149  -5682269.10247                  21988320.9494
        49.7504         37.0004
  23596777.6314   -9407772.23049  -7325296.59047                  23596775.5564
        44.7504         27.5004
  20528163.6664  -14374817.26249 -11179797.66448                  20528161.3944
        50.0004         42.0004
  20134599.0614   -9142935.44949  -7118552.19948                  20134597.6334
        52.0004         42.5004
  22578888.3754   -3361925.12549  -2619122.86347                  22578885.8814
        48.7504         32.5004
  22579200.4504  -14533900.69949 -11306422.39547                  22579196.2984
        47.5004         34.0004
  23004967.6714   -2044406.01649  -1592556.58247                  23004965.8764
        44.0004         29.0004
  21000295.5504   -7075761.03149  -5505486.73448                  21000291.4684
        51.0004         41.0004
 04  6 29 18 12 45.0000000  0  8G 3G 9G14G15G18G19G21G22
  21982960.3104   -7334051.13749  -5704223.09447                  21982959.8094
        49.0004         36.5004
  23589477.0884   -9446131.30149  -7355186.78947                  23589476.3894
        43.7504         27.5004
  20515364.4234  -14442078.62549 -11232209.11348                  20515362.0154
        51.2504         41.7504
  20126884.9074   -9183474.35549  -7150140.95748                  20126883.3134
        51.5004         42.7504
  22575784.3164   -3378237.04349  -2631833.46947                  22575781.4704
        48.0004         32.5004
  22566174.2534  -14602353.87149 -11359762.53147                  22566169.9034
        47.2504         34.5004
  23004065.1524   -2049148.12949  -1596251.75847                  23004063.1594
        44.2504         28.5004
  20993753.1164   -7110141.10249  -5532276.40248                  20993749.0874
        50.7504         40.7504
 04  6 29 18 13  0.0000000  0  8G 3G 9G14G15G18G19G21G22
  21977621.6524   -7362106.02749  -5726084.06247                  21977621.1794
        49.7504         36.5004
  23582206.6104   -9484340.31649  -7384960.06647                  23582205.8214
        43.5004         28.5004
  20502589.7764  -14509207.76649 -11284517.52748                  20502587.5384
        50.7504         42.0004
  20119192.0024   -9223898.81249  -7181640.53548                  20119190.7424
        52.0004         42.2504
  22572683.8544   -3394527.69949  -2644527.50047                  22572681.1464
        47.7504         31.5004
  22553173.4934  -14670672.57449 -11412997.88347                  22553168.5374
        48.0004         33.7504
  23003176.3764   -2053822.69549  -1599894.32047                  23003173.7694
        45.0004         28.2504
  20987218.9814   -7144477.64549  -5559032.16448                  20987215.5644
        51.0004         40.7504
 04  6 29 18 13 15.0000000  0  8G 3G 9G14G15G18G19G21G22
  21972305.5334   -7390042.44549  -5747852.72747                  21972304.4794
        49.7504         36.7504
  23574963.7894   -9522400.09449  -7414617.05147                  23574963.8314
        43.0004         28.0004
  20489840.7594  -14576205.09049 -11336723.22748                  20489838.4124
        50.5004         42.2504
  20111521.0884   -9264209.37549  -7213051.37148                  20111519.8274
        52.0004         42.0004
  22569587.6024   -3410797.66449  -2657205.41047                  22569585.0044
        47.5004         31.0004
  22540198.7174  -14738857.15249 -11466128.73047                  22540194.0564
        47.5004         35.0004
  23002298.8304   -2058430.76249  -1603485.05947                  23002296.4774
        45.0004         28.0004
  20980693.2614   -7178771.49249  -5585754.64148                  20980689.6444
        51.0004         40.5004
 04  6 29 18 13 30.0000000  0  8G 3G 9G14G15G18G19G21G22
  21967011.7184   -7417861.02349  -5769529.54747                  21967010.7714
        49.5004         36.2504
  23567750.3584   -9560311.00049  -7444158.03947                  23567749.5364
        43.0004         29.5004
  20477116.6744  -14643071.01249 -11388826.53148                  20477114.6034
        49.5004         42.5004
  20103872.2784   -9304406.36749  -7244373.70748                  20103870.4464
        51.5004         42.0004
  22566495.6294   -3427047.62549  -2669867.72347                  22566492.7894
        46.7504         30.7504
  22527249.2164  -14806907.91849 -11519155.31647                  22527244.7754
        46.5004         34.2504
  23001434.7054   -2062972.66449  -1607024.23047                  23001432.1984
        43.7504         28.7504
  20974175.1884   -7213023.14549  -5612444.24648                  20974171.6084
        49.0004         41.0004
 04  6 29 18 13 45.0000000  0  8G 3G 9G14G15G18G19G21G22
  21961740.3154   -7445562.49249  -5791115.13347                  21961740.1214
        49.7504         37.2504
  23560564.1214   -9598073.60549  -7473583.45347                  23560563.1374
        44.0004         29.0004
  20464417.3624  -14709806.02349 -11440827.83248                  20464415.2814
        50.7504         42.0004
  20096244.4394   -9344490.21149  -7275607.87948                  20096242.5324
        51.5004         42.2504
  22563406.7434   -3443278.07449  -2682514.84847                  22563404.1744
        47.5004         30.2504
  22514325.2994  -14874825.25849 -11572077.92247                  22514320.2484
        48.0004         34.7504
  23000583.4394   -2067449.10549  -1610512.38747                  23000580.0984
        44.7504         27.2504
  20967665.2474   -7247233.26649  -5639101.50448                  20967661.4174
        51.0004         40.7504
 04  6 29 18 14  0.0000000  0  8G 3G 9G14G15G18G19G21G22
  21956491.3864   -7473148.09849  -5812610.42247                  21956490.3574
        50.0004         37.0004
  23553405.5644   -9635688.85949  -7502894.03147                  23553405.7714
        43.7504         29.7504
  20451742.7124  -14776410.89149 -11492727.72348                  20451740.7994
        50.7504         42.0004
  20088638.0204   -9384461.80149  -7306754.57848                  20088636.0874
        51.7504         42.7504
  22560322.1954   -3459489.95749  -2695147.48847                  22560319.7814
        47.2504         31.2504
  22501425.7464  -14942609.86749 -11624897.10947                  22501422.0944
        47.5004         35.0004
  22999743.2044   -2071861.07049  -1613950.30547                  22999739.9734
        43.5004         27.5004
  20961162.9634   -7281402.70749  -5665727.05548                  20961159.4794
        50.2504         40.7504
 04  6 29 18 14 15.0000000  0  8G 3G 9G14G15G18G19G21G22
  21951263.6964   -7500618.19149  -5834015.71947                  21951262.6344
        50.0004         36.7504
  23546276.3224   -9673156.87149  -7532089.89847                  23546275.7144
        44.0004         29.7504
  20439093.0604  -14842885.85949 -11544526.38748                  20439090.8074
        50.5004         41.5004
  20081053.0434   -9424321.14849  -7337813.82448                  20081051.2034
        51.5004         42.0004
  22557240.6634   -3475683.43449  -2707765.80147                  22557238.6444
        47.7504         31.5004
  22488551.9954  -15010261.79349 -11677612.89847                  22488548.1154
        47.5004         35.0004
  22998916.8544   -2076208.86749  -1617338.21947                  22998913.6654
        45.0004         28.2504
  20954668.7344   -7315531.71549  -5692321.09448                  20954664.9584
        50.7504         41.0004
 04  6 29 18 14 30.0000000  0  8G 3G 9G14G15G18G19G21G22
  21946058.5744   -7527972.20749  -5855330.55147                  21946058.0074
        49.5004         37.0004
  23539173.9544   -9710476.98049  -7561170.51247                  23539173.9494
        43.2504         29.5004
  20426468.2664  -14909229.96949 -11596223.09848                  20426466.0764
        48.5004         41.7504
  20073489.7664   -9464067.32049  -7368784.87148                  20073488.0214
        51.7504         42.2504
  22554162.1034   -3491857.83649  -2720369.25847                  22554160.7174
        46.7504         30.2504
  22475703.8894  -15077780.05549 -11730224.53947                  22475699.8194
        45.0004         35.5004
  22998101.1434   -2080492.00449  -1620675.76647                  22998098.8534
        43.5004         29.0004
  20948182.1204   -7349619.65649  -5718883.12948                  20948178.3824
        51.0004         40.7504
 04  6 29 18 14 45.0000000  0  8G 3G 9G14G15G18G19G21G22
  21940875.2224   -7555210.36749  -5876555.10547                  21940874.3864
        49.5004         36.7504
  23532101.3534   -9747649.14549  -7590135.85947                  23532100.8324
        43.5004         30.2504
  20413868.1434  -14975443.13349 -11647817.77048                  20413865.9604
        48.5004         42.0004
  20065947.5904   -9503700.19549  -7399667.64148                  20065946.0614
        51.5004         42.2504
  22551087.8464   -3508013.06249  -2732957.77047                  22551086.5714
        46.5004         31.2504
  22462880.8804  -15145164.46949 -11782731.89147                  22462876.9984
        45.2504         34.5004
  22997298.6034   -2084710.41049  -1623962.87147                  22997296.4024
        45.2504         29.0004
  20941703.1154   -7383666.45749  -5745413.11348                  20941699.2654
        50.7504         41.0004
 04  6 29 18 15  0.0000000  0  8G 3G 9G14G15G18G19G21G22
  21935713.9284   -7582332.46149  -5897689.21947                  21935713.0784
        49.0004         36.2504
  23525055.2624   -9784672.88749  -7618985.55547                  23525055.2564
        43.0004         30.5004
  20401293.3754  -15041524.86349 -11699310.02048                  20401291.1584
        50.5004         42.0004
  20058427.4234   -9543219.25049  -7430461.72348                  20058425.7184
        51.5004         42.0004
  22548017.8144   -3524148.73449  -2745531.04347                  22548015.8884
        46.7504         31.0004
  22450083.3244  -15212414.52049 -11835134.50847                  22450079.7484
        46.7504         34.5004
  22996508.4684   -2088863.78149  -1627199.29347                  22996506.5124
        44.7504         28.7504
  20935232.1544   -7417671.84449  -5771910.83248                  20935228.2224
        50.2504         40.7504
 04  6 29 18 15 15.0000000  0  8G 3G 9G14G15G18G19G21G22
  21930575.3714   -7609337.78549  -5918732.33247                  21930574.4234
        49.5004         36.0004
  23518038.6274   -9821547.46149  -7647718.98447                  23518037.6894
        44.5004         29.7504
  20388743.4644  -15107474.14549 -11750699.07448                  20388741.5024
        50.5004         42.0004
  20050929.1244   -9582623.55549  -7461166.39548                  20050927.3544
        51.5004         42.0004
  22544951.0814   -3540264.09049  -2758088.48847                  22544949.7004
        47.2504         31.0004
  22437312.1974  -15279528.92249 -11887431.44147                  22437308.2464
        47.0004         34.5004
  22995731.0464   -2092951.34449  -1630384.43447                  22995728.0294
        45.7504         29.0004
  20928769.2214   -7451634.94949  -5798375.59448                  20928765.2384
        51.2504         40.5004
 04  6 29 18 15 30.0000000  0  8G 3G 9G14G15G18G19G21G22
  21925457.9604   -7636227.54349  -5939685.40247                  21925457.4824
        49.0004         36.0004
  23511049.9424   -9858273.77349  -7676336.89547                  23511048.7774
        44.7504         30.7504
  20376218.9734  -15173291.89149 -11801985.62548                  20376216.5594
        51.0004         42.2504
  20043452.5554   -9621913.88749  -7491782.23848                  20043450.8784
        51.7504         41.2504
  22541888.1034   -3556360.09849  -2770630.84047                  22541886.4834
        47.2504         30.5004
  22424566.5094  -15346508.57449 -11939623.38347                  22424562.3304
        48.0004         34.2504
  22994965.0584   -2096974.24249  -1633519.19147                  22994963.1504
        44.0004         29.2504
  20922314.0084   -7485556.77049  -5824808.18448                  20922309.7884
        50.0004         40.0004
 04  6 29 18 15 45.0000000  0  8G 3G 9G14G15G18G19G21G22
  21920362.7044   -7663004.36749  -5960550.48447                  21920361.4754
        49.0004         35.5004
  23504088.6354   -9894854.22749  -7704841.14847                  23504088.2004
        42.7504         29.5004
  20363718.8874  -15238980.43749 -11853171.50848                  20363716.1834
        50.0004         41.7504
  20035997.0104   -9661092.53149  -7522311.06248                  20035995.0044
        51.7504         42.0004
  22538828.7054   -3572439.16849  -2783159.98847                  22538826.2814
        47.0004         31.2504
  22411845.9084  -15413355.74249 -11991712.09047                  22411841.4294
        46.7504         34.0004
  22994211.8584   -2100934.82849  -1636605.39547                  22994209.3254
        45.0004         28.2504
  20915866.4084   -7519439.68749  -5851210.46548                  20915862.1914
        50.7504         40.0004
 04  6 29 18 16  0.0000000  0  8G 3G 9G14G15G18G19G21G22
  21915288.7254   -7689668.43749  -5981327.70747                  21915287.7814
        48.7504         35.5004
  23497155.4234   -9931288.67649  -7733231.66447                  23497155.8844
        43.0004         30.0004
  20351243.2014  -15304539.63749 -11904256.59448                  20351240.7644
        51.0004         41.5004
  20028562.6934   -9700159.34849  -7552752.75048                  20028560.9554
        51.5004         41.0004
  22535771.8934   -3588501.21549  -2795675.87547                  22535770.1234
        47.0004         30.5004
  22399150.3104  -15480070.12949 -12043697.33647                  22399146.4524
        47.0004         34.7504
  22993469.8264   -2104833.09849  -1639643.02747                  22993467.2154
        46.5004         30.0004
  20909425.7864   -7553283.79349  -5877582.49648                  20909421.4034
        51.0004         39.5004
 04  6 29 18 16 15.0000000  0  8G 3G 9G14G15G18G19G21G22
  21910236.0144   -7716219.26649  -6002016.68447                  21910235.7234
        49.5004         36.0004
  23490250.0864   -9967576.39149  -7761507.81247                  23490249.6364
        43.2504         29.7504
  20338792.6024  -15369968.59849 -11955240.19148                  20338790.1044
        50.7504         41.7504
  20021149.9884   -9739113.39549  -7583106.55548                  20021148.1374
        51.2504         42.0004
  22532719.1244   -3604545.51649  -2808177.93047                  22532716.8434
        46.7504         29.5004
  22386480.9504  -15546650.73449 -12095578.32447                  22386477.1064
        47.2504         35.5004
  22992739.9014   -2108668.50449  -1642631.69547                  22992737.3054
        44.7504         29.2504
  20902992.9724   -7587088.30549  -5903923.68448                  20902988.6404
        50.0004         39.5004
 04  6 29 18 16 30.0000000  0  8G 3G 9G14G15G18G19G21G22
  21905204.9874   -7742657.56649  -6022617.98047                  21905204.3414
        49.0004         35.2504
  23483373.0244  -10003718.02749  -7789670.16047                  23483372.6254
        41.2504         29.2504
  20326366.5684  -15435267.84449 -12006122.71948                  20326364.3384
        50.2504         41.7504
  20013758.8384   -9777955.11349  -7613372.82448                  20013757.0354
        51.7504         41.7504
  22529668.4084   -3620572.63749  -2820666.59047                  22529667.1304
        46.5004         30.0004
  22373835.6484  -15613098.02049 -12147355.43047                  22373832.9644
        47.2504         34.5004
  22992022.2794   -2112442.19149  -1645572.26647                  22992019.7674
        45.2504         29.7504
  20896567.8644   -7620853.91049  -5930234.53948                  20896563.3054
        52.0004         40.5004
 04  6 29 18 16 45.0000000  0  8G 3G 9G14G15G18G19G21G22
  21900195.7264   -7768983.31649  -6043131.56647                  21900194.8194
        49.5004         35.2504
  23476522.6504  -10039713.29749  -7817718.41846                  23476522.1614
        41.0004         25.5004
  20313965.2594  -15500437.07449 -12056903.93748                  20313962.9264
        51.0004         42.2504
  20006388.3914   -9816684.18049  -7643551.32848                  20006386.9994
        52.2504         42.5004
  22526621.9554   -3636582.40649  -2833141.77047                  22526621.0764
        47.0004         30.5004
  22361217.2104  -15679411.63349 -12199028.37947                  22361213.7604
        47.2504         35.0004
  22991315.2914   -2116153.26649  -1648464.04347                  22991313.2144
        44.5004         28.5004
  20890150.0114   -7654580.40649  -5956514.93448                  20890145.6554
        51.0004         40.0004
 04  6 29 18 17  0.0000000  0  8G 3G 9G14G15G18G19G21G22
  21895207.8294   -7795194.03549  -6063555.51247                  21895206.9354
        49.2504         35.0004
  23469700.9304  -10075559.46149  -7845650.51647                  23469700.8304
        40.5004         27.0004
  20301589.3084  -15565473.52049 -12107581.67648                  20301587.0904
        49.5004         42.0004
  19999040.6984   -9855297.75449  -7673639.82848                  19999038.9454
        52.0004         42.5004
  22523579.6874   -3652572.18749  -2845601.37147                  22523578.1474
        47.0004         31.2504
  22348624.0814  -15745588.57049 -12250594.82847                  22348620.1444
        46.5004         35.2504
  22990621.4234   -2119799.18449  -1651305.05947                  22990619.4184
        43.2504         29.0004
  20883739.8344   -7688265.09049  -5982762.74248                  20883735.9624
        51.0004         39.5004
 04  6 29 18 17 15.0000000  0  8G 3G 9G14G15G18G19G21G22
  21890241.9084   -7821292.10249  -6083891.68447                  21890240.8724
        49.2504         35.0004
  23462908.6014  -10111258.89149  -7873468.28947                  23462907.7544
        40.2504         26.0004
  20289238.1734  -15630379.33649 -12158157.63748                  20289235.9574
        49.2504         42.0004
  19991714.7664   -9893797.99249  -7703640.02748                  19991712.9134
        52.0004         42.5004
  22520540.6884   -3668544.17649  -2858047.07047                  22520538.9854
        47.0004         31.5004
  22336056.4154  -15811630.99249 -12302056.46547                  22336053.3294
        44.7504         35.0004
  22989939.5814   -2123382.59049  -1654097.34847                  22989937.5144
        44.0004         28.0004
  20877337.0304   -7721910.20749  -6008979.72348                  20877333.4754
        50.7504         40.2504
 04  6 29 18 17 30.0000000  0  8G 3G 9G14G15G18G19G21G22
  21885296.7114   -7847278.12549  -6104140.55947                  21885295.7894
        50.0004         34.5004
  23456142.4484  -10146811.87949  -7901171.94147                  23456141.8294
        42.5004         27.5004
  20276911.5484  -15695154.73849 -12208631.97748                  20276909.2484
        50.0004         41.7504
  19984409.8924   -9932185.09049  -7733552.05948                  19984407.9914
        51.7504         42.0004
  22517504.1294   -3684498.53149  -2870479.04747                  22517502.7774
        46.2504         29.5004
  22323514.5454  -15877538.98049 -12353413.35247                  22323511.3474
        46.2504         35.2504
  22989269.0774   -2126903.82449  -1656841.20747                  22989267.0164
        44.0004         27.0004
  20870942.4584   -7755516.12949  -6035166.15248                  20870938.5674
        50.2504         40.0004
 04  6 29 18 17 45.0000000  0  8G 3G 9G14G15G18G19G21G22
  21880372.6464   -7873153.05549  -6124302.85247                  21880371.9204
        49.5004         34.5004
  23449404.8764  -10182219.12549  -7928762.02347                  23449404.8534
        42.5004         27.7504
  20264610.1554  -15759800.43749 -12259005.24248                  20264607.5854
        49.2504         42.0004
  19977126.2294   -9970459.73849  -7763376.45748                  19977124.8864
        52.0004         42.0004
  22514471.1324   -3700436.14149  -2882897.98447                  22514470.3244
        45.2504         30.5004
  22310998.5884  -15943313.03549 -12404665.86347                  22310994.6334
        46.5004         35.5004
  22988610.9514   -2130364.09849  -1659537.54347                  22988608.4314
        44.0004         28.5004
  20864554.7534   -7789083.73049  -6061322.73448                  20864551.2264
        50.2504         40.5004
 04  6 29 18 18  0.0000000  0  8G 3G 9G14G15G18G19G21G22
  21875470.2684   -7898914.53949  -6144376.75847                  21875469.3814
        49.7504         35.2504
  23442695.4884  -10217478.15249  -7956236.60247                  23442695.2754
        42.2504         27.7504
  20252333.3434  -15824313.74649 -12309275.35948                  20252330.9934
        47.5004         42.0004
  19969864.7654  -10008619.25049  -7793111.16048                  19969863.0484
        51.5004         41.7504
  22511442.3334   -3716354.49249  -2895301.91447                  22511441.2754
        45.5004         30.5004
  22298507.6144  -16008950.49249 -12455811.93447                  22298504.6414
        46.5004         35.0004
  22987964.9724   -2133760.37949  -1662184.04747                  22987962.0084
        42.7504         27.7504
  20858174.8144   -7822610.43749  -6087447.46148                  20858171.1414
        49.2504         40.5004
 04  6 29 18 18 15.0000000  0  8G 3G 9G14G15G18G19G21G22
  22170382.8734   -7924558.24249  -6164358.89147                  22170382.1074
        49.2504         35.2504
  23735807.6864  -10252583.66449  -7983591.57047                  23735806.9394
        42.5004         27.0004
  20539876.1444  -15888687.28949 -12359436.55148                  20539873.6044
        48.5004         41.7504
  20262418.7404  -10046657.98849  -7822751.74648                  20262416.5984
        52.0004         42.0004
  22808209.7964   -3732249.57849  -2907687.71147                  22808208.3814
        46.2504         30.2504
  22585836.9214  -16074444.01249 -12506845.84847                  22585834.1344
        45.7504         34.7504
  23287123.9984   -2137089.53149  -1664778.21947                  23287121.0834
        43.0004         26.7504
  21151596.4924   -7856091.12949  -6113536.30948                  21151592.4124
        50.0004         40.7504
 04  6 29 18 18 30.0000000  0  8G 3G 9G14G15G18G19G21G22
  22165524.7394   -7950090.64149  -6184254.28947                  22165523.8434
        48.5004         35.2504
  23729155.2324  -10287543.31249  -8010832.84047                  23729154.7194
        42.7504         27.0004
  20527650.3534  -15952932.64549 -12409497.87948                  20527648.2964
        48.5004         41.7504
  20255201.7484  -10084583.85249  -7852304.37548                  20255199.9324
        52.5004         42.2504
  22805188.5004   -3748126.39849  -2920059.26647                  22805187.3084
        45.5004         30.0004
  22573399.0454  -16139805.02349 -12557776.52047                  22573395.9174
        47.0004         34.5004
  23286502.2144   -2140355.10949  -1667322.89547                  23286499.3424
        42.5004         27.5004
  21145232.6544   -7889533.20349  -6139595.08248                  21145228.3004
        51.0004         41.0004
 04  6 29 18 18 45.0000000  0  8G 3G 9G14G15G18G19G21G22
  22160686.6844   -7975513.25049  -6204064.12947                  22160685.5584
        49.0004         35.5004
  23722530.8084  -10322357.68049  -8037960.93747                  23722530.0614
        44.0004         28.7504
  20515449.8134  -16017048.27349 -12459458.10248                  20515447.6124
        46.7504         42.2504
  20248005.9904  -10122397.06249  -7881769.23048                  20248004.4544
        51.5004         42.0004
  22802169.8354   -3763986.79749  -2932418.02347                  22802168.5624
        45.5004         29.5004
  22560987.0494  -16205031.84849 -12608602.60547                  22560984.0434
        44.7504         35.0004
  23285892.6174   -2143560.18049  -1669820.36747                  23285889.7204
        42.7504         27.5004
  21138875.8984   -7922937.33249  -6165624.27748                  21138871.8694
        50.2504         41.2504
 04  6 29 18 19  0.0000000  0  8G 3G 9G14G15G18G19G21G22
  22155870.0954   -8000824.43749  -6223787.14847                  22155869.3914
        49.5004         36.0004
  23715933.5714  -10357025.02749  -8064974.46947                  23715932.8484
        45.2504         27.7504
  20503274.2174  -16081032.30149 -12509315.78148                  20503271.8154
        45.2504         42.0004
  20240832.3804  -10160095.90649  -7911144.96148                  20240830.7044
        52.0004         41.5004
  22799155.5424   -3779829.07449  -2944762.69147                  22799153.9924
        45.0004         29.5004
  22548600.0064  -16270122.58249 -12659322.64547                  22548597.4994
        43.7504         35.0004
  23285294.6904   -2146702.98449  -1672269.35547                  23285291.7594
        44.0004         28.2504
  21132526.9904   -7956301.79349  -6191622.57448                  21132523.1464
        49.0004         41.5004
 04  6 29 18 19 15.0000000  0  8G 3G 9G14G15G18G19G21G22
  22151074.8114   -8026024.53149  -6243423.60247                  22151073.9344
        49.0004         35.5004
  23709364.8934  -10391545.51649  -8091873.54747                  23709364.2244
        44.5004         27.0004
  20491123.3554  -16144884.93749 -12559071.08248                  20491120.7804
        48.2504         42.0004
  20233680.3904  -10197680.30949  -7940431.52348                  20233678.3944
        51.5004         42.0004
  22796144.4284   -3795653.44549  -2957093.39547                  22796142.4754
        44.2504         29.0004
  22536240.3524  -16335077.25849 -12709936.68447                  22536237.4804
        45.2504         35.5004
  23284708.5124   -2149783.71949  -1674669.95347                  23284705.9284
        43.7504         27.2504
  21126185.4394   -7989626.88349  -6217590.18448                  21126181.4894
        50.5004         40.5004
 04  6 29 18 19 30.0000000  0  8G 3G 9G14G15G18G19G21G22
  22146300.3454   -8051113.45749  -6262973.43747                  22146299.4354
        49.7504         35.2504
  23702822.9704  -10425918.75849  -8118657.89147                  23702823.0004
        43.7504         27.0004
  20478997.9684  -16208605.62549 -12608723.55548                  20478995.5004
        48.0004         42.0004
  20226550.2234  -10235149.77049  -7969628.50048                  20226548.5674
        52.0004         42.2504
  22793136.7264   -3811459.42649  -2969409.77047                  22793135.6434
        44.7504         29.7504
  22523905.5694  -16399895.19549 -12760444.16847                  22523902.9124
        46.0004         35.5004
  23284133.9904   -2152802.06649  -1677021.96947                  23284131.8314
        43.5004         29.7504
  21119851.5054   -8022912.25049  -6243526.83248                  21119847.2264
        49.5004         40.7504
 04  6 29 18 19 45.0000000  0  8G 3G 9G14G15G18G19G21G22
  22141547.4594   -8076091.08649  -6282436.54347                  22141546.1064
        49.2504         35.2504
  23696310.1154  -10460144.46949  -8145327.27747                  23696309.4224
        41.7504         27.5004
  20466897.3994  -16272194.07849 -12658272.99648                  20466894.4674
        47.2504         42.5004
  20219441.5904  -10272503.83649  -7998735.57048                  20219439.7644
        51.2504         42.2504
  22790132.2974   -3827246.66449  -2981711.53547                  22790131.2474
        44.7504         29.2504
  22511597.5084  -16464575.98449 -12810844.78547                  22511593.9734
        44.5004         35.2504
  23283571.7764   -2155757.99249  -1679325.32047                  23283569.8484
        42.2504         27.7504
  21113525.0634   -8056157.59049  -6269432.29748                  21113520.8554
        49.5004         40.2504
 04  6 29 18 20  0.0000000  0  8G 3G 9G14G15G18G19G21G22
  22136815.8864   -8100956.56649  -6301812.25447                  22136815.0404
        49.0004         35.5004
  23689825.4344  -10494221.65249  -8171880.93447                  23689825.3574
        39.0004         27.0004
  20454822.0614  -16335649.19549 -12707718.53948                  20454819.4224
        49.0004         42.0004
  20212355.7764  -10309741.42249  -8027751.85948                  20212354.2784
        51.2504         41.7504
  22787131.8694   -3843014.42249  -2993998.10547                  22787130.4444
        45.5004         28.5004
  22499315.4394  -16529118.35949 -12861137.55947                  22499311.8044
        44.7504         34.7504
  23283021.5134   -2158650.38749  -1681579.16447                  23283019.6194
        41.5004         26.7504
  21107206.6984   -8089361.90249  -6295305.79748                  21107202.1144
        49.7504         40.5004
 04  6 29 18 20 15.0000000  0  8G 3G 9G14G15G18G19G21G22
  22132105.5344   -8125711.77749  -6321102.04747                  22132103.8064
        50.0004         35.7504
  23683368.9894  -10528151.97349  -8198320.16447                  23683369.1164
        41.5004         26.5004
  20442772.2564  -16398972.47749 -12757061.35948                  20442769.3874
        47.2504         42.0004
  20205291.3714  -10346863.94549  -8056678.49248                  20205289.8574
        51.5004         42.5004
  22784134.9694   -3858764.03549  -3006270.55547                  22784133.5284
        44.0004         29.0004
  22487059.0954  -16593523.78949 -12911323.60547                  22487056.2394
        43.0004         34.7504
  23282482.4174   -2161481.18049  -1683785.01647                  23282481.2744
        41.7504         26.5004
  21100895.5124   -8122526.72349  -6321148.52048                  21100891.1314
        51.2504         40.2504
 04  6 29 18 20 30.0000000  0  8G 3G 9G14G15G18G19G21G22
  22127415.4054   -8150356.55949  -6340305.78547                  22127414.0534
        50.2504         35.5004
  23676940.4654  -10561935.02749  -8224644.64147                  23676939.8114
        43.2504         28.2504
  20430747.1854  -16462163.41049 -12806301.03948                  20430744.8354
        48.0004         41.7504
  20198249.4104  -10383870.97349  -8085515.14548                  20198247.7064
        52.0004         42.5004
  22781141.2644   -3874495.18449  -3018528.59847                  22781140.2624
        43.7504         29.0004
  22474829.4684  -16657791.64149 -12961402.46947                  22474826.5494
        44.0004         35.0004
  23281955.5644   -2164250.08649  -1685942.62547                  23281953.7534
        42.2504         27.5004
  21094591.9734   -8155651.75049  -6346960.23848                  21094587.4884
        50.5004         40.5004
 04  6 29 18 20 45.0000000  0  8G 3G 9G14G15G18G19G21G22
  22122746.8824   -8174890.71149  -6359423.33247                  22122745.6974
        49.7504         36.0004
  23670539.9314  -10595570.34049  -8250853.98447                  23670540.2734
        40.7504         28.7504
  20418747.9964  -16525221.50049 -12855437.21148                  20418745.2884
        48.0004         42.5004
  20191229.0694  -10420761.95749  -8114261.37148                  20191227.6284
        51.5004         42.2504
  22778151.4094   -3890207.32849  -3030771.85947                  22778150.0674
        44.2504         29.0004
  22462626.2744  -16721921.47349 -13011373.75847                  22462623.0474
        43.5004         34.5004
  23281440.8054   -2166956.55549  -1688051.59847                  23281439.0714
        42.0004         27.7504
  21088296.1334   -8188736.56249  -6372740.62148                  21088291.6224
        50.5004         40.5004
 04  6 29 18 21  0.0000000  0  8G 3G 9G14G15G18G19G21G22
  22118098.1354   -8199315.57049  -6378455.71147                  22118097.3424
        50.2504         35.2504
  23664166.6454  -10629059.05949  -8276949.11347                  23664167.1444
        39.7504         28.0004
  20406773.2934  -16588147.70749 -12904470.61748                  20406771.0004
        48.5004         41.7504
  20184230.7504  -10457537.87149  -8142917.94148                  20184229.6114
        51.5004         42.2504
  22775164.5984   -3905901.63749  -3043001.20347                  22775163.5574
        44.0004         28.2504
  22450448.9914  -16785914.12549 -13061238.17647                  22450445.5924
        45.2504         34.7504
  23280937.3774   -2169601.50049  -1690112.63347                  23280935.4214
        42.5004         28.2504
  21082007.6434   -8221782.21149  -6398490.48448                  21082003.4114
        49.5004         41.0004
 04  6 29 18 21 15.0000000  0  8G 3G 9G14G15G18G19G21G22
  22113471.3774   -8223633.16849  -6397404.51647                  22113470.6814
        49.2504         35.5004
  23657821.7894  -10662403.12549  -8302931.53947                  23657822.0584
        38.2504         28.2504
  20394823.6274  -16650943.98449 -12953402.78148                  20394821.0694
        47.2504         41.7504
  20177254.4874  -10494200.59849  -8171486.32848                  20177252.7754
        51.0004         42.5004
  22772180.8464   -3921579.85249  -3055218.00847                  22772179.6684
        44.0004         27.7504
  22438297.1404  -16849771.40249 -13110997.09447                  22438294.3164
        43.2504         34.7504
  23280445.3274   -2172187.08249  -1692127.41047                  23280443.5934
        39.5004         27.7504
  21075726.4564   -8254790.74249  -6424211.41848                  21075722.5064
        48.0004         40.2504
 04  6 29 18 21 30.0000000  0  8G 3G 9G14G15G18G19G21G22
  22108863.9464   -8247842.96549  -6416269.31647                  22108864.1834
        49.2504         35.7504
  23651503.8104  -10695601.79749  -8328800.64847                  23651503.6744
        37.5004         26.7504
  20382898.6764  -16713609.39849 -13002232.97348                  20382896.1494
        48.0004         41.7504
  20170299.4074  -10530749.12149  -8199965.72348                  20170298.3274
        51.5004         43.0004
  22769201.3514   -3937241.28549  -3067421.73847                  22769199.4974
        44.2504         27.0004
  22426171.2404  -16913492.23849 -13160649.70347                  22426168.9414
        45.5004         35.0004
  23279964.9594   -2174712.73849  -1694095.50047                  23279963.2464
        40.0004         26.7504
  21069452.2454   -8287761.39549  -6449902.84048                  21069448.5164
        48.7504         40.5004
 04  6 29 18 21 45.0000000  0  8G 3G 9G14G15G18G19G21G22
  22104277.9324   -8271943.82049  -6435049.23847                  22104277.5914
        48.7504         35.5004
  23645214.0544  -10728653.71149  -8354555.40247                  23645213.1674
        37.5004         26.0004
  20370999.2094  -16776142.51249 -13050960.07448                  20370996.5354
        47.5004         42.2504
  20163366.2294  -10567181.90249  -8228354.90248                  20163364.9434
        51.5004         42.0004
  22766223.6324   -3952884.59849  -3079611.34447                  22766222.6714
        43.7504         27.2504
  22414071.9844  -16977075.12549 -13210194.81247                  22414069.5354
        45.0004         35.5004
  23279495.5224   -2177177.06649  -1696015.77047                  23279494.3264
        41.7504         28.0004
  21063185.7414   -8320692.79349  -6475563.67248                  21063181.7424
        49.7504         41.0004
 04  6 29 18 22  0.0000000  0  8G 3G 9G14G15G18G19G21G22
  22099713.0134   -8295934.21149  -6453743.05947                  22099712.1484
        49.5004         35.0004
  23638953.6824  -10761557.18749  -8380194.52046                  23638952.7254
        37.0004         25.5004
  20359124.9994  -16838541.43049 -13099582.60248                  20359122.5264
        46.5004         42.7504
  20156455.8884  -10603497.16049  -8256652.52048                  20156454.5674
        51.2504         42.2504
  22763251.1264   -3968508.00449  -3091785.45347                  22763249.8994
        43.2504         26.5004
  22401999.5824  -17040518.19549 -13259630.98047                  22401996.6124
        42.7504         35.5004
  23279038.8334   -2179578.72349  -1697887.21547                  23279036.7624
        41.7504         27.5004
  21056927.0034   -8353583.11349  -6501192.50448                  21056923.0294
        48.7504         40.5004
 04  6 29 18 22 15.0000000  0  8G 3G 9G14G15G18G19G21G22
  22095167.5934   -8319818.16849  -6472353.96547                  22095167.0184
        49.2504         35.2504
  23632719.3554  -10794316.00849  -8405720.89146                  23632719.2004
        36.2504         25.0004
  20347275.8244  -16900809.98849 -13148103.55948                  20347273.2544
        47.5004         42.0004
  20149566.9294  -10639698.57849  -8284861.42648                  20149565.7594
        51.5004         42.7504
  22760281.2654   -3984115.40649  -3103947.08647                  22760280.0644
        43.0004         28.0004
  22389952.6014  -17103825.00849 -13308960.97347                  22389949.5374
        45.2504         35.5004
  23278592.7004   -2181921.63349  -1699712.90647                  23278590.9854
        40.5004         26.2504
  21050675.4024   -8386436.19949  -6526792.32048                  21050671.4944
        49.5004         41.0004
 04  6 29 18 22 30.0000000  0  8G 3G 9G14G15G18G19G21G22
  22090643.7614   -8343594.09849  -6490880.67647                  22090642.7164
        50.5004         35.0004
  23626513.0284  -10826928.27348  -8431133.07847                  23626512.4054
        35.7504         25.7504
  20335451.0374  -16962946.32049 -13196521.48448                  20335449.1514
        47.2504         42.5004
  20142700.1544  -10675784.22749  -8312980.12548                  20142698.5424
        52.2504         42.0004
  22757314.5954   -3999704.81249  -3116094.67647                  22757313.4764
        43.5004         27.0004
  22377931.7494  -17166993.60549 -13358183.25047                  22377928.7784
        45.5004         35.5004
  23278158.7124   -2184203.64149  -1701491.13347                  23278156.9584
        41.0004         26.7504
  21044430.8834   -8419250.26649  -6552361.73048                  21044427.3034
        48.7504         41.5004
 04  6 29 18 22 45.0000000  0  8G 3G 9G14G15G18G19G21G22
  22086139.1324   -8367264.77349  -6509325.38347                  22086138.4264
        49.2504         35.0004
  23620334.5564  -10859396.81648  -8456433.25446                  23620333.6054
        34.5004         22.5004
  20323651.8904  -17024952.81649 -13244838.23048                  20323649.7824
        46.7504         41.7504
  20135855.0264  -10711756.53549  -8341010.50848                  20135853.2844
        51.2504         42.0004
  22754351.0764   -4015278.60549  -3128230.12547                  22754350.1834
        42.2504         26.5004
  22365937.4814  -17230026.35249 -13407299.67647                  22365934.0274
        42.5004         35.7504
  23277735.5364   -2186427.73049  -1703224.21946                  23277733.1514
        41.0004         25.5004
  21038193.5594   -8452027.91049  -6577902.75448                  21038189.4084
        49.5004         41.2504
 04  6 29 18 23  0.0000000  0  8G 3G 9G14G15G18G19G21G22
  22081655.1264   -8390828.64849  -6527686.87147                  22081654.1934
        49.7504         35.5004
  23614183.9484  -10891719.82849  -8481620.03946                  23614182.9984
        36.5004         22.5004
  20311877.8564  -17086827.79749 -13293052.50448                  20311875.3924
        47.5004         42.0004
  20129031.5234  -10747613.61349  -8368951.09848                  20129030.2354
        52.0004         42.2504
  22751391.2914   -4030835.42649  -3140352.35547                  22751390.3374
        43.2504         27.7504
  22353968.9834  -17292921.35249 -13456308.76647                  22353965.6744
        44.5004         35.2504
  23277323.1974   -2188591.89849  -1704910.62146                  23277322.3794
        39.2504         25.5004
  21031963.3794   -8484767.34849  -6603414.00848                  21031959.1834
        50.2504         41.0004
 04  6 29 18 23 15.0000000  0  8G 3G 9G14G15G18G19G21G22
  22077191.9504   -8414283.11749  -6545963.10247                  22077191.4784
        49.0004         35.0004
  23608062.0964  -10923894.41849  -8506691.16846                  23608060.5114
        39.7504         23.5004
  20300128.9514  -17148568.18749 -13341161.89848                  20300126.4414
        48.0004         42.0004
  20122230.6054  -10783352.41449  -8396799.51648                  20122229.2514
        51.7504         42.0004
  22748434.7054   -4046372.14849  -3152458.91447                  22748433.6464
        42.5004         28.0004
  22342026.8664  -17355675.48849 -13505208.10947                  22342024.0714
        45.0004         35.5004
  23276923.2264   -2190693.40249  -1706548.19946                  23276921.8504
        40.0004         25.5004
  21025741.3924   -8517465.68049  -6628893.23048                  21025737.0394
        50.7504         41.2504
 04  6 29 18 23 30.0000000  0  8G 3G 9G14G15G18G19G21G22
  22072748.8544   -8437629.55949  -6564155.15647                  22072748.9824
        49.5004         34.7504
  23601966.7394  -10955921.82049  -8531647.60546                  23601965.2964
        39.0004         23.0004
  20288405.5194  -17210175.18449 -13389167.35248                  20288403.0774
        48.7504         42.0004
  20115452.2164  -10818974.16849  -8424556.73448                  20115450.7084
        52.0004         42.5004
  22745481.5214   -4061890.03949  -3164550.80547                  22745480.3304
        44.0004         28.2504
  22330112.0304  -17418289.97949 -13553998.60247                  22330108.5874
        46.5004         35.2504
  23276534.9554   -2192733.97349  -1708138.28546                  23276534.3594
        39.0004         24.5004
  21019526.5424   -8550124.21149  -6654341.44948                  21019522.3464
        51.5004         41.0004
 04  6 29 18 23 45.0000000  0  8G 3G 9G14G15G18G19G21G22
  22068327.0424   -8460868.29749  -6582263.27747                  22068326.8374
        49.5004         35.5004
  23595900.1424  -10987802.14849  -8556489.46146                  23595898.7534
        37.2504         23.5004
  20276707.8854  -17271648.77749 -13437068.84448                  20276705.1964
        48.5004         42.0004
  20108695.6434  -10854478.76649  -8452222.67248                  20108694.3534
        51.7504         42.5004
  22742532.3264   -4077389.01649  -3176627.92647                  22742530.3214
        43.5004         27.7504
  22318223.4674  -17480764.76249 -13602680.30547                  22318220.1144
        46.5004         36.0004
  23276158.3074   -2194713.22349  -1709680.60546                  23276157.2654
        39.2504         24.0004
  21013319.0064   -8582742.95749  -6679758.66848                  21013315.3274
        50.5004         40.5004
 04  6 29 18 24  0.0000000  0  8G 3G 9G14G15G18G19G21G22
  22063925.6704   -8483998.13749  -6600286.55547                  22063925.5054
        49.7504         35.0004
  23589861.8364  -11019534.11348  -8581215.69146                  23589860.4994
        35.5004         23.2504
  20265035.0034  -17332987.53549 -13484865.27748                  20265032.8304
        49.5004         42.0004
  20101962.0234  -10889864.73049  -8479796.16448                  20101960.9624
        52.0004         42.2504
  22739586.6554   -4092867.70349  -3188689.23847                  22739584.4164
        42.5004         28.0004
  22306361.8224  -17543098.25849 -13651251.85547                  22306358.2784
        46.2504         35.5004
  23275793.6094   -2196630.50049  -1711174.65246                  23275793.0614
        39.2504         25.5004
  21007119.8994   -8615320.62149  -6705143.87148                  21007115.9664
        51.2504         40.5004
 04  6 29 18 24 15.0000000  0  8G 3G 9G14G15G18G19G21G22
  22059544.6784   -8507020.17249  -6618225.82047                  22059544.7354
        49.5004         35.5004
  23583852.0584  -11051118.44149  -8605826.90246                  23583849.9684
        39.5004         24.7504
  20253388.1554  -17394192.26249 -13532557.27048                  20253385.8504
        49.5004         42.5004
  20095250.9384  -10925132.75049  -8507277.74648                  20095249.6344
        52.0004         42.0004
  22736644.5124   -4108326.93449  -3200735.39847                  22736642.5674
        42.0004         26.5004
  22294526.9244  -17605291.01249 -13699713.75447                  22294523.8614
        47.0004         35.7504
  23275440.4254   -2198486.12549  -1712620.61747                  23275439.5424
        39.7504         27.0004
  21000928.1754   -8647857.94949  -6730497.64848                  21000924.6084
        51.0004         40.0004
 04  6 29 18 24 30.0000000  0  8G 3G 9G14G15G18G19G21G22
  22055184.0724   -8529936.46149  -6636082.69147                  22055184.2854
        50.0004         36.0004
  23577869.0844  -11082557.16449  -8630324.59846                  23577867.1234
        40.2504         24.7504
  20241766.4004  -17455264.63749 -13580146.13748                  20241763.8684
        49.0004         42.5004
  20088561.4714  -10960284.60949  -8534668.80948                  20088560.3004
        52.0004         42.2504
  22733706.9604   -4123768.50849  -3212767.82047                  22733704.9774
        41.5004         27.2504
  22282718.4384  -17667344.74249 -13748067.31247                  22282715.3304
        45.7504         36.0004
  23275099.0304   -2200282.03549  -1714020.06646                  23275097.3774
        42.0004         25.2504
  20994744.1504   -8680356.78549  -6755821.41448                  20994740.1134
        51.0004         40.5004
 04  6 29 18 24 45.0000000  0  8G 3G 9G14G15G18G19G21G22
  22050843.0424   -8552747.35249  -6653857.41847                  22050843.3304
        49.2504         35.2504
  23571914.4214  -11113850.36349  -8654708.93047                  23571912.4944
        40.7504         26.0004
  20230169.9024  -17516204.68749 -13627631.89548                  20230167.5534
        49.0004         42.5004
  20081894.5594  -10995320.32449  -8561969.37148                  20081893.3084
        51.5004         42.5004
  22730771.7204   -4139192.61749  -3224786.62947                  22730769.4994
        41.2504         28.0004
  22270936.2704  -17729259.47349 -13796312.56247                  22270933.5724
        45.5004         35.7504
  23274768.2934   -2202018.88349  -1715373.46147                  23274767.0384
        41.7504         26.5004
  20988566.7614   -8712817.43749  -6781115.44548                  20988562.8614
        50.7504         40.5004
 04  6 29 18 25  0.0000000  0  8G 3G 9G14G15G18G19G21G22
  22046523.2004   -8575450.44949  -6671548.16847                  22046522.1964
        49.2504         34.7504
  23565987.6424  -11144995.42249  -8678977.80147                  23565985.0354
        41.0004         26.7504
  20218599.1334  -17577009.93049 -13675012.60248                  20218596.4644
        49.0004         43.0004
  20075249.8034  -11030237.12549  -8589177.27048                  20075248.5284
        50.7504         42.2504
  22727840.1894   -4154596.49249  -3236789.68047                  22727838.3904
        41.5004         29.0004
  22259180.8884  -17791032.46149 -13844447.37147                  22259178.0504
        45.7504         35.5004
  23274449.2024   -2203694.27349  -1716679.00846                  23274447.8064
        40.5004         25.0004
  20982397.9204   -8745237.18449  -6806377.58648                  20982393.7514
        50.7504         40.0004
 04  6 29 18 25 15.0000000  0  8G 3G 9G14G15G18G19G21G22
  22042223.6834   -8598045.56649  -6689154.77347                  22042222.4684
        49.5004         34.7504
  23560089.4024  -11175992.01649  -8703131.03546                  23560085.5704
        40.7504         24.0004
  20207054.2624  -17637679.86349 -13722287.87148                  20207051.8164
        49.5004         43.0004
  20068628.4254  -11065034.45349  -8616292.07448                  20068626.4854
        51.7504         41.5004
  22724912.7744   -4169979.85549  -3248776.72347                  22724911.2204
        42.7504         28.5004
  22247453.3154  -17852663.15649 -13892471.30147                  22247450.6544
        44.2504         36.0004
  23274142.2064   -2205307.66849  -1717936.23446                  23274140.6154
        41.0004         24.7504
  20976236.4064   -8777615.62149  -6831607.55148                  20976232.1084
        50.7504         40.2504
 04  6 29 18 25 30.0000000  0  8G 3G 9G14G15G18G19G21G22
  22037943.5954   -8620535.85549  -6706679.68447                  22037943.0004
        49.0004         35.5004
  23554218.3024  -11206843.06249  -8727170.83246                  23554216.0564
        38.2504         24.5004
  20195534.2084  -17698217.19949 -13769459.82048                  20195531.6904
        49.0004         42.2504
  20062029.0324  -11099715.12949  -8643315.98848                  20062027.5354
        52.0004         42.0004
  22721988.9904   -4185345.45349  -3260749.92647                  22721987.3384
        43.0004         29.0004
  22235752.6014  -17914154.12949 -13940386.35247                  22235749.1504
        45.0004         36.5004
  23273846.7504   -2206861.53549  -1719147.09046                  23273845.6494
        40.7504         24.5004
  20970082.3024   -8809955.64149  -6856807.55948                  20970077.9254
        50.7504         40.7504
 04  6 29 18 25 45.0000000  0  8G 3G 9G14G15G18G19G21G22
  22033684.3834   -8642919.46949  -6724121.48447                  22033683.2974
        49.5004         35.5004
  23548376.1854  -11237546.66449  -8751095.76646                  23548373.7164
        40.2504         22.5004
  20184039.6184  -17758619.89149 -13816526.85248                  20184037.5974
        48.5004         42.2504
  20055451.9694  -11134277.10249  -8670247.39548                  20055450.4404
        52.0004         41.7504
  22719068.6134   -4200691.21949  -3272707.69147                  22719066.9474
        42.2504         29.2504
  22224078.2894  -17975503.23449 -13988190.86347                  22224074.5784
        43.5004         36.2504
  23273563.3354   -2208354.16449  -1720310.20746                  23273561.3524
        41.2504         25.2504
  20963935.6404   -8842255.24649  -6881976.09448                  20963931.5004
        50.0004         40.5004
 04  6 29 18 26  0.0000000  0  8G 3G 9G14G15G18G19G21G22
  22029444.7604   -8665199.15249  -6741482.28947                  22029442.8094
        50.0004         35.0004
  23542560.2674  -11268105.15649  -8774907.55546                  23542558.2684
        38.5004         24.0004
  20172570.5434  -17818890.31649 -13863490.81648                  20172568.3424
        47.5004         42.2504
  20048897.3174  -11168722.52349  -8697087.99248                  20048895.7364
        52.0004         42.0004
  22716152.3204   -4216019.55949  -3284651.86347                  22716150.2474
        43.0004         29.5004
  22212430.0354  -18036712.81649 -14035886.63347                  22212427.4064
        43.5004         36.5004
  23273289.9514   -2209788.11349  -1721427.61746                  23273288.6234
        42.0004         25.0004
  20957796.8804   -8874516.79749  -6907114.97348                  20957792.5384
        50.5004         40.5004
 04  6 29 18 26 15.0000000  0  8G 3G 9G14G15G18G19G21G22
  22325017.3174   -8687374.27049  -6758761.62147                  22325015.7324
        49.2504         34.2504
  23836565.3564  -11298517.31249  -8798605.33646                  23836564.3154
        39.0004         22.7504
  20460920.1504  -17879025.00849 -13910349.01248                  20460917.7054
        50.0004         42.2504
  20342157.5294  -11203049.76249  -8723836.51248                  20342155.9134
        52.2504         42.0004
  23013030.8404   -4231330.23449  -3296582.27347                  23013029.0944
        42.2504         29.7504
  22500602.2054  -18097779.28949 -14083470.89847                  22500599.1474
        46.2504         36.2504
  23572820.2394   -2211164.37549  -1722500.07447                  23572819.3514
        42.2504         26.2504
  21251457.5464   -8906738.82049  -6932223.04748                  21251453.5484
        51.7504         41.0004
 04  6 29 18 26 30.0000000  0  8G 3G 9G14G15G18G19G21G22
  22320816.6284   -8709447.73049  -6775961.74247                  22320815.4694
        49.0004         35.0004
  23830805.3734  -11328786.95349  -8822192.10946                  23830804.2334
        39.7504         22.7504
  20449500.9184  -17939031.82449 -13957107.57048                  20449498.6234
        49.0004         42.7504
  20335646.9604  -11237263.15249  -8750496.30548                  20335645.5944
        52.0004         42.2504
  23010119.8334   -4246624.98449  -3308500.27347                  23010118.5374
        42.0004         29.7504
  22489007.2594  -18158710.56249 -14130949.82447                  22489003.9964
        45.7504         35.5004
  23572569.9594   -2212482.77349  -1723527.43747                  23572568.9814
        41.0004         26.5004
  21245332.5254   -8938925.44949  -6957303.54348                  21245328.7964
        51.5004         41.0004
 04  6 29 18 26 45.0000000  0  8G 3G 9G14G15G18G19G21G22
  22316635.5644   -8731420.52349  -6793083.42647                  22316634.2834
        49.5004         35.0004
  23825073.2674  -11358914.35249  -8845668.01646                  23825071.8894
        40.0004         25.5004
  20438106.8624  -17998908.93049 -14003765.05148                  20438104.6144
        49.7504         42.0004
  20329158.1564  -11271362.36749  -8777067.14848                  20329156.3974
        50.7504         42.0004
  23007212.2534   -4261904.82849  -3320406.66447                  23007211.0334
        41.5004         30.0004
  22477438.3914  -18219504.44949 -14178321.69147                  22477435.4354
        46.0004         35.7504
  23572330.0144   -2213745.75849  -1724511.60246                  23572328.9974
        41.0004         24.7504
  21239214.5014   -8971076.74649  -6982356.50848                  21239210.7544
        51.0004         41.2504
 04  6 29 18 27  0.0000000  0  8G 3G 9G14G15G18G19G21G22
  22312473.7914   -8753291.16449  -6810125.50447                  22312472.7724
        49.2504         35.0004
  23819367.9894  -11388897.94149  -8869031.86746                  23819366.0924
        41.0004         25.5004
  20426737.8284  -18058654.45349 -14050320.00048                  20426735.3794
        49.2504         42.5004
  20322691.3004  -11305345.60949  -8803547.59848                  20322689.6484
        51.5004         42.0004
  23004308.0864   -4277168.04749  -3332300.10247                  23004306.4164
        42.2504         30.0004
  22465896.3324  -18280159.16049 -14225585.10247                  22465892.7694
        46.7504         36.5004
  23572100.6234   -2214951.30149  -1725451.03547                  23572098.8434
        41.7504         26.0004
  21233103.3754   -9003190.94149  -7007380.56648                  21233099.4904
        51.5004         40.5004
 04  6 29 18 27 15.0000000  0  8G 3G 9G14G15G18G19G21G22
  22308330.8854   -8775060.84049  -6827088.91847                  22308330.0904
        49.2504         34.5004
  23813689.2554  -11418738.66849  -8892284.38747                  23813687.8014
        43.7504         25.7504
  20415393.4414  -18118269.35549 -14096773.17248                  20415390.9804
        49.7504         42.0004
  20316246.5734  -11339213.83649  -8829938.43448                  20316245.2114
        51.5004         42.0004
  23001406.1094   -4292415.73849  -3344181.44947                  23001404.8274
        43.0004         29.7504
  22454380.5034  -18340675.56249 -14272740.75447                  22454377.0324
        46.7504         36.2504
  23571881.3584   -2216100.87549  -1726346.84047                  23571880.4054
        42.0004         26.2504
  21226999.1094   -9035269.05949  -7032376.50848                  21226995.1324
        52.2504         40.5004
 04  6 29 18 27 30.0000000  0  8G 3G 9G14G15G18G19G21G22
  22304207.3384   -8796730.77349  -6843974.59847                  22304206.7264
        48.5004         34.7504
  23808037.1464  -11448437.59849  -8915426.44147                  23808036.0124
        41.5004         26.5004
  20404074.0244  -18177754.52749 -14143125.25448                  20404071.4104
        47.2504         42.0004
  20309823.0644  -11372967.89549  -8856240.30548                  20309821.7094
        52.0004         41.5004
  22998508.3624   -4307648.83249  -3356051.39847                  22998506.0744
        42.7504         30.0004
  22442890.4624  -18401054.45349 -14319789.24247                  22442887.7304
        43.7504         37.0004
  23571673.4514   -2217195.26249  -1727199.65646                  23571672.1084
        41.0004         23.5004
  21220901.4404   -9067311.93049  -7057344.98448                  21220897.6104
        51.5004         40.5004
 04  6 29 18 27 45.0000000  0  8G 3G 9G14G15G18G19G21G22
  22300102.3864   -8818301.47749  -6860782.96147                  22300102.1574
        48.7504         34.5004
  23802413.1084  -11477994.87149  -8938458.09847                  23802411.8224
        42.5004         27.5004
  20392778.5704  -18237110.20749 -14189376.43048                  20392776.5294
        47.7504         42.2504
  20303421.5724  -11406607.94549  -8882453.33248                  20303420.1634
        52.2504         41.7504
  22995612.2304   -4322867.41449  -3367910.05547                  22995610.2514
        44.5004         30.5004
  22431427.1004  -18461295.91849 -14366730.64547                  22431423.7714
        44.5004         36.5004
  23571475.1454   -2218234.84849  -1728009.77746                  23571473.5764
        42.0004         24.2504
  21214810.6174   -9099319.92249  -7082286.27748                  21214806.7564
        51.0004         40.0004
 04  6 29 18 28  0.0000000  0  8G 3G 9G14G15G18G19G21G22
  22296017.1094   -8839772.97749  -6877514.02747                  22296016.2274
        48.7504         34.2504
  23796814.4854  -11507410.47749  -8961379.36347                  23796814.7424
        39.5004         26.5004
  20381508.1374  -18296336.21549 -14235526.56648                  20381505.8024
        49.5004         42.7504
  20297041.7984  -11440133.71549  -8908577.31648                  20297040.0634
        51.7504         42.0004
  22992718.6704   -4338071.35949  -3379757.29747                  22992716.4454
        44.0004         30.0004
  22419989.8784  -18521399.60249 -14413564.69547                  22419986.6574
        47.2504         36.5004
  23571287.5114   -2219219.60949  -1728777.15246                  23571286.3174
        40.2504         24.0004
  21208726.1834   -9131292.89849  -7107200.28948                  21208722.6024
        50.5004         41.0004
 04  6 29 18 28 15.0000000  0  8G 3G 9G14G15G18G19G21G22
  22291949.4234   -8861146.10949  -6894168.45347                  22291948.7554
        48.2504         33.7504
  23791244.4624  -11536684.96149  -8984190.67247                  23791243.3114
        41.5004         27.0004
  20370262.9104  -18355433.06249 -14281576.05148                  20370259.9184
        50.7504         42.5004
  20290683.6224  -11473545.68049  -8934612.60948                  20290682.3014
        52.0004         42.0004
  22989828.2114   -4353261.24249  -3391593.59047                  22989826.2424
        43.5004         30.2504
  22408578.6134  -18581366.03949 -14460291.79347                  22408575.5324
        47.5004         36.2504
  23571111.7424   -2220150.08649  -1729502.26646                  23571109.7124
        42.0004         23.5004
  21202648.4014   -9163231.45349  -7132087.48848                  21202644.8764
        50.7504         40.5004
 04  6 29 18 28 30.0000000  0  8G 3G 9G14G15G18G19G21G22
  22287901.2194   -8882421.71549  -6910746.85547                  22287900.2874
        49.0004         34.2504
  23785700.1994  -11565819.07449  -9006892.58647                  23785699.5954
        41.0004         26.5004
  20359041.1984  -18414401.25849 -14327525.29348                  20359038.6834
        50.2504         42.0004
  20284347.6384  -11506844.29349  -8960559.59848                  20284345.6524
        51.5004         41.5004
  22986939.6564   -4368437.69949  -3403419.41447                  22986938.0474
        43.0004         30.5004
  22397193.3084  -18641195.71949 -14506912.32847                  22397190.2314
        47.5004         36.5004
  23570944.5854   -2221027.31649  -1730185.85547                  23570942.9404
        42.0004         26.2504
  21196577.1244   -9195136.18049  -7156948.33248                  21196573.6194
        51.0004         40.5004
 04  6 29 18 28 45.0000000  0  8G 3G 9G14G15G18G19G21G22
  22283871.4694   -8903598.44949  -6927248.23447                  22283870.3634
        48.2504         34.2504
  23780183.3674  -11594811.41849  -9029484.05146                  23780181.8634
        41.5004         24.5004
  20347844.6644  -18473239.26249 -14373373.09048                  20347842.0564
        50.5004         42.0004
  20278032.4704  -11540027.99649  -8986417.03948                  20278031.1284
        51.5004         41.5004
  22984055.3974   -4383599.05549  -3415233.46947                  22984053.1824
        44.5004         30.5004
  22385834.4114  -18700886.93049 -14553424.96547                  22385831.2024
        47.2504         36.7504
  23570787.5664   -2221849.73849  -1730826.74647                  23570786.5984
        41.7504         26.0004
  21190512.8054   -9227005.55549  -7181781.62548                  21190509.0324
        52.0004         40.2504
 04  6 29 18 29  0.0000000  0  8G 3G 9G14G15G18G19G21G22
  22279860.3484   -8924676.33649  -6943672.57447                  22279859.3284
        49.2504         34.5004
  23774693.0704  -11623661.85549  -9051964.90246                  23774692.3754
        40.2504         25.0004
  20336673.1034  -18531946.84449 -14419119.25048                  20336670.3784
        49.7504         42.0004
  20271739.8474  -11573096.51249  -9012184.73048                  20271738.3444
        51.5004         41.5004
  22981173.0944   -4398745.05149  -3427035.56647                  22981171.0564
        44.0004         30.5004
  22374501.9234  -18760439.24649 -14599829.39147                  22374499.2394
        47.5004         36.2504
  23570641.9024   -2222616.95749  -1731424.60546                  23570640.2204
        43.0004         25.2504
  21184454.6854   -9258839.24249  -7206587.09848                  21184451.4604
        50.5004         40.7504
 04  6 29 18 29 15.0000000  0  8G 3G 9G14G15G18G19G21G22
  22275867.6144   -8945656.67649  -6960020.90247                  22275867.1394
        49.0004         33.7504
  23769229.5494  -11652371.48449  -9074336.10246                  23769229.4974
        40.0004         25.2504
  20325526.0074  -18590525.07849 -14464764.62948                  20325523.3904
        48.2504         42.2504
  20265468.9544  -11606050.80549  -9037863.41048                  20265467.1684
        51.7504         42.0004
  22978293.3744   -4413876.70749  -3438826.47347                  22978291.7934
        43.5004         29.2504
  22363195.7814  -18819853.77349 -14646126.42247                  22363192.7004
        45.5004         36.5004
  23570505.9834   -2223330.15649  -1731980.39146                  23570504.8574
        42.0004         25.2504
  21178403.8544   -9290638.34449  -7231365.64148                  21178400.2604
        51.2504         40.7504
 04  6 29 18 29 30.0000000  0  8G 3G 9G14G15G18G19G21G22
  22271894.7164   -8966536.25449  -6976290.73447                  22271894.0694
        49.5004         34.0004
  23763793.9674  -11680936.94949  -9096594.91446                  23763793.4724
        40.0004         24.5004
  20314404.1974  -18648970.35249 -14510306.40648                  20314401.6484
        48.5004         42.2504
  20259220.2834  -11638887.25049  -9063450.25848                  20259218.5224
        52.0004         42.2504
  22975417.0324   -4428990.66049  -3450603.60247                  22975415.6424
        43.2504         29.5004
  22351916.5384  -18879126.75049 -14692313.18047                  22351913.3384
        45.0004         37.0004
  23570381.8154   -2223986.23449  -1732491.67246                  23570380.0664
        41.2504         24.7504
  21172359.5634   -9322399.50849  -7256114.60948                  21172356.2894
        50.7504         40.7504
 04  6 29 18 29 45.0000000  0  8G 3G 9G14G15G18G19G21G22
  22267940.2114   -8987317.03149  -6992483.57447                  22267939.5084
        49.0004         34.5004
  23758385.1704  -11709360.00449  -9118742.76247                  23758385.0034
        39.2504         25.7504
  20303307.5844  -18707284.41449 -14555745.93748                  20303304.9304
        49.0004         42.5004
  20252993.9124  -11671607.52749  -9088946.58648                  20252992.2744
        50.0004         42.0004
  22972544.1214   -4444088.57849  -3462368.21547                  22972542.6754
        45.0004         30.0004
  22340664.2734  -18938259.83649 -14738390.91447                  22340660.6274
        46.5004         36.7504
  23570267.2034   -2224586.93449  -1732959.80546                  23570265.5904
        42.2504         24.0004
  21166322.7354   -9354124.46149  -7280835.35548                  21166318.9834
        49.0004         41.0004
 04  6 29 18 30  0.0000000  0  8G 3G 9G14G15G18G19G21G22
  22264004.7494   -9007997.29349  -7008598.09447                  22264004.5034
        49.0004         35.0004
  23753004.3754  -11737638.54449  -9140777.98046                  23753003.4374
        39.2504         25.5004
  20292236.3804  -18765465.08249 -14601081.52048                  20292233.4864
        48.5004         41.7504
  20246790.0714  -11704209.39149  -9114350.63348                  20246788.2264
        47.2504         42.0004
  22969674.6494   -4459168.31649  -3474118.67647                  22969672.8784
        43.5004         29.5004
  22329438.5074  -18997250.93449 -14784358.00847                  22329434.5304
        45.0004         36.0004
  23570164.3594   -2225130.16849  -1733383.14546                  23570162.3024
        42.0004         23.0004
  21160293.1544   -9385810.98449  -7305526.15648                  21160289.4274
        46.0004         40.5004
 04  6 29 18 30 15.0000000  0  8G 3G 9G14G15G18G19G21G22
  22260088.5744   -9028578.19949  -7024635.19947                  22260088.5144
        49.0004         35.0004
  23747649.9144  -11765773.68049  -9162701.52347                  23747649.7204
        41.2504         25.7504
  20281189.9114  -18823513.30149 -14646313.89848                  20281187.2694
        49.7504         41.7504
  20240608.6554  -11736693.79749  -9139663.16848                  20240606.5324
        50.5004         41.7504
  22966808.1764   -4474230.79349  -3485855.69147                  22966806.5524
        44.5004         28.7504
  22318239.6934  -19056100.79349 -14830215.05547                  22318236.1034
        47.5004         35.5004
  23570071.3064   -2225617.02749  -1733762.53946                  23570069.2884
        43.2504         22.7504
  21154270.3134   -9417460.05149  -7330187.77748                  21154266.6114
        49.0004         40.0004
 04  6 29 18 30 30.0000000  0  8G 3G 9G14G15G18G19G21G22
  22256190.6764   -9049061.95349  -7040596.59047                  22256190.2784
        48.5004         33.5004
  23742322.8544  -11793767.54349  -9184514.94147                  23742322.6134
        40.0004         26.7504
  20270168.5154  -18881431.12149 -14691444.66048                  20270165.7714
        50.5004         42.5004
  20234448.9424  -11769062.70349  -9164885.69948                  20234447.1174
        47.2504         42.5004
  22963945.0034   -4489278.04349  -3497580.84047                  22963943.0764
        45.2504         30.5004
  22307067.1974  -19114811.38349 -14875963.57447                  22307063.8324
        48.5004         36.0004
  23569989.3214   -2226049.84849  -1734099.82846                  23569986.6454
        43.5004         24.2504
  21148254.1964   -9449073.84849  -7354821.90248                  21148250.6654
        46.5004         40.5004
 04  6 29 18 30 45.0000000  0  8G 3G 9G14G15G18G19G21G22
  22252311.8674   -9069446.63349  -7056480.78147                  22252310.7094
        49.0004         33.2504
  23737023.7634  -11821617.96149  -9206216.62147                  23737023.0804
        41.2504         27.5004
  20259172.3924  -18939216.34849 -14736472.11748                  20259169.4204
        50.2504         42.5004
  20228311.6644  -11801313.86749  -9190016.48448                  20228309.8694
        51.0004         42.0004
  22961085.0944   -4504307.71549  -3509292.30147                  22961082.6294
        45.5004         30.0004
  22295922.1194  -19173380.30149 -14921601.69147                  22295918.8384
        48.0004         36.0004
  23569917.8584   -2226426.33649  -1734393.22746                  23569914.9864
        44.0004         24.0004
  21142245.7074   -9480650.02349  -7379426.72748                  21142242.1374
        49.5004         39.7504
 04  6 29 18 31  0.0000000  0  8G 3G 9G14G15G18G19G21G22
  22248451.7444   -9089734.22749  -7072289.30547                  22248449.7794
        49.2504         33.0004
  23731750.5314  -11849326.71149  -9227807.85247                  23731750.7164
        41.5004         27.2504
  20248201.1344  -18996870.62549 -14781397.52748                  20248198.2354
        49.5004         42.5004
  20222196.6074  -11833448.83249  -9215056.72748                  20222195.1174
        46.0004         42.0004
  22958228.2754   -4519321.59849  -3520991.45747                  22958225.8524
        45.2504         30.2504
  22284803.3264  -19231808.98849 -14967130.54347                  22284800.6444
        47.0004         36.2504
  23569856.4974   -2226748.43049  -1734644.25846                  23569854.0724
        43.5004         24.0004
  21136243.7664   -9512190.27349  -7404003.54748                  21136240.1264
        45.7504         40.5004
 04  6 29 18 31 15.0000000  0  8G 3G 9G14G15G18G19G21G22
  22244609.5014   -9109924.75849  -7088022.19947                  22244607.2584
        50.0004         34.0004
  23726505.4574  -11876893.80149  -9249288.71547                  23726505.1044
        41.7504         27.2504
  20237254.7684  -19054393.79349 -14826220.77048                  20237252.1334
        47.5004         42.0004
  20216103.6274  -11865467.36749  -9240006.23048                  20216102.1314
        46.7504         42.0004
  22955374.1064   -4534319.45749  -3532678.10247                  22955372.1004
        45.7504         30.5004
  22273711.5824  -19290097.36749 -15012550.06647                  22273708.5154
        44.0004         36.2504
  23569805.9434   -2227016.08249  -1734852.88746                  23569803.1184
        44.0004         25.0004
  21130248.8414   -9543694.51249  -7428552.29748                  21130244.9984
        46.7504         40.0004
 04  6 29 18 31 30.0000000  0  8G 3G 9G14G15G18G19G21G22
  22240785.8904   -9130016.97349  -7103678.47347                  22240783.9554
        49.5004         33.7504
  23721286.3374  -11904317.67649  -9270657.95347                  23721286.8024
        40.2504         25.7504
  20226333.4994  -19111784.12149 -14870940.50048                  20226331.4994
        47.5004         41.7504
  20210032.9724  -11897367.78549  -9264863.70748                  20210031.7294
        50.0004         42.0004
  22952523.4554   -4549299.61749  -3544350.98847                  22952521.5434
        46.0004         30.7504
  22262646.5824  -19348243.68049 -15057858.89547                  22262644.0694
        44.0004         36.2504
  23569765.1314   -2227227.71149  -1735017.82446                  23569763.1504
        44.0004         24.5004
  21124260.8734   -9575161.16049  -7453071.77348                  21124257.2284
        49.5004         40.2504
 04  6 29 18 31 45.0000000  0  8G 3G 9G14G15G18G19G21G22
  22236980.7534   -9150012.56249  -7119259.48047                  22236978.1024
        49.2504         33.0004
  23716094.1794  -11931599.91449  -9291916.87546                  23716095.2034
        39.2504         25.0004
  20215437.5484  -19169043.19549 -14915557.95748                  20215435.0654
        49.5004         41.5004
  20203984.8264  -11929151.51649  -9289630.24648                  20203983.2264
        51.2504         42.0004
  22949676.3604   -4564263.67649  -3556011.31247                  22949673.6574
        46.2504         30.5004
  22251608.6334  -19406249.37949 -15103058.14847                  22251605.4404
        47.5004         36.5004
  23569735.5184   -2227384.98449  -1735140.41846                  23569733.0634
        44.5004         24.5004
  21118279.9024   -9606591.60549  -7477563.02748                  21118275.8454
        51.0004         39.7504
 04  6 29 18 32  0.0000000  0  8G 3G 9G14G15G18G19G21G22
  22233194.0064   -9169912.23849  -7134765.73047                  22233191.6394
        49.7504         33.5004
  23710930.0794  -11958740.99249  -9313065.76646                  23710930.4274
        41.5004         25.5004
  20204566.6244  -19226171.43049 -14960073.46548                  20204564.0484
        50.2504         41.7504
  20197958.7954  -11960818.95749  -9314306.19148                  20197957.1254
        51.7504         42.0004
  22946831.3794   -4579212.00049  -3567659.37947                  22946829.3354
        46.5004         30.7504
  22240597.6084  -19464114.74649 -15148148.06647                  22240594.3684
        48.0004         36.0004
  23569715.9444   -2227488.53949  -1735221.14546                  23569713.7974
        44.2504         24.5004
  21112305.5774   -9637986.41049  -7502026.52048                  21112301.5904
        51.5004         40.0004
 04  6 29 18 32 15.0000000  0  8G 3G 9G14G15G18G19G21G22
  22229425.2674   -9189715.36749  -7150196.75847                  22229423.2914
        48.5004         33.5004
  23705791.8734  -11985740.29749  -9334104.21946                  23705792.7364
        40.7504         25.5004
  20193720.3804  -19283167.96149 -15004486.35248                  20193717.9024
        50.5004         42.5004
  20191954.8374  -11992369.19949  -9338890.79748                  20191953.5014
        51.7504         42.2504
  22943990.0194   -4594143.78949  -3579294.57447                  22943988.2094
        46.7504         30.2504
  22229612.6234  -19521838.96949 -15193127.98047                  22229610.0304
        47.5004         36.0004
  23569706.4414   -2227537.50849  -1735259.33646                  23569703.9154
        44.0004         22.5004
  21106338.1174   -9669344.71949  -7526461.55948                  21106334.6684
        51.0004         40.0004
 04  6 29 18 32 30.0000000  0  8G 3G 9G14G15G18G19G21G22
  22225675.4104   -9209422.64549  -7165553.10247                  22225673.4194
        49.0004         33.0004
  23700680.8824  -12012598.39849  -9355032.62146                  23700681.1684
        38.2504         24.2504
  20182899.3404  -19340033.27749 -15048796.97748                  20182896.3964
        49.5004         42.5004
  20185973.4734  -12023802.64149  -9363384.38348                  20185972.0584
        52.0004         41.7504
  22941151.5004   -4609059.52049  -3590917.23847                  22941149.3594
        46.0004         30.2504
  22218654.7454  -19579422.36749 -15237998.16047                  22218651.5304
        48.5004         35.7504
  23569706.6314   -2227532.45749  -1735255.42646                  23569704.9394
        42.5004         22.2504
  21100377.9464   -9700667.05549  -7550868.58248                  21100374.1034
        51.0004         40.0004
 04  6 29 18 32 45.0000000  0  8G 3G 9G14G15G18G19G21G22
  22221942.5504   -9229035.84449  -7180836.14547                  22221940.9794
        49.0004         33.5004
  23695597.1534  -12039316.63349  -9375852.05546                  23695597.5154
        39.5004         25.5004
  20172102.8664  -19396768.71549 -15093006.41048                  20172100.3514
        50.2504         42.0004
  20180013.9394  -12055120.48849  -9387787.91048                  20180012.6364
        51.5004         41.7504
  22938316.1374   -4623960.49649  -3602528.41047                  22938314.2114
        46.5004         30.5004
  22207723.5214  -19636866.07849 -15282759.50047                  22207719.9824
        47.2504         35.5004
  23569717.9714   -2227474.86749  -1735210.59046                  23569715.6304
        42.5004         22.0004
  21094423.9934   -9731954.68449  -7575248.57448                  21094420.4904
        51.5004         40.0004
 04  6 29 18 33  0.0000000  0  8G 3G 9G14G15G18G19G21G22
  22218228.7834   -9248555.13749  -7196045.99247                  22218226.9584
        49.0004         34.2504
  23690538.5984  -12065895.12149  -9396562.58646                  23690539.3184
        37.2504         24.0004
  20161331.4354  -19453374.25449 -15137114.61748                  20161328.6644
        50.2504         42.0004
  20174076.1514  -12086322.69149  -9412101.32448                  20174074.3074
        51.2504         42.2504
  22935483.5174   -4638846.53949  -3614127.94947                  22935481.6594
        47.0004         31.5004
  22196818.9884  -19694170.05549 -15327411.94947                  22196815.4594
        47.5004         35.2504
  23569739.0844   -2227364.88349  -1735124.93046                  23569736.5524
        43.2504         21.2504
  21088476.7084   -9763207.66849  -7599601.55548                  21088473.4254
        51.5004         40.0004
 04  6 29 18 33 15.0000000  0  8G 3G 9G14G15G18G19G21G22
  22214531.8434   -9267980.05949  -7211182.32447                  22214529.8454
        48.7504         32.7504
  23685508.1114  -12092333.21949  -9417163.73446                  23685508.2864
        38.7504         22.5004
  20150584.5354  -19509849.07449 -15181120.97348                  20150581.9484
        48.7504         42.0004
  20168160.9584  -12117408.44949  -9436323.99648                  20168159.4344
        52.2504         42.0004
  22932653.8824   -4653716.94149  -3625715.29747                  22932652.2224
        46.7504         30.7504
  22185941.1834  -19751333.49649 -15371954.87547                  22185937.5874
        45.0004         35.5004
  23569770.1694   -2227201.82849  -1734997.93446                  23569767.1284
        42.0004         20.5004
  21082536.0464   -9794425.22349  -7623926.93448                  21082532.9084
        51.0004         39.7504
 04  6 29 18 33 30.0000000  0  8G 3G 9G14G15G18G19G21G22
  22210853.6974   -9287309.60549  -7226244.33247                  22210851.1084
        48.5004         33.2504
  23680504.1084  -12118629.88749  -9437654.66046                  23680503.7854
        40.0004         23.7504
  20139862.6104  -19566192.00449 -15225024.55148                  20139859.8854
        48.5004         41.7504
  20162267.9354  -12148376.44549  -9460454.91048                  20162266.3934
        51.7504         42.0004
  22929827.5604   -4668570.47349  -3637289.48847                  22929825.7114
        46.2504         31.0004
  22175090.0174  -19808355.07049 -15416387.28147                  22175086.8944
        45.2504         34.5004
  23569811.4014   -2226984.57849  -1734828.72746                  23569808.3074
        41.0004         21.2504
  21076602.4694   -9825606.15649  -7648223.76648                  21076599.0344
        50.7504         39.5004
 04  6 29 18 33 45.0000000  0  8G 3G 9G14G15G18G19G21G22
  22207193.4954   -9306545.26249  -7241233.16847                  22207190.7484
        49.0004         33.5004
  23675526.2614  -12144786.39549  -9458036.35546                  23675527.0634
        40.5004         25.2504
  20129165.7404  -19622404.28949 -15268826.32448                  20129163.1644
        49.7504         41.5004
  20156397.0734  -12179227.84449  -9484494.96548                  20156395.5104
        51.5004         42.2504
  22927003.9604   -4683408.34049  -3648851.47347                  22927002.2514
        45.2504         31.5004
  22164266.5334  -19865235.84849 -15460709.97747                  22164263.3254
        47.0004         35.2504
  23569862.9984   -2226714.68749  -1734618.44946                  23569859.4294
        40.5004         20.5004
  21070675.6904   -9856751.61749  -7672492.96948                  21070672.1564
        50.7504         39.5004
 04  6 29 18 34  0.0000000  0  8G 3G 9G14G15G18G19G21G22
  22203551.3764   -9325684.21949  -7256146.68447                  22203549.1554
        49.2504         33.5004
  23670576.7434  -12170799.74649  -9478306.52047                  23670577.0214
        40.0004         26.2504
  20118494.6014  -19678482.76249 -15312523.83648                  20118491.6324
        47.2504         41.7504
  20150548.7584  -12209959.60249  -9508441.79348                  20150547.4694
        50.0004         42.2504
  22924183.7424   -4698227.39549  -3660398.80547                  22924182.7644
        44.5004         30.5004
  22153469.3524  -19921972.73449 -15504920.54747                  22153466.6304
        44.0004         35.0004
  23569924.9254   -2226389.15249  -1734364.80546                  23569921.8104
        42.0004         21.0004
  21064756.4524   -9887858.55949  -7696732.14548                  21064752.8394
        49.2504         39.7504
 04  6 29 18 34 15.0000000  0  8G 3G 9G14G15G18G19G21G22
  22199927.3934   -9344729.00049  -7270986.77747                  22199924.3474
        48.0004         33.0004
  23665652.9274  -12196672.29749  -9498466.93447                  23665654.1964
        41.2504         27.0004
  20107848.3524  -19734429.61349 -15356118.79748                  20107845.4184
        47.0004         42.0004
  20144723.3734  -12240573.82049  -9532297.03548                  20144721.9464
        47.5004         42.0004
  22921366.9654   -4713029.84049  -3671933.21947                  22921365.7014
        45.0004         30.7504
  22142699.7424  -19978567.81249 -15549020.62147                  22142696.9944
        44.0004         34.7504
  23569996.8454   -2226010.16849  -1734069.52746                  23569994.0484
        40.5004         20.5004
  21058843.8014   -9918929.23849  -7720943.07047                  21058840.6084
        45.5004         39.2504
 04  6 29 18 34 30.0000000  0  8G 3G 9G14G15G18G19G21G22
  22496113.5344   -9363679.67649  -7285753.57047                  22496110.9634
        49.7504         32.0004
  23960549.3304  -12222403.53949  -9518517.27347                  23960549.5454
        39.5004         26.7504
  20397020.0004  -19790242.33649 -15399609.22748                  20397017.0254
        49.0004         41.7504
  20438712.5844  -12271069.52049  -9556059.93448                  20438711.0714
        45.7504         42.0004
  23218345.7014   -4727815.78949  -3683454.75847                  23218344.9324
        45.2504         31.2504
  22431750.0464  -20035018.48449 -15593008.14547                  22431747.3454
        47.0004         35.2504
  23869871.6004   -2225579.09849  -1733733.68746                  23869868.8394
        41.5004         20.5004
  21352730.9364   -9949962.76649  -7745125.03148                  21352727.3294
        44.7504         39.5004
 04  6 29 18 34 45.0000000  0  8G 3G 9G14G15G18G19G21G22
  22492525.2084   -9382537.43049  -7300447.94547                  22492523.3864
        48.2504         32.5004
  23955679.6214  -12247995.43049  -9538458.99647                  23955679.7284
        39.7504         26.0004
  20386423.2474  -19845926.73449 -15442999.67248                  20386420.9954
        49.7504         41.7504
  20432931.4314  -12301448.99649  -9579732.26248                  20432929.9784
        49.2504         42.0004
  23215535.4174   -4742585.60549  -3694963.72347                  23215534.2274
        40.5004         31.0004
  22421034.3844  -20091330.19149 -15636887.41447                  22421031.2544
        47.5004         35.0004
  23869964.2084   -2225094.27349  -1733355.96146                  23869961.3154
        40.2504         21.2504
  21346831.8104   -9980961.52749  -7769279.93047                  21346828.3984
        48.0004         39.2504
 04  6 29 18 35  0.0000000  0  8G 3G 9G14G15G18G19G21G22
  22488955.1744   -9401301.10949  -7315069.02347                  22488952.5504
        49.2504         33.5004
  23950836.2434  -12273446.04749  -9558290.67246                  23950836.1974
        39.2504         25.2504
  20375852.3354  -19901478.89849 -15486287.07048                  20375850.0704
        50.2504         41.7504
  20427172.6794  -12331710.01249  -9603312.28548                  20427171.7644
        47.0004         42.5004
  23212728.1824   -4757337.91849  -3706459.03147                  23212726.8934
        43.0004         30.0004
  22410345.5734  -20147499.06649 -15680655.37547                  22410342.6974
        47.7504         35.0004
  23870066.3804   -2224555.63349  -1732936.27046                  23870064.5794
        42.2504         21.0004
  21340940.4364  -10011923.31249  -7793406.00447                  21340936.1524
        46.5004         39.0004
 04  6 29 18 35 15.0000000  0  8G 3G 9G14G15G18G19G21G22
  22485401.6374   -9419971.56649  -7329617.43747                  22485400.4594
        48.5004         33.0004
  23946019.6324  -12298756.28149  -9578012.92647                  23946020.0994
        38.7504         26.2504
  20365305.9114  -19956899.43449 -15529471.89848                  20365303.5734
        49.5004         42.0004
  20421437.0384  -12361853.21149  -9626800.49648                  20421435.8274
        49.2504         42.2504
  23209923.9984   -4772073.41049  -3717941.25047                  23209923.3094
        42.2504         30.5004
  22399684.2444  -20203525.82449 -15724312.59847                  22399681.0914
        47.2504         35.2504
  23870179.4044   -2223964.04349  -1732475.35946                  23870177.9074
        40.7504         22.7504
  21335055.2974  -10042848.80549  -7817503.79348                  21335051.3424
        48.7504         39.7504
 04  6 29 18 35 30.0000000  0  9G 3G 9G14G15G18G19G21G22G25
  22481866.2084   -9438550.05949  -7344094.21947                  22481865.2604
        48.7504         34.0004
  23941230.1244  -12323927.11349  -9597626.60547                  23941230.0674
        39.0004         26.7504
  20354784.7654  -20012189.34049 -15572554.94148                  20354782.3004
        49.5004         41.0004
  20415722.9704  -12391879.51249  -9650197.61748                  20415721.8964
        46.0004         42.5004
  23207123.1164   -4786793.10249  -3729411.14847                  23207121.7664
        42.5004         31.0004
  22389049.1484  -20259411.25049 -15767859.69147                  22389046.6324
        47.5004         36.0004
  23870301.7374   -2223320.43749  -1731973.90246                  23870300.1854
        40.0004         22.2504
  21329176.8794  -10073738.85949  -7841573.96948                  21329173.4354
        46.2504         40.0004
  24564339.1424
        34.2504
 04  6 29 18 35 45.0000000  0  9G 3G 9G14G15G18G19G21G22G25
  22478348.5134   -9457037.41049  -7358499.96947                  22478347.0484
        49.0004         34.0004
  23936466.7724  -12348959.33249  -9617132.25847                  23936467.0014
        38.7504         28.0004
  20344287.9154  -20067349.14849 -15615536.61348                  20344285.6134
        49.7504         41.5004
  20410031.8524  -12421789.43449  -9673504.05548                  20410030.1294
        48.0004         42.2504
  23204325.0474   -4801497.54349  -3740869.16447                  23204323.3364
        40.7504         30.5004
  22378441.2614  -20315155.83649 -15811297.03147                  22378438.5524
        47.2504         35.0004
  23870433.9104   -2222625.54349  -1731432.48046                  23870432.3614
        41.2504         23.0004
  21323305.5474  -10104594.08649  -7865617.02048                  21323302.3334
        48.5004         40.2504
  24545667.1404    -116414.46548
        33.5004
 04  6 29 18 36  0.0000000  0  9G 3G 9G14G15G18G19G21G22G25
  22474846.9434   -9475435.25049  -7372835.96547                  22474846.3254
        48.5004         34.0004
  23931728.7644  -12373854.33249  -9636531.01647                  23931729.4134
        40.7504         26.5004
  20333815.8684  -20122380.18749 -15658417.94548                  20333813.3494
        49.5004         41.2504
  20404362.0544  -12451584.16849  -9696720.73848                  20404360.3844
        51.0004         42.0004
  23201529.3754   -4816188.03949  -3752316.33247                  23201528.0954
        42.5004         31.5004
  22367860.3454  -20370760.84849 -15854625.62147                  22367857.0494
        47.0004         35.0004
  23870576.3194   -2221881.00849  -1730852.37146                  23870574.3034
        40.5004         23.5004
  21317440.5764  -10135415.77349  -7889633.92648                  21317436.8534
        50.5004         40.2504
  24526995.5674    -214534.32848
        35.0004
 04  6 29 18 36 15.0000000  0  9G 3G 9G14G15G18G19G21G22G25
  22471363.7084   -9493742.14849  -7387101.09047                  22471362.7154
        48.0004         35.0004
  23927018.6254  -12398610.57049  -9655821.61347                  23927018.5174
        40.7504         28.0004
  20323368.9564  -20177280.73849 -15701197.59848                  20323365.9914
        50.0004         41.5004
  20398714.4094  -12481262.06249  -9719846.36748                  20398713.2284
        51.5004         42.0004
  23198737.0394   -4830862.77349  -3763751.20347                  23198735.0044
        44.5004         30.5004
  22357305.7564  -20426224.47749 -15897844.03947                  22357302.7154
        47.5004         35.2504
  23870727.2784   -2221085.18749  -1730232.32446                  23870726.6004
        39.5004         22.7504
  21311581.8404  -10166202.27049  -7913623.41448                  21311578.1114
        51.5004         39.7504
  24508321.4324    -312668.22349
        38.5004
 04  6 29 18 36 30.0000000  0  9G 3G 9G14G15G18G19G21G22G25
  22467896.3524   -9511961.99249  -7401298.40647                  22467896.5734
        48.7504         35.0004
  23922333.1564  -12423231.87549  -9675007.04747                  23922333.0634
        40.2504         28.0004
  20312945.6034  -20232054.50449 -15743878.44948                  20312942.8704
        49.2504         41.5004
  20393088.3944  -12510826.70749  -9742883.75848                  20393086.9624
        51.7504         42.2504
  23195947.6534   -4845525.42249  -3775176.67647                  23195944.6734
        44.7504         30.7504
  22346778.0184  -20481550.37149 -15940955.14547                  22346775.0284
        48.0004         35.2504
  23870887.6154   -2220241.89449  -1729575.32446                  23870887.2374
        38.0004         22.5004
  21305729.5274  -10196957.35249  -7937588.41848                  21305726.3064
        52.0004         40.5004
  24489643.2194    -410819.58649
        38.0004
 04  6 29 18 36 45.0000000  0  9G 3G 9G14G15G18G19G21G22G25
  22464444.8184   -9530096.47749  -7415429.18747                  22464445.3674
        47.7504         34.2504
  23917673.0174  -12447719.72349  -9694088.50847                  23917673.4974
        39.0004         29.2504
  20302546.5424  -20286703.00049 -15786461.69148                  20302543.7384
        49.2504         42.0004
  20387483.9234  -12540279.38749  -9765833.91048                  20387482.4844
        50.7504         41.7504
  23193158.8104   -4860177.41049  -3786593.81647                  23193156.7374
        43.0004         30.5004
  22336275.8974  -20536739.84849 -15983959.94147                  22336272.2794
        48.2504         35.5004
  23871056.4844   -2219352.55549  -1728882.32046                  23871055.9974
        38.0004         22.2504
  21299882.7014  -10227682.34049  -7961529.96548                  21299879.0564
        51.0004         39.5004
  24470962.8764    -508989.35949
        38.5004
 04  6 29 18 37  0.0000000  0  9G 3G 9G14G15G18G19G21G22G25
  22461011.0654   -9548147.11749  -7429494.67247                  22461010.1144
        49.0004         34.0004
  23913038.8164  -12472075.46149  -9713067.05547                  23913038.4374
        40.5004         27.5004
  20292170.9674  -20341227.50049 -15828948.31248                  20292167.9664
        50.2504         42.7504
  20381899.9224  -12569621.38749  -9788697.82848                  20381898.5754
        51.7504         42.2504
  23190372.5884   -4874819.96949  -3798003.63747                  23190370.1404
        42.7504         29.5004
  22325798.8864  -20591794.12949 -16026859.38747                  22325795.6334
        48.7504         35.2504
  23871234.5724   -2218418.47349  -1728154.55146                  23871232.8084
        40.0004         21.0004
  21294041.4454  -10258378.53149  -7985449.09048                  21294037.8764
        50.7504         39.5004
  24452277.5344    -607178.62949
        37.5004
 04  6 29 18 37 15.0000000  0  9G 3G 9G14G15G18G19G21G22G25
  22457591.5914   -9566114.11349  -7443494.95347                  22457590.9954
        48.5004         34.7504
  23908429.0794  -12496299.12149  -9731942.64847                  23908429.1954
        41.5004         26.5004
  20281818.8534  -20395627.79749 -15871338.15248                  20281815.9954
        49.2504         42.5004
  20376337.7384  -12598852.50049  -9811475.33648                  20376336.1814
        50.7504         41.7504
  23187587.6344   -4889452.76649  -3809405.84047                  23187585.8124
        44.0004         29.5004
  22315348.9734  -20646712.86749 -16069653.21147                  22315344.4644
        48.5004         35.5004
  23871420.8714   -2217439.78949  -1727391.95346                  23871418.9824
        38.7504         20.0004
  21288205.4204  -10289045.70349  -8009345.59448                  21288202.1324
        51.5004         39.7504
  24433589.3094    -705386.69949
        38.0004
 04  6 29 18 37 30.0000000  0  9G 3G 9G14G15G18G19G21G22G25
  22454188.6724   -9583998.68449  -7457431.00447                  22454187.2074
        49.2504         34.2504
  23903844.0744  -12520391.73849  -9750716.15247                  23903845.1804
        42.0004         27.5004
  20271490.1244  -20449904.85249 -15913631.95748                  20271487.5634
        48.7504         42.0004
  20370796.0804  -12627973.57049  -9834167.08648                  20370794.4084
        51.5004         41.7504
  23184805.3514   -4904076.89549  -3820801.28947                  23184803.3494
        44.0004         30.2504
  22304923.7664  -20701497.04349 -16112342.19547                  22304919.9174
        49.2504         35.2504
  23871615.8884   -2216417.27049  -1726595.24246                  23871614.6884
        40.0004         21.2504
  21282375.2484  -10319684.92649  -8033220.32848                  21282371.7124
        50.2504         39.7504
  24414897.6764    -803614.18049
        38.5004
 04  6 29 18 37 45.0000000  0  9G 3G 9G14G15G18G19G21G22G25
  22450800.8764   -9601800.98449  -7471302.94547                  22450799.6814
        49.0004         34.5004
  23899284.7564  -12544353.31649  -9769387.53147                  23899285.2554
        41.5004         27.0004
  20261185.0824  -20504058.65649 -15955829.73448                  20261182.4854
        49.7504         41.7504
  20365275.6484  -12656984.48849  -9856772.99648                  20365274.4214
        50.5004         41.7504
  23182024.6714   -4918692.24249  -3832189.88347                  23182021.9864
        44.2504         30.0004
  22294524.5354  -20756146.67249 -16154926.33247                  22294521.1024
        48.7504         35.7504
  23871818.4164   -2215351.21949  -1725764.61746                  23871818.0524
        37.5004         20.5004
  21276550.1374  -10350296.04749  -8057073.16848                  21276546.4804
        50.7504         40.0004
  24396201.2154    -901860.43749
        38.0004
 04  6 29 18 38  0.0000000  0  9G 3G 9G14G15G18G19G21G22G25
  22447428.9964   -9619519.93449  -7485109.94547                  22447428.7824
        49.0004         34.5004
  23894750.1974  -12568182.64849  -9787955.86746                  23894750.6864
        42.0004         25.0004
  20250903.6174  -20558087.80949 -15997930.37148                  20250900.8914
        49.0004         41.7504
  20359775.9764  -12685883.94549  -9879292.04348                  20359775.0434
        51.5004         42.0004
  23179244.7284   -4933297.53149  -3843570.65647                  23179242.8164
        44.0004         30.0004
  22284150.3254  -20810660.04749 -16197404.29747                  22284147.5994
        48.0004         35.7504
  23872030.6174   -2214240.50549  -1724899.21946                  23872029.6014
        38.7504         21.0004
  21270730.4434  -10380877.57049  -8080902.93047                  21270726.7014
        51.0004         39.2504
  24377502.7324   -1000123.86749   -761183.43456                  24377498.7324
        37.2504         20.0004
 04  6 29 18 38 15.0000000  0  9G 3G 9G14G15G18G19G21G22G25
  22444073.6264   -9637154.96549  -7498851.56247                  22444072.8434
        49.2504         34.2504
  23890240.4674  -12591879.14549  -9806420.68746                  23890241.7014
        42.5004         24.7504
  20240645.7614  -20611991.60549 -16039933.33248                  20240643.4344
        49.0004         42.0004
  20354298.2044  -12714671.04749  -9901723.56648                  20354296.9604
        50.7504         41.7504
  23176467.6334   -4947891.67249  -3854942.73047                  23176465.7704
        44.7504         29.0004
  22273803.0204  -20865036.37549 -16239775.46947                  22273800.0514
        48.0004         35.0004
  23872250.2184   -2213084.51249  -1723998.46546                  23872248.8804
        39.0004         21.0004
  21264916.8684  -10411428.78549  -8104709.08648                  21264913.2994
        50.2504         39.7504
  24358801.0884   -1098403.22349   -837764.69946                  24358799.0384
        40.0004         21.0004
 04  6 29 18 38 30.0000000  0  9G 3G 9G14G15G18G19G21G22G25
  22440733.6744   -9654704.81249  -7512526.78547                  22440733.1324
        49.7504         34.7504
  23885756.9454  -12615441.31249  -9824780.81246                  23885757.4784
        41.7504         24.5004
  20230412.6984  -20665768.35249 -16081837.29348                  20230410.1244
        49.2504         42.0004
  20348841.8294  -12743344.06649  -9924066.18448                  20348840.3304
        51.0004         41.5004
  23173692.9294   -4962473.05949  -3866304.87947                  23173690.4484
        45.0004         29.0004
  22263482.3084  -20919274.00849 -16282038.57047                  22263478.8614
        48.5004         35.2504
  23872479.0194   -2211881.62549  -1723061.16446                  23872477.6844
        38.0004         20.5004
  21259109.4214  -10441948.01249  -8128490.30947                  21259105.8404
        50.0004         39.2504
  24340097.2304   -1196696.70349   -914357.01246                  24340095.8504
        40.0004         22.5004
 04  6 29 18 38 45.0000000  0  9G 3G 9G14G15G18G19G21G22G25
  22437409.6144   -9672170.31649  -7526136.28547                  22437410.0704
        48.0004         33.7504
  23881299.1944  -12638869.79349  -9843036.80546                  23881299.0794
        43.2504         25.2504
  20220203.1464  -20719418.69949 -16123642.75848                  20220200.7334
        49.0004         42.2504
  20343407.0714  -12771903.67249  -9946320.41848                  20343405.6614
        50.2504         41.2504
  23170920.2544   -4977042.27749  -3877657.54347                  23170918.3854
        45.5004         29.5004
  22253187.4064  -20973373.48049 -16324194.02747                  22253185.2624
        47.2504         36.0004
  23872716.3924   -2210632.53149  -1722087.91846                  23872715.8244
        38.7504         20.5004
  21253307.7444  -10472435.88749  -8152247.09848                  21253303.9784
        49.7504         39.5004
  24321389.2874   -1295004.40649   -990960.37146                  24321389.1234
        41.0004         22.7504
 04  6 29 18 39  0.0000000  0  9G 3G 9G14G15G18G19G21G22G25
  22434102.5884   -9689551.31249  -7539679.96547                  22434101.8894
        48.0004         34.2504
  23876865.8144  -12662164.41049  -9861188.45346                  23876866.2814
        43.7504         25.5004
  20210018.1954  -20772942.26249 -16165349.43048                  20210015.8414
        49.5004         42.0004
  20337993.7984  -12800349.33649  -9968485.89148                  20337992.2694
        51.5004         41.5004
  23168150.4044   -4991599.11749  -3889000.57447                  23168148.2434
        44.0004         29.2504
  22242919.3274  -21027334.41049 -16366241.50447                  22242916.2984
        48.5004         36.0004
  23872962.9044   -2209336.77049  -1721078.30146                  23872961.9704
        37.2504         19.5004
  21247512.1084  -10502891.99249  -8175979.13347                  21247508.8714
        50.7504         38.5004
  24302678.8884   -1393325.54349  -1067574.17646                  24302679.8244
        42.0004         24.2504
 04  6 29 18 39 15.0000000  0  9G 3G 9G14G15G18G19G21G22G25
  22430811.1474   -9706848.04349  -7553157.96147                  22430810.7204
        48.5004         34.5004
  23872458.4454  -12685325.18749  -9879235.81246                  23872458.8754
        43.0004         25.5004
  20199857.0304  -20826339.02349 -16206957.29348                  20199854.7614
        49.2504         41.7504
  20332602.4514  -12828681.00849  -9990562.52048                  20332601.1384
        51.7504         40.7504
  23165382.0644   -5006143.26249  -3900333.69547                  23165380.5024
        44.5004         29.2504
  22232677.2604  -21081156.64149 -16408180.91847                  22232674.0874
        47.5004         35.5004
  23873217.8894   -2207994.62149  -1720032.52346                  23873216.6974
        37.5004         19.2504
  21241722.4874  -10533316.33249  -8199686.42247                  21241718.9944
        51.0004         38.2504
  24283966.9414   -1491659.55949  -1144198.05946                  24283968.0974
        42.5004         25.5004
 04  6 29 18 39 30.0000000  0  9G 3G 9G14G15G18G19G21G22G25
  22427535.4114   -9724062.39149  -7566571.76247                  22427535.5504
        48.0004         34.2504
  23868075.6464  -12708353.94949  -9897180.30946                  23868076.8814
        41.5004         24.7504
  20189719.6724  -20879610.62949 -16248467.63348                  20189717.6504
        48.2504         42.2504
  20327232.8044  -12856900.27049 -10012551.57448                  20327230.9734
        51.7504         41.2504
  23162617.4354   -5020676.25849  -3911658.12547                  23162615.2554
        44.0004         29.5004
  22222461.2934  -21134841.63349 -16450013.38347                  22222458.8324
        46.2504         36.0004
  23873482.5734   -2206607.96149  -1718952.08646                  23873480.7614
        38.0004         18.5004
  21235938.7514  -10563710.54749  -8223370.22347                  21235935.4184
        50.5004         39.0004
  24265251.7304   -1590007.89149  -1220833.10247                  24265252.9474
        42.7504         25.7504
 04  6 29 18 39 45.0000000  0  9G 3G 9G14G15G18G19G21G22G25
  22424275.3714   -9741193.78149  -7579920.93047                  22424275.4234
        48.0004         34.7504
  23863719.4974  -12731249.83249  -9915021.29347                  23863720.5794
        42.0004         25.7504
  20179606.4554  -20932756.16049 -16289879.73048                  20179604.2084
        46.5004         41.7504
  20321884.3404  -12885006.16449 -10034452.28148                  20321882.5144
        51.2504         41.2504
  23159853.5444   -5035197.19149  -3922973.16447                  23159852.3284
        43.7504         29.5004
  22212271.6804  -21188388.53949 -16491738.24647                  22212268.9934
        44.0004         36.5004
  23873755.3864   -2205175.87949  -1717836.22746                  23873752.6844
        37.5004         17.5004
  21230160.9144  -10594073.73449  -8247029.85247                  21230157.2024
        49.7504         38.5004
  24246534.2644   -1688369.21149  -1297478.23847                  24246534.9434
        43.0004         27.2504
 04  6 29 18 40  0.0000000  0  9G 3G 9G14G15G18G19G21G22G25
  22421031.2334   -9758243.03549  -7593206.09447                  22421030.3434
        47.7504         34.0004
  23859387.6214  -12754013.60949  -9932759.28146                  23859388.7714
        42.0004         24.5004
  20169517.2714  -20985776.14549 -16331194.01648                  20169515.0394
        45.2504         41.5004
  20316557.3824  -12912999.21549 -10056265.07048                  20316555.4944
        51.0004         41.2504
  23157092.5184   -5049706.59849  -3934279.22747                  23157090.8984
        43.7504         28.0004
  22202108.0794  -21241797.78549 -16533355.84847                  22202104.9354
        43.0004         36.0004
  23874035.3834   -2203698.97749  -1716685.43746                  23874033.4884
        37.7504         19.2504
  21224388.7554  -10624406.38349  -8270665.68747                  21224385.1034
        50.2504         38.7504
  24227813.8554   -1786743.56249  -1374133.58646                  24227814.9044
        42.5004         24.0004
 04  6 29 18 40 15.0000000  0  9G 3G 9G14G15G18G19G21G22G25
  22417802.5754   -9775209.22749  -7606426.53147                  22417802.1294
        48.5004         33.7504
  23855081.4534  -12776644.10949  -9950393.48446                  23855081.8884
        40.5004         22.2504
  20159451.9244  -21038669.43749 -16372409.56648                  20159449.5704
        47.0004         41.7504
  20311252.0524  -12940878.03549 -10077988.84848                  20311250.3484
        51.0004         41.0004
  23154334.0734   -5064203.32849  -3945575.39547                  23154331.7254
        44.0004         28.7504
  22191970.3674  -21295068.16049 -16574865.23847                  22191968.1684
        44.2504         35.7504
  23874325.3094   -2202176.09449  -1715498.79746                  23874323.1224
        36.7504         18.2504
  21218622.5934  -10654707.16449  -8294276.69147                  21218618.7554
        50.7504         38.7504
  24209092.0444   -1885129.30949  -1450797.76647                  24209093.4154
        42.5004         26.7504
 04  6 29 18 40 30.0000000  0  9G 3G 9G14G15G18G19G21G22G25
  22414589.3254   -9792093.91849  -7619583.45347                  22414588.2474
        47.7504         34.2504
  23850799.3944  -12799142.97749  -9967925.06646                  23850799.0784
        41.0004         22.2504
  20149410.5134  -21091437.48449 -16413527.52748                  20149408.2874
        48.5004         41.7504
  20305968.6524  -12968644.09449 -10099624.73848                  20305966.7824
        50.2504         40.7504
  23151577.3944   -5078688.57049  -3956862.60547                  23151575.5684
        45.0004         28.2504
  22181860.2604  -21348200.93749 -16616267.39847                  22181857.2524
        46.2504         35.2504
  23874624.1044   -2200608.79749  -1714277.61346                  23874621.1534
        37.7504         17.5004
  21212862.5074  -10684977.57049  -8317864.02047                  21212858.7184
        49.5004         39.0004
  24190367.3004   -1983527.59449  -1527471.74247                  24190368.7414
        42.5004         28.0004
 04  6 29 18 40 45.0000000  0  9G 3G 9G14G15G18G19G21G22G25
  22411391.7534   -9808897.47349  -7632677.15247                  22411391.4064
        47.2504         34.0004
  23846543.2074  -12821510.32449  -9985354.17246                  23846543.0064
        40.7504         22.5004
  20139393.0544  -21144080.33649 -16454547.93048                  20139390.6064
        49.0004         41.5004
  20300706.2644  -12996297.34449 -10121172.73048                  20300704.4704
        51.2504         40.7504
  23148823.3964   -5093162.33649  -3968140.87147                  23148821.0114
        45.2504         29.0004
  22171775.6584  -21401196.05149 -16657562.31247                  22171772.0404
        47.0004         35.5004
  23874930.5224   -2198997.38749  -1713022.04746                  23874928.0794
        38.0004         16.2504
  21207107.6224  -10715217.53149  -8341427.63347                  21207103.7794
        50.7504         39.2504
  24171640.5174   -2081938.05949  -1604155.18447                  24171641.0474
        44.0004         27.5004
 04  6 29 18 41  0.0000000  0  9G 3G 9G14G15G18G19G21G22G25
  22408209.5904   -9825621.30149  -7645708.74647                  22408209.2654
        47.5004         33.5004
  23842311.7514  -12843747.37549 -10002681.77746                  23842311.7074
        41.0004         22.5004
  20129399.2384  -21196599.06649 -16495471.60948                  20129396.4534
        49.2504         41.2504
  20295465.4924  -13023838.82849 -10142633.63348                  20295463.5554
        51.2504         41.0004
  23146071.5384   -5107625.75849  -3979411.10247                  23146069.1684
        46.2504         29.2504
  22161716.6504  -21454054.66049 -16698750.84847                  22161713.4234
        47.5004         35.2504
  23875245.3634   -2197343.05549  -1711733.01246                  23875243.6004
        39.5004         17.7504
  21201358.7284  -10745428.17649  -8364968.40647                  21201355.1174
        50.7504         38.7504
  24152911.1394   -2180361.43049  -1680848.70747                  24152911.6974
        45.0004         28.0004
 04  6 29 18 41 15.0000000  0  9G 3G 9G14G15G18G19G21G22G25
  22405042.4124   -9842264.86349  -7658677.79347                  22405041.9144
        48.7504         34.2504
  23838105.1304  -12865853.47749 -10019907.34846                  23838104.6314
        38.2504         21.2504
  20119428.7204  -21248992.88349 -16536297.96548                  20119426.3134
        49.5004         41.2504
  20290245.9694  -13051267.72749 -10164006.79748                  20290244.2924
        51.0004         41.2504
  23143320.6934   -5122078.03549  -3990672.63747                  23143318.3774
        45.5004         28.7504
  22151684.1954  -21506775.83249 -16739832.28947                  22151681.0784
        48.5004         35.5004
  23875568.9074   -2195645.14749  -1710410.01646                  23875566.6764
        39.0004         17.7504
  21195615.9824  -10775608.66849  -8388485.67648                  21195612.2724
        50.7504         39.5004
  24134179.9014   -2278796.43049  -1757551.26647                  24134179.7534
        45.5004         29.0004
 04  6 29 18 41 30.0000000  0  9G 3G 9G14G15G18G19G21G22G25
  22401891.1004   -9858826.19949  -7671582.75447                  22401890.3974
        48.7504         33.7504
  23833923.3144  -12887826.51049 -10037029.25846                  23833924.3344
        38.7504         22.0004
  20109482.6244  -21301259.67249 -16577025.32848                  20109480.2764
        49.2504         41.5004
  20285048.2714  -13078581.77749 -10185290.48448                  20285046.6234
        52.0004         41.0004
  23140572.5194   -5136516.82449  -4001923.65647                  23140570.7254
        43.7504         29.0004
  22141678.1034  -21559357.30949 -16780804.88747                  22141675.3674
        48.5004         35.7504
  23875901.6074   -2193901.30549  -1709051.25846                  23875898.6214
        40.0004         19.0004
  21189878.8294  -10805756.78949  -8411977.73047                  21189874.7284
        51.0004         39.0004
  24115446.0014   -2377240.35549  -1834260.77747                  24115446.1874
        44.2504         29.0004
 04  6 29 18 41 45.0000000  0  9G 3G 9G14G15G18G19G21G22G25
  22398754.6204   -9875306.28149  -7684424.40647                  22398754.5134
        47.0004         34.0004
  23829767.6114  -12909667.45749 -10054048.19146                  23829767.5754
        39.2504         21.0004
  20099560.8824  -21353400.18049 -16617654.29348                  20099558.2994
        49.7504         41.0004
  20279872.3214  -13105781.69549 -10206485.23048                  20279870.7414
        51.0004         41.5004
  23137827.7444   -5150942.86349  -4013164.75047                  23137825.6334
        43.0004         29.0004
  22131698.7824  -21611799.79349 -16821669.17247                  22131695.3294
        47.5004         35.0004
  23876241.5594   -2192112.60949  -1707657.52046                  23876239.2514
        40.0004         19.0004
  21184147.5804  -10835873.23449  -8435445.09447                  21184144.0864
        50.2504         39.0004
  24096711.1004   -2475693.64149  -1910977.58247                  24096711.3214
        43.7504         28.0004
 04  6 29 18 42  0.0000000  0  9G 3G 9G14G15G18G19G21G22G25
  22395634.8264   -9891703.54349  -7697201.51247                  22395634.0804
        48.5004         34.2504
  23825636.7474  -12931374.64849 -10070962.87946                  23825636.6444
        41.7504         21.0004
  20089663.1694  -21405412.61749 -16658183.47348                  20089660.4514
        49.2504         41.0004
  20274718.7084  -13132865.67649 -10227589.63348                  20274716.8644
        51.2504         41.2504
  23135085.9554   -5165354.17649  -4024394.37947                  23135083.9404
        43.2504         28.7504
  22121745.9354  -21664101.44149 -16862423.71147                  22121743.0874
        48.2504         35.2504
  23876590.6084   -2190277.33649  -1706227.48046                  23876589.7064
        39.5004         18.2504
  21178423.0454  -10865956.20749  -8458886.39147                  21178419.1464
        50.0004         38.2504
  24077975.0424   -2574154.12149  -1987699.99647                  24077975.1064
        45.7504         30.0004
 04  6 29 18 42 15.0000000  0  9G 3G 9G14G15G18G19G21G22G25
  22392529.1244   -9908021.55549  -7709916.86747                  22392528.7814
        48.7504         33.7504
  23821530.9124  -12952951.32049 -10087775.90246                  23821531.1034
        39.7504         20.5004
  20079789.5994  -21457300.07449 -16698615.26248                  20079786.8574
        49.5004         41.2504
  20269586.1824  -13159836.77349 -10248606.08248                  20269584.6734
        51.5004         41.2504
  23132345.2504   -5179754.00049  -4035615.05147                  23132343.7584
        44.2504         29.0004
  22111819.6824  -21716265.33649 -16903070.91847                  22111816.7984
        48.0004         35.7504
  23876948.2304   -2188398.89549  -1704763.80546                  23876946.9974
        39.7504         17.7504
  21172704.3514  -10896008.84049  -8482304.03947                  21172700.2814
        50.7504         38.7504
  24059236.3204   -2672624.50449  -2064430.12947                  24059236.5384
        45.7504         28.7504
 04  6 29 18 42 30.0000000  0  9G 3G 9G14G15G18G19G21G22G25
  22689232.2914   -9924258.80549  -7722569.29747                  22689231.4024
        48.0004         33.7504
  24117242.3584  -12974395.60249 -10104485.71546                  24117243.0834
        39.2504         21.5004
  20369732.2514  -21509058.50849 -16738946.50848                  20369729.8864
        49.5004         41.7504
  20564268.1054  -13186692.50449 -10269532.63348                  20564266.7864
        52.0004         41.2504
  23429400.4054   -5194140.71549  -4046825.50847                  23429398.2284
        41.5004         28.0004
  22401712.2604  -21768287.29749 -16943607.52047                  22401710.1554
        48.5004         35.7504
  24177106.1504   -2186476.59849  -1703265.96146                  24177105.0594
        39.5004         17.5004
  21466784.4574  -10926028.47749  -8505695.96947                  21466780.6894
        50.0004         39.0004
  24340289.9504   -2771097.11749  -2141162.00847                  24340289.8284
        45.0004         28.0004
 04  6 29 18 42 45.0000000  0  9G 3G 9G14G15G18G19G21G22G25
  22686157.1014   -9940419.52049  -7735162.08647                  22686156.1624
        47.5004         35.0004
  24113185.8224  -12995712.13249 -10121096.07446                  24113187.5914
        39.0004         21.7504
  20359906.3184  -21560696.75049 -16779184.10548                  20359903.6174
        49.0004         42.0004
  20559178.4904  -13213438.39149 -10290373.59048                  20559177.2104
        51.5004         41.2504
  23426664.1404   -5208517.93449  -4058028.56647                  23426662.8064
        43.0004         28.5004
  22391838.4884  -21820176.03549 -16984040.31647                  22391835.4074
        47.0004         34.7504
  24177479.7244   -2184512.35549  -1701735.39846                  24177478.8554
        38.5004         17.7504
  21461076.7844  -10956020.85549  -8529066.66447                  21461073.4664
        49.5004         39.2504
  24321548.5284   -2869586.51649  -2217906.96147                  24321548.2354
        45.0004         28.5004
 04  6 29 18 43  0.0000000  0  9G 3G 9G14G15G18G19G21G22G25
  22683096.7374   -9956500.43749  -7747692.69547                  22683096.2414
        48.5004         34.5004
  24109154.8154  -13016897.48049 -10137604.12946                  24109156.8414
        38.2504         21.7504
  20350103.5754  -21612208.92649 -16819323.46548                  20350101.7124
        48.5004         42.0004
  20554110.7784  -13240070.00849 -10311125.50848                  20554109.5374
        52.5004         41.2504
  23423931.1474   -5222882.12149  -4069221.47347                  23423929.0024
        41.5004         26.2504
  22381990.5414  -21871925.60549 -17024364.66447                  22381987.2844
        46.2504         35.5004
  24177861.9094   -2182503.96549  -1700170.48446                  24177860.3064
        38.5004         17.0004
  21455375.2834  -10985981.53949  -8552412.64847                  21455372.2994
        48.7504         38.5004
  24302805.4344   -2968083.42649  -2294657.77347                  24302804.3594
        45.2504         28.5004
 04  6 29 18 43 15.0000000  0  9G 3G 9G14G15G18G19G21G22G25
  22680052.1544   -9972502.99649  -7760162.24247                  22680050.8114
        47.7504         33.5004
  24105148.0984  -13037952.74649 -10154010.87146                  24105149.8314
        38.7504         21.0004
  20340324.8304  -21663596.20349 -16859365.49648                  20340322.3734
        48.0004         42.0004
  20549064.4014  -13266588.48049 -10331789.25048                  20549063.4684
        51.2504         41.2504
  23421199.6464   -5237234.52349  -4080405.17647                  23421197.2664
        44.2504         26.5004
  22372169.4594  -21923537.08649 -17064581.41047                  22372166.3064
        45.7504         35.2504
  24178253.2554   -2180452.73449  -1698572.18046                  24178250.6614
        40.2504         17.0004
  21449680.0214  -11015911.76649  -8575734.91447                  21449676.8544
        49.7504         38.7504
  24284060.2014   -3066588.53949  -2371414.94947                  24284060.1754
        45.7504         28.7504
 04  6 29 18 43 30.0000000  0  9G 3G 9G14G15G18G19G21G22G25
  22677021.6434   -9988425.42649  -7772569.35947                  22677021.1544
        47.5004         34.2504
  24101167.5694  -13058876.07449 -10170314.80146                  24101168.2684
        37.0004         19.5004
  20330570.4744  -21714856.59449 -16899308.66048                  20330568.0294
        47.5004         42.0004
  20544040.1324  -13292991.72349 -10352363.20748                  20544038.9994
        52.0004         41.7504
  23418471.0494   -5251572.94149  -4091577.98447                  23418468.9974
        43.0004         26.0004
  22362375.1544  -21975008.48849 -17104689.00447                  22362371.4424
        45.0004         34.5004
  24178652.0874   -2178356.62549  -1696938.91046                  24178649.3974
        40.5004         17.0004
  21443990.4854  -11045809.40649  -8599031.78147                  21443987.3244
        50.0004         39.2504
  24265314.3164   -3165099.48449  -2448176.71147                  24265313.5134
        46.0004         28.5004
 04  6 29 18 43 45.0000000  0  9G 3G 9G14G15G18G19G21G22G25
  22674006.6114  -10004268.07449  -7784914.31647                  22674006.7684
        47.2504         34.5004
  24097210.7454  -13079667.54349 -10186515.99246                  24097211.3324
        37.5004         20.5004
  20320840.0574  -21765990.17649 -16939153.02348                  20320837.6424
        46.7504         41.5004
  20539037.5474  -13319279.69149 -10372847.34048                  20539036.2744
        51.7504         41.2504
  23415745.0844   -5265897.49649  -4102739.99246                  23415743.5034
        43.5004         25.5004
  22352606.9814  -22026339.74249 -17144687.39547                  22352604.2814
        44.5004         35.2504
  24179059.1314   -2176216.02049  -1695270.96546                  24179056.7594
        40.0004         18.5004
  21438307.5164  -11075674.36749  -8622303.18047                  21438304.3104
        49.2504         39.0004
  24246567.0064   -3263615.75449  -2524942.62147                  24246566.4694
        46.0004         28.2504
 04  6 29 18 44  0.0000000  0  9G 3G 9G14G15G18G19G21G22G25
  22671006.4944  -10020033.92249  -7797199.43047                  22671007.0154
        46.7504         33.5004
  24093278.7454  -13100330.16849 -10202616.78946                  24093279.8804
        38.2504         21.2504
  20311132.9524  -21816999.57849 -16978900.60548                  20311130.8894
        45.2504         41.2504
  20534056.5714  -13345455.15249 -10393243.80948                  20534055.1664
        51.2504         42.0004
  23413021.3144   -5280210.73049  -4113893.18446                  23413019.8654
        43.5004         25.0004
  22342865.2124  -22077533.56649 -17184578.69947                  22342862.5134
        44.5004         35.0004
  24179474.2314   -2174033.42249  -1693570.25846                  24179471.7004
        39.5004         17.5004
  21432630.1674  -11105509.44549  -8645551.30548                  21432626.9964
        50.2504         39.5004
  24227818.5004   -3362139.78149  -2601714.56247                  24227817.5434
        47.0004         28.5004
 04  6 29 18 44 15.0000000  0  9G 3G 9G14G15G18G19G21G22G25
  22668020.8914  -10035722.03549  -7809423.96947                  22668021.9434
        45.5004         33.2504
  24089371.7554  -13120862.84049 -10218616.30546                  24089371.9044
        40.7504         22.2504
  20301449.6904  -21867883.82049 -17018550.66448                  20301447.8604
        46.0004         41.7504
  20529097.2924  -13371516.91849 -10413551.68748                  20529095.3374
        52.0004         41.7504
  23410299.9024   -5294511.52049  -4125036.68446                  23410298.3644
        41.0004         24.0004
  22333149.4794  -22128588.69549 -17224361.92647                  22333146.3874
        44.5004         35.2504
  24179897.9324   -2171807.85249  -1691836.14846                  24179895.1684
        39.2504         16.2504
  21426958.7154  -11135313.34849  -8668775.13347                  21426955.2454
        50.0004         39.0004
  24209068.6184   -3460670.14149  -2678491.43447                  24209068.2734
        45.0004         28.0004
 04  6 29 18 44 30.0000000  0  9G 3G 9G14G15G18G19G21G22G25
  22665050.6474  -10051332.85249  -7821588.26647                  22665051.4764
        46.7504         34.0004
  24085488.5994  -13141265.92649 -10234514.82446                  24085488.8534
        40.0004         21.7504
  20291791.4444  -21918642.94149 -17058103.22748                  20291788.8204
        47.0004         41.5004
  20524159.2734  -13397464.93049 -10433770.93748                  20524157.9854
        51.0004         41.5004
  23407581.2354   -5308799.91849  -4136170.51246                  23407579.7984
        42.2504         25.2504
  22323460.2754  -22179505.10949 -17264037.06247                  22323457.7434
        44.7504         35.2504
  24180329.2414   -2169539.51249  -1690068.65646                  24180327.6884
        38.0004         17.0004
  21421292.8414  -11165086.16049  -8691974.74247                  21421289.7044
        49.0004         38.2504
  24190317.4114   -3559206.20349  -2755272.75047                  24190317.2264
        45.7504         29.2504
 04  6 29 18 44 45.0000000  0  9G 3G 9G14G15G18G19G21G22G25
  22662094.3874  -10066864.48449  -7833690.85247                  22662095.5934
        44.2504         32.7504
  24081631.4674  -13161537.33649 -10250310.76646                  24081631.9334
        38.7504         22.2504
  20282156.2024  -21969274.86349 -17097556.67648                  20282154.1904
        47.7504         41.7504
  20519243.9724  -13423297.16449 -10453899.97348                  20519242.5184
        52.2504         42.0004
  23404865.1814   -5323073.67649  -4147292.93047                  23404863.7114
        44.0004         25.7504
  22313798.1104  -22230280.76649 -17303602.51647                  22313795.3644
        46.0004         35.7504
  24180769.7784   -2167226.58249  -1688266.44146                  24180768.7244
        38.2504         17.7504
  21415633.8334  -11194825.76249  -8715148.46547                  21415630.3784
        49.0004         38.7504
  24171566.1914   -3657745.36349  -2832056.47747                  24171566.1444
        45.7504         29.7504
 04  6 29 18 45  0.0000000  0  9G 3G 9G14G15G18G19G21G22G25
  22659153.6694  -10082318.03949  -7845732.61747                  22659154.6314
        44.5004         33.0004
  24077798.4664  -13181678.19949 -10266004.97746                  24077799.4484
        39.5004         22.0004
  20272545.5544  -22019780.44149 -17136911.67248                  20272543.3234
        47.7504         42.0004
  20514349.8914  -13449014.46149 -10473939.43748                  20514348.9534
        51.2504         41.5004
  23402151.7974   -5337333.67649  -4158404.64147                  23402150.5424
        42.7504         26.0004
  22304162.2874  -22280916.57049 -17343058.99647                  22304160.4284
        46.2504         36.0004
  24181218.2074   -2164870.28549  -1686430.43046                  24181217.2584
        39.0004         17.0004
  21409980.9474  -11224533.05949  -8738297.01247                  21409977.2754
        49.0004         38.5004
  24152814.0404   -3756288.37149  -2908843.19947                  24152814.0364
        46.0004         30.0004
